     2              OBSERVATION DATA    GPS                 RINEX VERSION / TYPE
teqc 1997Sep10 19971010 23:17:58UTC                         PGM / RUN BY / DATE
                                                            COMMENT
Original Marker Name: HOLT                                  COMMENT
Campaign Name: NGS Salton Trough 1991                       COMMENT
4-Character Station Name: HOLT                              COMMENT
6-Character Antenna Code: TRMSST                            COMMENT
Vertical Measurement Point: BGP                             COMMENT
Vertical Offset to Rinex Ref. Point: 0.0597                 COMMENT
Radial Measurement Point: NGP                               COMMENT
Radial Offset to Rinex Ref. Point: 0.2334                   COMMENT
Antenna Height from Field Measurement: 1.9560 m             COMMENT
Original XYZ: -2302041.3554 -4848891.6524 3433582.5367      COMMENT
New XYZ position is based on association with SCEC monument COMMENT
E1C8W1K4+0011. Position of that monument is believed to be  COMMENT
valid to within 1 m horizontally; vertical accuracy         COMMENT
should be no worse than 3-times this value.                 COMMENT
                                                            COMMENT
Revised Rinex header created by UCSD GPS archive for        COMMENT
GSAC on 10-Apr-1999 (1999:100) 05:50:44 GMT                 COMMENT
For assistance contact dagnew@ucsd.edu or hjohnson@ucsd.edu COMMENT
                                                            COMMENT
HOLT 1924 1964                                              MARKER NAME
unknown NATIONAL GEODETIC SURVEY                            OBSERVER / AGENCY
485 TRIMBLE 4000 SST NP 4.30 / SP 4.20                      REC # / TYPE / VERS
16 TR 4000SST L1/L2 GEO                                     ANT # / TYPE
 -2302040.0000 -4848898.0000  3433584.0000                  APPROX POSITION XYZ
        1.8823        0.0000        0.0000                  ANTENNA: DELTA H/E/N
     1     1     0                                          WAVELENGTH FACT L1/2
     3    C1    L1    L2                                    # / TYPES OF OBSERV
     0                                                      INTERVAL
  1991     3    21    23    23   15.000000                  TIME OF FIRST OBS
  1991     3    22     3    37   60.000000                  TIME OF LAST OBS
     0                                                      # OF SATELLITES
                                                            END OF HEADER
 91  3 21 23 23 15.0000000  0  6G 2G18G 6G11G16G19
  21909374.719     -246899.784 7
  22424366.6254         -0.92756
  23764305.555          -0.12315
  22993384.7344         -0.17156
  24133521.711          -0.14615
  21160273.492          -0.86716
 91  3 21 23 23 30.0000000  0  6G 2G18G 6G11G16G19
  21901014.484     -290827.703 7        -0.33332
  22429700.906       28032.644 6        -0.04232
  23754881.352      -49520.157 5
  22992234.2584      -6047.97146        -0.12771
  24130710.969      -14754.069 5
  21158579.5394      -8934.27246        -0.23773
 91  3 21 23 23 45.0000000  0  6G 2G18G 6G11G16G19
  21892661.016     -334722.545 7    -34204.03022
  22435042.4774      56099.72346     21870.29062
  23745449.695      -99081.091 5        -0.07831
  22991104.0944     -11986.01446     -4627.17661
  24127924.9534     -29424.01445        -0.21571
  21156878.4694     -17853.30846     -6950.14163
 91  3 21 23 24  0.0000000  0  6G 2G18G 6G11G16G19
  21884321.219     -378550.705 7    -68355.77122
  22440396.133       84233.675 6     43792.73621
  23736018.0004    -148649.22345    -38624.43661
  22989999.6954     -17780.63446     -9142.46661
  24125152.6484     -43976.21645    -11339.63261
  21155193.1954     -26724.15846    -13862.49763
 91  3 21 23 24 15.0000000  0  6G 2G18G 6G11G16G19
  21875997.2274    -422297.68847   -102444.25762
  22445765.508      112448.837 6     65778.46922
  23726585.492     -198210.040 5    -77243.12221
  22988929.5234     -23417.43746    -13534.77661
  24122408.3594     -58396.66545    -22576.39861
  21153513.6954     -35532.30246    -20725.98563
 91  3 21 23 24 30.0000000  0  6G 2G18G 6G11G16G19
  21867681.383     -465992.345 7   -136491.96222
  22451144.719      140716.109 6     87804.80622
  23717152.6254    -247792.43745   -115878.61261
  22987880.9614     -28925.40446    -17826.70061
  24119684.906      -72713.825 5    -33732.67521
  21151845.7974     -44306.45046    -27562.98763
 91  3 21 23 24 45.0000000  0  6G 2G18G 6G11G16G19
  21859376.445     -509633.227 6   -170497.77422
  22456534.453      169036.754 6    109872.73622
  23707712.2344    -297394.94245   -154529.76661
  22986857.9064     -34303.21446    -22017.20261
  24116979.188      -86926.911 5    -44807.84721
  21150182.0234     -53045.07046    -34372.30663
 91  3 21 23 25  0.0000000  0  6G 2G18G 6G11G16G19
  21851084.461     -553209.037 7   -204452.87622
  22461935.297      197421.931 6    131990.94122
  23698272.1724    -347006.27545   -193187.78561
  22985859.5944     -39539.63546    -26097.52761
  24114296.648     -101024.628 5    -55793.12721
  21148530.8284     -61736.71946    -41145.02563
 91  3 21 23 25 15.0000000  0  6G 2G18G 6G11G16G19
  21842803.969     -596720.776 7   -238358.05522
  22467349.734      225870.022 6    154158.18322
  23688828.3674    -396627.56245   -231853.58261
  22984889.9064     -44635.84146    -30068.60661
  24111636.3524    -115008.25545    -66689.50661
  21146884.0554     -70382.49446    -47881.99663
 91  3 21 23 25 30.0000000  0  6G 2G18G 6G11G16G19
  21834535.1484    -640175.16447   -272218.55162
  22472773.3524     254374.04146    176368.98761
  23679383.289     -446265.494 5   -270532.34721
  22983947.0234     -49598.58346    -33935.68161
  24108997.703     -128884.382 5    -77502.12521
  21145247.3984     -78988.86346    -54588.26463
 91  3 21 23 25 45.0000000  0  6G 2G18G 6G11G16G19
  21826282.3054    -683547.99147   -306015.48862
  22478213.664      282957.763 6    198641.90321
  23669938.891     -495895.760 5   -309205.13421
  22983030.2274     -54403.82746    -37680.02261
  24106378.227     -142628.939 5    -88212.20921
  21143621.2194     -87531.49146    -61244.86163
 91  3 21 23 26  0.0000000  0  6G 2G18G 6G11G16G19
  21818042.5704    -726845.93247   -339754.07262
  22483665.773      311614.518 6    220971.73321
  23660495.977     -545525.017 5   -347877.14721
  22982146.6724     -59058.05746    -41306.70661
  24103786.188     -156248.468 5    -98824.90021
  21142005.1804     -96016.85346    -67856.83763
 91  3 21 23 26 15.0000000  0  6G 2G18G 6G11G16G19
  21809813.805     -770086.766 7   -373448.16222
  22489131.203      340326.299 6    243344.43421
  23651047.641     -595170.938 5   -386562.13521
  22981283.8444     -63579.26146    -44829.71361
  24101217.781     -169761.188 5   -109354.33021
  21140397.852     -104462.763 6    -74438.07623
 91  3 21 23 26 30.0000000  0  6G 2G18G 6G11G16G19
  21801597.2194    -813266.81147   -407094.87962
  22494605.656      369096.444 6    265762.62021
  23641597.648     -644830.151 5   -425257.49621
  22980451.2344     -67963.97746    -48246.37761
  24098666.9144    -183163.53745   -119797.77561
  21138800.3054    -112865.65746    -80985.79063
 91  3 21 23 26 45.0000000  0  6G 2G18G 6G11G16G19
  21793392.0554    -856386.65047   -440694.68762
  22500089.930      397924.335 6    288225.80121
  23632146.219     -694503.106 5   -463963.55821
  22979642.5234     -72212.87346    -51557.21561
  24096135.234     -196456.373 5   -130155.88321
  21137206.9534    -121225.88146    -87500.24863
 91  3 21 23 27  0.0000000  0  6G 2G18G 6G11G16G19
  21785197.7034    -899443.75347   -474245.61162
  22505587.969      426812.106 6    310735.63621
  23622690.523     -744187.123 5   -502678.22921
  22978859.055      -76323.312 6    -54760.16822
  24093629.9454    -209637.07945   -140426.62761
  21135630.5944    -129540.72646    -93979.35663
 91  3 21 23 27 15.0000000  0  6G 2G18G 6G11G16G19
  21777015.3364    -942444.83947   -507752.88862
  22511095.516      455752.691 6    333286.62821
  23613231.0084    -793889.06445   -541406.88061
  22978102.7034     -80302.26646    -57860.65361
  24091141.813     -222712.641 5   -150615.42521
  21134052.344     -137817.034 6   -100428.43723
 91  3 21 23 27 30.0000000  0  6G 2G18G 6G11G16G19
  21768840.6644    -985397.66047   -541222.54962
  22516610.641      484737.889 6    355872.38421
  23603768.453     -843616.844 5   -580155.65121
  22977370.4924     -84157.87546    -60865.03361
  24088671.656     -235691.259 5   -160728.71321
  21132483.4844    -146062.43146   -106853.43263
 91  3 21 23 27 45.0000000  0  6G 2G18G 6G11G16G19
  21760679.9534   -1028284.77047   -574641.00863
  22522138.898      513785.131 6    378506.48821
  23594304.4224    -893352.78145   -618910.78661
  22976663.5474     -87872.56646    -63759.60761
  24086223.969     -248555.298 5   -170752.68221
  21130922.1174    -154259.29246   -113240.60163
 91  3 21 23 28  0.0000000  0  6G 2G18G 6G11G16G19
  21752532.1024   -1071105.67747   -608007.88162
  22527677.5864     542894.68146    401189.14061
  23584838.148     -943096.335 5   -657671.84921
  22975983.211      -91445.785 6    -66543.94321
  24083796.3754    -261304.46145   -180687.15461
  21129374.3834    -162406.97946   -119589.45263
 91  3 21 23 28 15.0000000  0  6G 2G18G 6G11G16G19
  21744394.4454   -1113869.00347   -641329.88863
  22533228.125      572057.779 6    423913.52321
  23575369.422     -992856.102 5   -696445.54521
  22975329.8134     -94886.16046    -69224.76461
  24081389.6644    -273947.52345   -190538.94761
  21127828.8754    -170513.97246   -125906.59863
 91  3 21 23 28 30.0000000  0  6G 2G18G 6G11G16G19
  21736269.8054   -1156563.76647   -674598.46863
  22538789.789      601284.965 6    446687.83821
  23565900.2584   -1042621.12145   -735223.35461
  22974701.680      -98182.918 6    -71793.67621
  24079007.4844    -286473.62145   -200299.59461
  21126298.1884    -178569.14446   -132183.36363
 91  3 21 23 28 45.0000000  0  6G 2G18G 6G11G16G19
  21728156.5314   -1199197.31047   -707819.34363
  22544362.484      630568.494 6    469506.06121
  23556425.9534   -1092398.92345   -774011.12661
  22974099.070     -101343.785 6    -74256.70121
  24076644.281     -298890.419 5   -209975.08121
  21124772.3134    -186579.89246   -138425.50963
 91  3 21 23 29  0.0000000  0  6G 2G18G 6G11G16G19
  21720059.4694   -1241747.84847   -740975.53863
  22549949.7344     659930.16646    492385.17061
  23546954.9844   -1142167.51645   -812791.72361
  22973527.305     -104347.005 6    -76596.88921
  24074307.320     -311175.981 5   -219548.29621
  21123265.0864    -194524.19346   -144615.87963
 91  3 21 23 29 15.0000000  0  6G 2G18G 6G11G16G19
  21711979.9304   -1284210.79147   -774063.48163
  22555553.2194     689374.35946    515328.57761
  23537487.109    -1191922.342 5   -851561.56521
  22972986.688     -107188.110 6    -78810.75121
  24071996.609     -323326.013 5   -229015.92021
  21121761.7734    -202397.39246   -150750.84463
 91  3 21 23 29 30.0000000  0  6G 2G18G 6G11G16G19
  21703909.1414   -1326612.79447   -807103.94063
  22561166.547      718873.773 6    538315.01721
  23528017.2974   -1241690.26845   -890341.62061
  22972473.055     -109893.911 6    -80919.18621
  24069704.125     -335367.525 5   -238398.96121
  21120273.5634    -210226.39546   -156851.37263
 91  3 21 23 29 45.0000000  0  6G 2G18G 6G11G16G19
  21695850.3914   -1368970.50447   -840109.87363
  22566787.586      748411.354 6    561331.20421
  23518538.648    -1291487.678 5   -929144.65621
  22971978.953     -112480.995 6    -82935.10821
  24067428.469     -347317.092 5   -247710.34621
  21118788.0634    -218027.72146   -162930.33263
 91  3 21 23 30  0.0000000  0  6G 2G18G 6G11G16G19
  21687801.7664   -1411261.80747   -873064.06963
  22572419.8754     778009.37246    584394.47261
  23509059.9924   -1341292.44145   -967953.42261
  22971515.172     -114927.300 6    -84841.33722
  24065180.023     -359152.844 5   -256933.06621
  21117315.0554    -225778.97346   -168970.27363
 91  3 21 23 30 15.0000000  0  6G 2G18G 6G11G16G19
  21679769.6804   -1453475.39847   -905957.71263
  22578066.6644     807678.73546    607513.33761
  23499585.930    -1391093.458 5  -1006759.25421
  22971077.219     -117221.900 7    -86629.36021
  24062947.2894    -370863.90345   -266058.62461
  21115850.8364    -233468.72546   -174962.29663
 91  3 21 23 30 30.0000000  0  6G 2G18G 6G11G16G19
  21671749.9924   -1495617.53847   -938795.67363
  22583723.7734     837413.19546    630682.92961
  23490108.2504   -1440896.79145  -1045566.90061
  22970669.9454    -119371.03246    -88304.03361
  24060744.6484    -382456.25845   -275091.66561
  21114397.9144    -241103.00046   -180911.08763
 91  3 21 23 30 45.0000000  0  6G 2G18G 6G11G16G19
  21663742.3284   -1537696.84747   -971584.67863
  22589392.9924     867203.61146    653896.11961
  23480629.6884   -1490710.97045  -1084383.01361
  22970284.859     -121383.377 6    -89872.11821
  24058557.148     -393938.718 5   -284039.06921
  21112953.6954    -248690.37046   -186823.33263
 91  3 21 23 31  0.0000000  0  6G 2G18G 6G11G16G19
  21655748.2814   -1579707.26447  -1004320.00063
  22595073.0944     897055.64746    677157.32661
  23471147.9304   -1540529.97945  -1123202.87661
  22969930.305     -123253.089 6    -91329.05921
  24056395.367     -405305.512 5   -292896.37221
  21111522.3054    -256224.70646   -192694.24463
 91  3 21 23 31 15.0000000  0  6G 2G18G 6G11G16G19
  21647767.3594   -1621644.64447  -1036998.40963
  22600766.6254     926973.69646    700469.96761
  23461667.2814   -1590349.59245  -1162023.20161
  22969603.906     -124976.073 6    -92671.66021
  24054256.1644    -416552.72445   -301660.50861
  21110095.406     -263701.635 6   -198520.43323
 91  3 21 23 31 30.0000000  0  6G 2G18G 6G11G16G19
  21639798.0784   -1663521.42547  -1069629.59963
  22606469.7664     956944.73046    723823.90761
  23452185.344    -1640182.337 5  -1200853.78421
  22969301.000     -126564.831 6    -93909.67121
  24052132.477     -427692.816 5   -310341.12221
  21108687.188     -271133.518 6   -204311.52023
 91  3 21 23 31 45.0000000  0  6G 2G18G 6G11G16G19
  21631837.1804   -1705358.05247  -1102229.49963
  22612180.5164     986948.13546    747203.06561
  23442697.1024   -1690048.56645  -1239710.42661
  22969018.133     -128039.990 6    -95059.17021
  24050027.602     -438746.348 5   -318954.29321
  21107273.1414    -278540.90546   -210083.51363
 91  3 21 23 32  0.0000000  0  6G 2G18G 6G11G16G19
  21623891.4534   -1747110.59947  -1134763.88562
  22617903.4224    1017027.50346    770641.40761
  23433208.047    -1739904.332 5  -1278558.93621
  22968768.383     -129357.679 6    -96085.96021
  24047952.414     -449669.390 5   -327465.83021
  21105879.4694    -285879.73246   -215802.08963
 91  3 21 23 32 15.0000000  0  6G 2G18G 6G11G16G19
  21615958.4304   -1788802.95647  -1167251.36963
  22623637.602     1047158.709 6    794120.15321
  23423719.297    -1789773.443 5  -1317417.82921
  22968542.180     -130541.900 6    -97008.74421
  24045895.1414    -460486.24545   -335894.58161
  21104488.6174    -293173.72946   -221485.72963
 91  3 21 23 32 30.0000000  0  6G 2G18G 6G11G16G19
  21608038.0474   -1830419.75847  -1199679.97963
  22629384.5084    1077356.97546    817651.14061
  23414229.3594   -1839640.63845  -1356275.22461
  22968345.906     -131577.554 6    -97815.76621
  24043857.789     -471181.885 5   -344228.91221
  21103116.9614    -300407.41646   -227122.37463
 91  3 21 23 32 45.0000000  0  6G 2G18G 6G11G16G19
  21600129.3364   -1871981.22447  -1232065.47162
  22635139.8834    1107601.63646    841218.28361
  23404737.1564   -1889526.09545  -1395146.86561
  22968171.5314    -132485.01046    -98522.90661
  24041841.453     -481776.560 5   -352484.52721
  21101742.8524    -307600.87246   -232727.67263
 91  3 21 23 33  0.0000000  0  6G 2G18G 6G11G16G19
  21592232.9534   -1913478.83847  -1264401.20962
  22640905.6414    1137900.90346    864827.98161
  23395242.805    -1939421.228 5  -1434026.03721
  22968025.727     -133255.780 6    -99123.52321
  24039849.1094    -492261.90944   -360654.99961
  21100385.3594    -314745.60846   -238295.00263
 91  3 21 23 33 15.0000000  0  6G 2G18G 6G11G16G19
  21584343.4224   -1954939.10447  -1296707.84563
  22646677.8754    1168227.92446    888459.30661
  23385739.3674   -1989352.55045  -1472933.39661
  22967903.531     -133916.506 6    -99638.40021
  24037868.2114    -502664.54644   -368761.00261
  21099027.156     -321867.998 6   -243844.92523
 91  3 21 23 33 30.0000000  0  6G 2G18G 6G11G16G19
  21576465.7034   -1996331.38747  -1328961.50662
  22652458.9924    1198613.28146    912136.08561
  23376238.836    -2039289.495 5  -1511845.16021
  22967801.938     -134436.791 6   -100043.83621
  24035910.0474    -512954.22244   -376778.99461
  21097684.4304    -328937.18646   -249353.39463
 91  3 21 23 33 45.0000000  0  6G 2G18G 6G11G16G19
  21568603.2424   -2037653.47547  -1361160.46862
  22658253.3364    1229058.73346    935859.68661
  23366734.258    -2089229.712 5  -1550759.46821
  22967727.5314    -134814.57846   -100338.24361
  24033975.625     -523128.746 4   -384707.22921
  21096347.8134    -335950.97346   -254818.68963
 91  3 21 23 34  0.0000000  0  6G 2G18G 6G11G16G19
  21560753.5704   -2078902.58047  -1393302.56962
  22664059.117     1259567.124 6    959632.33421
  23357232.383    -2139170.330 5  -1589674.09821
  22967687.727     -135047.023 6   -100519.39221
  24032060.766     -533185.167 4   -392543.48121
  21095024.094     -342906.411 6   -260238.52323
 91  3 21 23 34 15.0000000  0  6G 2G18G 6G11G16G19
  21552913.0944   -2120103.25647  -1425406.93062
  22669871.0004    1290113.47546    983434.56261
  23347722.969    -2189135.997 5  -1628608.23421
  22967663.5004    -135158.88446
  24030165.008     -543148.505 4   -400307.19321
  21093706.7734    -349828.07146   -265632.03063
 91  3 21 23 34 30.0000000  0  6G 2G18G 6G11G16G19
  21545084.2194   -2161245.13047  -1457465.47162
  22675693.1094    1320707.99946   1007274.32661
  23338209.422    -2239116.131 5  -1667553.65921
  22967671.0634    -135139.75246
  24028290.273     -553008.326 4   -407990.21721
  21092400.2504    -356705.24346   -270990.87063
 91  3 21 23 34 45.0000000  0  6G 2G18G 6G11G16G19
  21537268.7664   -2202318.46447  -1489470.60263
  22681527.859     1351360.200 6   1031159.03221
  23328700.922    -2289101.000 5  -1706502.76121
  22967699.117     -134980.108 6
  24026431.828     -562755.317 4   -415585.32221
  21091100.1484    -363528.01446   -276307.31763
 91  3 21 23 35  0.0000000  0  6G 2G18G 6G11G16G19
  21529462.7034   -2243334.57847  -1521431.14863
  22687368.8594    1382058.38646   1055079.56861
  23319184.8204   -2339102.02845  -1745464.45261
  22967756.094     -134691.628 6
  24024597.031     -572401.263 4   -423101.69921
  21089812.2584    -370307.90146   -281590.34863
 91  3 21 23 35 15.0000000  0  6G 2G18G 6G11G16G19
  21521671.1254   -2284278.59847  -1553335.51762
  22693221.047     1412817.156 6   1079047.31421
  23309669.7114   -2389104.24445  -1784427.07361
  22967835.133     -134259.410 6    -99905.79121
  24022781.109     -581931.092 4   -430527.59721
  21088530.4694    -377029.69646   -286828.11263
 91  3 21 23 35 30.0000000  0  6G 2G18G 6G11G16G19
  21513893.6564   -2325148.06447  -1585181.79263
  22699086.5944    1443638.77446   1103064.02761
  23300154.648    -2439105.087 5  -1823388.62821
  22967946.461     -133681.099 6    -99455.18821
  24020994.523     -591342.471 4   -437861.20621
  21087266.8204    -383690.85546   -292018.62663
 91  3 21 23 35 45.0000000  0  6G 2G18G 6G11G16G19
  21506131.0004   -2365943.91347  -1616970.70362
  22704963.7034    1474522.20246   1127128.91661
  23290639.664    -2489105.474 5  -1862349.82721
  22968085.6804    -132957.77646    -98891.58761
  24019226.2814    -600636.66344   -445103.48861
  21086005.9224    -390292.36246   -297162.66463
 91  3 21 23 35 59.9990000  0  6G 2G18G 6G11G16G19
  21498381.4954   -2406666.43947  -1648702.48463
  22710851.1674    1505461.91646   1151237.66061
  23281125.573    -2539105.211 5  -1901310.50721
  22968247.628     -132092.802 6    -98217.59921
  24017478.3784    -609815.99344   -452256.24661
  21084765.5344    -396836.71746   -302262.16263
 91  3 21 23 36 14.9990000  0  6G 2G18G 6G11G16G19
  21490643.5034   -2447328.76447  -1680387.35263
  22716749.5814    1536454.12846   1175387.30161
  23271608.3704   -2589118.35545  -1940281.64161
  22968438.6834    -131093.82146    -97439.20261
  24015749.198     -618889.662 4   -459326.70221
  21083525.8864    -403332.18746   -307323.57063
 91  3 21 23 36 29.9990000  0  6G 2G18G 6G11G16G19
  21482918.9874   -2487926.05847  -1712021.54963
  22722655.4094    1567498.55146   1199577.63461
  23262087.8704   -2639139.45845  -1979258.98561
  22968653.933     -129958.876 6    -96554.85221
  24014048.808     -627855.088 4   -466312.79821
  21082302.0424    -409775.98446   -312344.71863
 91  3 21 23 36 44.9990000  0  6G 2G18G 6G11G16G19
  21475205.7224   -2528454.26347  -1743601.91363
  22728575.011     1598599.027 6   1223811.63421
  23252568.737    -2689164.552 5  -2018239.44921
  22968897.8084    -128684.04546    -95561.50961
  24012359.706     -636708.630 4   -473211.71021
  21081084.8554    -416164.21946   -317322.56363
 91  3 21 23 36 59.9990000  0  6G 2G18G 6G11G16G19
  21467505.7694   -2568919.60947  -1775133.29363
  22734503.5504    1629749.13646   1248084.32661
  23243046.112    -2739199.803 5  -2057227.81621
  22969164.3864    -127275.73846    -94464.15562
  24010697.4254    -645456.66944   -480028.40361
  21079879.3624    -422503.09446   -322261.95563
 91  3 21 23 37 14.9990000  0  6G 2G18G 6G11G16G19
  21459821.315    -2609301.489 7  -1806599.64123
  22740444.995     1660969.282 6   1272411.58021
  23233528.792    -2789224.415 5  -2096207.89621
  22969462.5894    -125713.50146    -93246.86061
  24009054.190     -654078.596 4   -486746.85521
  21078684.5344    -428771.44546   -327146.38563
 91  3 21 23 37 29.9990000  0  6G 2G18G 6G11G16G19
  21452147.448    -2649627.481 7  -1838022.43623
  22746393.003     1692231.691 6   1296771.75721
  23224005.5264   -2839266.00445  -2135201.20761
  22969783.9564    -124024.98846    -91931.17961
  24007434.9564    -662602.26644   -493388.73361
  21077502.5194    -434996.85546   -331997.36363
 91  3 21 23 37 44.9990000  0  6G 2G18G 6G11G16G19
  21444484.214    -2689896.988 7  -1869401.22323
  22752351.784     1723536.476 6   1321164.95021
  23214477.526    -2889324.007 5  -2174207.32821
  22970129.964     -122209.782 6    -90516.77621
  24005830.0734    -671027.16844   -499953.71261
  21076323.862     -441178.813 6   -336814.48123
 91  3 21 23 37 59.9990000  0  6G 2G18G 6G11G16G19
  21436833.2844   -2730103.98547  -1900731.32063
  22758317.761     1754889.233 6   1345595.50021
  23204952.261    -2939392.272 5  -2213221.47621
  22970499.284     -120262.061 6    -88999.12221
  24004245.644     -679347.455 4   -506437.12421
  21075160.206     -447311.181 6   -341592.97623
 91  3 21 23 38 14.9990000  0  6G 2G18G 6G11G16G19
  21429191.3154   -2770258.16847  -1932020.25863
  22764290.761     1786280.144 6   1370055.78321
  23195419.558    -2989480.530 5  -2252251.18421
  22970893.1674    -118191.69246    -87385.91561
  24002679.245     -687573.147 4   -512846.86221
  21073996.7144    -453403.47546   -346340.24363
 91  3 21 23 38 29.9990000  0  6G 2G18G 6G11G16G19
  21421561.456    -2810353.380 7  -1963263.24323
  22770272.6514    1817715.13346   1394550.42661
  23185884.987    -3039582.513 5  -2291291.59521
  22971313.081     -115992.676 6    -85672.45221
  24001137.589     -695698.186 4   -519178.16521
  21072847.964     -459449.592 6   -351051.51823
 91  3 21 23 38 44.9990000  0  6G 2G18G 6G11G16G19
  21413945.612    -2850375.089 7  -1994448.93523
  22776264.6754    1849208.61846   1419090.65361
  23176352.440    -3089683.698 5  -2330331.34721
  22971758.300     -113650.611 6    -83847.50821
  23999613.6364    -703708.04944   -525419.70561
  21071708.448     -465434.864 6   -355715.38223
 91  3 21 23 38 59.9990000  0  6G 2G18G 6G11G16G19
  21406343.487    -2890331.150 7  -2025583.47923
  22782267.1904    1880752.28046   1443669.97761
  23166814.683    -3139791.879 5  -2369376.57321
  22972230.464     -111173.519 6    -81917.35421
  23998109.081     -711611.179 4   -531578.06521
  21070581.651     -471366.923 6   -360337.78323
 91  3 21 23 39 14.9990000  0  6G 2G18G 6G11G16G19
  21398750.8864   -2930229.53247  -2056673.09563
  22788279.542     1912338.092 6   1468282.13121
  23157276.230    -3189914.853 5  -2408433.34821
  22972725.0894    -108569.41846    -79888.25062
  23996621.761     -719415.349 4   -537659.35921
  21069458.8314    -477253.36446   -364924.64263
 91  3 21 23 39 29.9990000  0  6G 2G18G 6G11G16G19
  21391170.8154   -2970060.27947  -2087710.01163
  22794300.261     1943975.944 6   1492934.83221
  23147739.2454   -3240042.69645  -2447493.92561
  22973246.8314    -105828.53846    -77752.57261
  23995161.0504    -727111.05745   -543656.12961
  21068350.9874    -483084.29546   -369468.25963
 91  3 21 23 39 44.9990000  0  6G 2G18G 6G11G16G19
  21383603.808    -3009826.379 7  -2118696.57023
  22800329.308     1975662.507 6   1517625.45421
  23138200.198    -3290178.411 5  -2486560.67121
  22973794.1514    -102954.03946    -75512.78461
  23993713.4644    -734701.35944   -549570.82861
  21067249.6754    -488862.65146   -373970.91363
 91  3 21 23 39 59.9990000  0  6G 2G18G 6G11G16G19
  21376049.237    -3049528.308 7  -2149633.09023
  22806368.9334    2007396.91546   1542353.41361
  23128655.4644   -3340322.26645  -2525633.69561
  22974366.8944     -99946.54146    -73169.32961
  23992288.331     -742186.866 4   -555403.78521
  21066162.776     -494588.847 6   -378432.90423
 91  3 21 23 40 14.9990000  0  6G 2G18G 6G11G16G19
  21368506.9334   -3089159.54147  -2180514.54663
  22812418.417     2039185.583 6   1567123.62821
  23119114.214    -3390467.736 5  -2564708.01521
  22974965.230      -96799.579 6    -70717.22921
  23990885.948     -749561.194 4   -561150.15421
  21065081.1674    -500256.12146   -382848.99463
 91  3 21 23 40 29.9990000  0  6G 2G18G 6G11G16G19
  21360976.5584   -3128728.46147  -2211347.43463
  22818475.839     2071019.512 6   1591929.12521
  23109569.761    -3440623.057 5  -2603789.99821
  22975588.792      -93521.690 6    -68163.08521
  23989500.3154    -756833.07944   -566816.66761
  21064014.503     -505872.768 6   -387225.62223
 91  3 21 23 40 44.9990000  0  6G 2G18G 6G11G16G19
  21353465.401    -3168205.082 7  -2242108.38723
  22824548.4334    2102928.64846   1616793.23161
  23100030.0264   -3490758.32545  -2642856.33561
  22976243.6754     -90083.23846    -65483.82561
  23988144.1514    -763972.75944   -572380.15761
  21062960.690     -511408.698 6   -391539.35023
 91  3 21 23 40 59.9990000  0  6G 2G18G 6G11G16G19
  21345969.878    -3207597.341 7  -2272803.61223
  22830633.4954    2134904.80046   1641709.55561
  23090489.276    -3540881.379 5  -2681913.16421
  22976926.9804     -86492.21346    -62685.67061
  23986807.9644    -770988.21844   -577846.85661
  21061922.284     -516871.906 6   -395796.41023
 91  3 21 23 41 14.9990000  0  6G 2G18G 6G11G16G19
  21338485.831    -3246920.284 7  -2303444.81623
  22836727.464     2166932.633 6   1666666.14521
  23080950.948    -3591007.125 5  -2720972.09721
  22977635.706      -82763.720 6    -59780.39621
  23985494.261     -777894.600 4   -583228.50121
  21060890.597     -522277.117 6   -400008.28023
 91  3 21 23 41 29.9990000  0  6G 2G18G 6G11G16G19
  21331012.347    -3286198.616 7  -2334051.26223
  22842827.5894    2198987.14146   1691643.53061
  23071409.120    -3641160.366 5  -2760052.43921
  22978367.612      -78922.851 6    -56787.56521
  23984197.839     -784716.957 5   -588544.72921
  21059874.276     -527648.904 6   -404194.10223
 91  3 21 23 41 44.9990000  0  6G 2G18G 6G11G16G19
  21323550.581    -3325407.080 7  -2364603.26223
  22848936.4954    2231093.49346   1716661.30561
  23061864.628    -3691315.691 5  -2799134.40921
  22979123.128      -74944.430 6    -53687.55021
  23982919.347     -791430.194 4   -593775.91821
  21058858.167     -532961.959 6   -408334.16223
 91  3 21 23 41 59.9990000  0  6G 2G18G 6G11G16G19
  21316102.276    -3364549.765 7  -2395104.00623
  22855055.9254    2263247.42546   1741716.16961
  23052319.980    -3741477.079 5  -2838221.09621
  22979907.589      -70832.645 6    -50483.61021
  23981662.831     -798038.734 4   -598925.46921
  21057858.690     -538220.217 6   -412431.51923
 91  3 21 23 42 14.9990000  0  6G 2G18G 6G11G16G19
  21308661.120    -3403645.532 7  -2425568.19023
  22861180.0264    2295429.54446   1766792.99061
  23042768.2764   -3791663.28945  -2877327.14161
  22980710.894      -66606.526 6    -47190.57121
  23980423.120     -804561.318 4   -604008.11421
  21056863.034     -543442.482 6   -416500.83023
 91  3 21 23 42 29.9990000  0  6G 2G18G 6G11G16G19
  21301233.276    -3442683.360 7  -2455987.22723
  22867311.8314    2327650.83546   1791900.33561
  23033216.7534   -3841863.47645  -2916444.06261
  22981539.683      -62255.399 6    -43800.12121
  23979199.347     -810987.323 4   -609015.47821
  21055881.198     -548617.887 6   -420533.62423
 91  3 21 23 42 44.9990000  0  6G 2G18G 6G11G16G19
  21293816.745    -3481655.988 7  -2486355.45523
  22873451.3474    2359918.20646   1817043.59061
  23023662.9644   -3892070.00745  -2955565.94661
  22982393.323      -57771.756 6    -40306.41921
  23977995.839     -817309.418 5   -613941.85221
  21054903.573     -553738.718 6   -424523.89523
 91  3 21 23 42 59.9990000  0  6G 2G18G 6G11G16G19
  21286415.2844   -3520550.73047  -2516662.99163
  22879603.7844    2392244.03446   1842232.38761
  23014108.9954   -3942270.35445  -2994683.00161
  22983272.7064     -53143.52246    -36700.03861
  23976812.6364    -823515.56144   -618777.91161
  21053944.042     -558792.341 6   -428461.79223
 91  3 21 23 43 14.9990000  0  6G 2G18G 6G11G16G19
  21279025.737    -3559383.931 7  -2546922.57823
  22885763.7534    2424611.71746   1867453.80961
  23004553.3624   -3992480.72745  -3033807.88061
  22984178.8624     -48387.06046    -32993.74761
  23975653.651     -829622.083 5   -623536.33421
  21052990.909     -563794.950 6   -432359.94923
 91  3 21 23 43 29.9990000  0  6G 2G18G 6G11G16G19
  21271650.839    -3598143.343 7  -2577124.66223
  22891933.1904    2457033.22546   1892717.16161
  22994998.8154   -4042688.80445  -3072930.96561
  22985110.3314     -43490.24346    -29178.08861
  23974510.956     -835616.848 4   -628207.63021
  21052053.151     -568734.041 6   -436208.60023
 91  3 21 23 43 44.9990000  0  6G 2G18G 6G11G16G19
  21264289.550    -3636821.944 7  -2607263.77923
  22898113.3314    2489515.50146   1918027.87161
  22985447.7694   -4092887.39545  -3112046.64661
  22986069.612      -38446.173 6    -25247.68821
  23973393.6594    -841492.94744   -632786.53561
  21051125.0584    -573602.24646   -440002.02063
 91  3 21 23 43 59.9990000  0  6G 2G18G 6G11G16G19
  21256943.2224   -3675433.02247  -2637350.27463
  22904304.9564    2522044.85746   1943375.26761
  22975894.7374   -4143089.89945  -3151165.38461
  22987056.6984     -33268.49846    -21213.16861
  23972296.3704    -847264.02245   -637283.51661
  21050213.980     -578412.993 6   -443750.66023
 91  3 21 23 44 14.9990000  0  6G 2G18G 6G11G16G19
  21249607.386    -3713977.093 7  -2667384.56623
  22910503.5194    2554620.68946   1968758.87861
  22966341.112    -4193296.599 5  -3190287.38221
  22988065.6054     -27957.74346    -17074.96161
  23971217.878     -852930.798 5   -641699.25521
  21049305.167     -583166.627 6   -447454.80323
 91  3 21 23 44 29.9990000  0  6G 2G18G 6G11G16G19
  21242282.339    -3752468.867 7  -2697378.10323
  22916708.3554    2587227.95346   1994166.98761
  22956782.050    -4243522.380 5  -3229424.25421
  22989099.5034     -22529.03046    -12844.82761
  23970157.0424    -858508.30145   -646045.44861
  21048409.386     -587877.830 6   -451125.88823
 91  3 21 23 44 44.9990000  0  6G 2G18G 6G11G16G19
  21234971.4644   -3790894.19747  -2727319.86363
  22922921.6834    2619880.41346   2019610.30761
  22947222.370    -4293752.879 5  -3268564.79721
  22990157.7694     -16968.30246     -8511.83161
  23969115.644     -863982.506 5   -650311.14821
  21047522.894     -592532.431 6   -454752.86323
 91  3 21 23 44 59.9990000  0  6G 2G18G 6G11G16G19
  21227671.308    -3829252.263 7  -2757209.20923
  22929144.4644    2652578.55646   2045089.23061
  22937664.8704   -4343987.21745  -3307708.34361
  22991240.3474     -11274.78546     -4075.36461
  23968091.058     -869352.783 5   -654495.82721
  21046653.8864    -597129.41846   -458334.94163
 91  3 21 23 45 14.9990000  0  6G 2G18G 6G11G16G19
  21220388.808    -3867525.191 7  -2787032.21623
  22935379.2144    2685340.04246   2070617.50661
  22928106.6364   -4394207.41945  -3346840.86461
  22992353.5114      -5430.85546       478.31361
  23967099.019     -874601.299 5   -658585.69521
  21045787.198     -601650.775 6   -461858.08923
 91  3 21 23 45 29.9990000  0  6G 2G18G 6G11G16G19
  21213116.2144   -3905743.91547  -2816812.98263
  22941618.9014    2718133.83446   2096170.96461
  22918547.1514   -4444444.27645  -3385986.37461
  22993487.7844        532.49646      5125.05361
  23966113.7064    -879759.38444   -662604.99661
  21044935.9874    -606127.24246   -465346.25363
 91  3 21 23 45 44.9990000  0  6G 2G18G 6G11G16G19
  21205855.394    -3943897.981 7  -2846543.36623
  22947866.9484    2750970.29646   2121757.66461
  22908987.355    -4494687.223 5  -3425136.61721
  22994647.8004       6625.52446      9872.82461
  23965150.690     -884816.815 5   -666545.97521
  21044094.175     -610548.195 6   -468791.16523
 91  3 21 23 45 59.9990000  0  6G 2G18G 6G11G16G19
  21198607.034    -3981988.126 7  -2876223.94423
  22954125.6444    2783848.42546   2147376.83861
  22899424.300    -4544937.043 5  -3464292.21621
  22995831.7064      12847.13546     14720.79961
  23964209.128     -889774.549 4   -670409.23021
  21043266.2224    -614914.32746   -472193.35263
 91  3 21 23 46 14.9990000  0  6G 2G18G 6G11G16G19
  21191374.9174   -4019994.75247  -2905839.43863
  22960394.1204    2816787.63546   2173043.60961
  22889865.206    -4595173.933 5  -3503437.73221
  22997043.4954      19216.94846     19684.25761
  23963287.8474    -894612.90945   -674179.43961
  21042445.855     -619205.859 6   -475537.41823
 91  3 21 23 46 29.9990000  0  6G 2G18G 6G11G16G19
  21184157.487    -4057919.297 7  -2935390.97923
  22966672.175     2849785.856 6   2198756.35921
  22880307.276    -4645399.256 5  -3542574.23521
  22998282.6754      25733.22146     24761.83461
  23962388.3624    -899333.67045   -677858.03361
  21041646.042     -623424.142 6   -478824.40223
 91  3 21 23 46 44.9990000  0  6G 2G18G 6G11G16G19
  21176955.9804   -4095766.60547  -2964882.33063
  22972961.3314    2882838.12046   2224511.22561
  22870750.597    -4695617.894 6  -3581705.54221
  22999549.1834      32391.02946     29949.70161
  23961510.2614    -903941.97044   -681448.99361
  21040853.737     -627573.968 6   -482058.04823
 91  3 21 23 46 59.9990000  0  6G 2G18G 6G11G16G19
  21169766.6124   -4133541.72847  -2994317.43563
  22979262.230     2915939.368 6   2250304.25721
  22861195.2224   -4745834.80446  -3620835.50061
  23000841.8624      39185.08446     35243.73861
  23960654.300     -908443.180 5   -684956.51021
  21040079.4484    -631660.04746   -485242.02063
 91  3 21 23 47 14.9990000  0  6G 2G18G 6G11G16G19
  21162593.4874   -4171236.25747  -3023689.73863
  22985571.7144    2949097.55446   2276141.65861
  22851640.511    -4796041.445 6  -3659957.45421
  23002163.0584      46123.56046     40650.30161
  23959820.1514    -912828.81945   -688373.98961
  21039313.1444    -635673.99246   -488369.77463
 91  3 21 23 47 29.9990000  0  5G 2G18G 6G11G19
  21155431.089    -4208880.430 7  -3053022.80523
  22991885.7534    2982282.28546   2301999.74261
  22842082.6904   -4846267.92946  -3699094.86961
  23003505.847       53176.129 6     46145.78021
  21038560.784     -639645.904 6   -491464.78823
 91  3 21 23 47 44.9990000  0  5G 2G18G 6G11G19
  21148281.3784   -4246447.59847  -3082295.86063
  22998211.4254    3015519.78746   2327898.94761
  22832525.9174   -4896487.52846  -3738226.91861
  23004874.0504      60369.39546     51750.88861
  21037813.4484    -643548.98646   -494506.16063
 91  3 21 23 47 59.9990000  0  5G 2G18G 6G11G19
  21141144.6444   -4283949.25047  -3111517.87063
  23004544.2224    3048798.25846   2353830.07261
  22822968.706    -4946711.812 6  -3777362.60421
  23006268.8234      67691.40546     57456.31161
  21037084.237     -647394.844 6   -497502.94623
 91  3 21 23 48 14.9990000  0  5G 2G18G 6G11G19
  21134024.0114   -4321371.70847  -3140678.16563
  23010887.9404    3082131.33546   2379803.75261
  22813412.870    -4996926.823 6  -3816491.08121
  23007688.9954      75155.71746     63272.62461
  21036363.401     -651169.560 6   -500444.29523
 91  3 21 23 48 29.9990000  0  5G 2G18G 6G11G19
  21126916.3554   -4358719.99847  -3169780.67063
  23017240.4254    3115513.69646   2405815.84361
  22803857.839    -5047137.582 6  -3855616.23021
  23009136.0584      82757.12046     69195.76361
  21035662.386     -654877.980 6   -503333.98823
 91  3 21 23 48 44.9990000  0  5G 2G18G 6G11G19
  21119824.3154   -4395989.72847  -3198821.96063
  23023601.8154    3148949.37946   2431869.47061
  22794304.534    -5097339.608 6  -3894734.58321
  23010607.440       90499.790 6     75228.97021
  21034966.042     -658515.654 6   -506168.55023
 91  3 21 23 48 59.9990000  0  5G 2G18G 6G11G19
  21112744.464    -4433192.717 7  -3227811.24723
  23029972.886     3182426.274 6   2457955.20921
  22784751.355    -5147544.614 6  -3933855.25321
  23012106.1904      98371.67946     81362.87261
  21034287.0194    -662094.08246   -508956.94463
 91  3 21 23 49 14.9990000  0  5G 2G18G 6G11G19
  21105677.026    -4470333.580 7  -3256752.12323
  23036351.1904    3215939.71646   2484069.42861
  22775194.730    -5197757.153 6  -3972981.79621
  23013627.597      106368.038 6     87593.75421
  21033614.745     -665617.748 6   -511702.67323
 91  3 21 23 49 29.9990000  0  5G 2G18G 6G11G19
  21098623.2064   -4507403.13947  -3285637.43663
  23042737.417     3249498.796 6   2510219.21621
  22765640.6904   -5247967.86846  -4012106.89661
  23015175.7064     114497.93846     93928.71161
  21032958.6444    -669077.63046   -514398.69563
 91  3 21 23 49 44.9990000  0  5G 2G18G 6G11G19
  21091586.6284   -4544379.73447  -3314450.31063
  23049135.8154    3283124.76046   2536421.12861
  22756089.7764   -5298154.92546  -4051213.57761
  23016751.8084     122782.92046    100384.50761
  21032313.511     -672451.797 6   -517027.92723
 91  3 21 23 49 59.9990000  0  5G 2G18G 6G11G19
  21084569.089    -4581255.796 7  -3343184.85323
  23055549.6284    3316825.04246   2562680.93161
  22746547.1754   -5348310.81846  -4090295.96961
  23018358.4644     131230.21346    106966.77961
  21031692.0654    -675732.48846   -519584.30863
 91  3 21 23 50 14.9990000  0  5G 2G18G 6G11G19
  21077565.370    -4618062.990 7  -3371865.72923
  23061970.737     3350567.511 6   2588973.63021
  22737002.4404   -5398466.95746  -4129378.56461
  23019991.0114     139808.10346    113650.81261
  21031078.175     -678951.244 6   -522092.44823
 91  3 21 23 50 29.9990000  0  5G 2G18G 6G11G19
  21070572.011    -4654803.244 7  -3400494.44623
  23068399.206     3384349.880 6   2615297.40321
  22727457.456    -5448625.437 6  -4168462.98121
  23021648.8864     148514.31146    120434.83161
  21030479.8554    -682109.89746   -524553.74663
 91  3 21 23 50 44.9990000  0  5G 2G18G 6G11G19
  21063592.573    -4691486.465 7  -3429078.71423
  23074832.0734    3418162.11446   2641644.44061
  22717909.7304   -5498795.96946  -4207556.77861
  23023327.8944     157338.74346    127310.97661
  21029884.7614    -685218.27046   -526975.85763
 91  3 21 23 50 59.9990000  0  5G 2G18G 6G11G19
  21056621.120    -4728118.246 7  -3457622.91023
  23081270.5034    3451998.45946   2668010.27561
  22708357.3154   -5548984.10546  -4246664.30761
  23025028.7224     166275.55146    134274.68861
  21029304.495     -688282.035 6   -529363.22323
 91  3 21 23 51 14.9990000  0  5G 2G18G 6G11G19
  21049664.167    -4764677.675 7  -3486110.72623
  23087719.8004    3485879.49246   2694410.92961
  22698809.2144   -5599168.75546  -4285769.10861
  23026754.4484     175345.53446    141342.16761
  21028730.409     -691279.954 6   -531699.28023
 91  3 21 23 51 29.9990000  0  5G 2G18G 6G11G19
  21042718.9174   -4801177.49147  -3514552.08663
  23094173.0734    3519792.26646   2720836.31061
  22689257.7454   -5649362.47746  -4324880.98661
  23028502.175      184535.903 6    148503.44621
  21028172.480     -694224.476 6   -533993.72223
 91  3 21 23 51 44.9990000  0  5G 2G18G 6G11G19
  21035783.972    -4837614.241 7  -3542944.31323
  23100633.8084    3553740.10646   2747289.03061
  22679705.972    -5699561.724 6  -4363997.16021
  23030275.6984     193849.79846    155760.98761
  21027622.0654    -697112.06446   -536243.79363
 91  3 21 23 51 59.9990000  0  5G 2G18G 6G11G19
  21028865.269    -4873976.306 7  -3571278.34123
  23107102.0654    3587733.99946   2773777.62861
  22670153.5974   -5749754.92246  -4403108.61961
  23032073.605      203298.388 6    163123.48621
  21027088.464     -699931.155 6   -538440.49923
 91  3 21 23 52 14.9990000  0  5G 2G18G 6G11G19
  21021964.253    -4910241.225 7  -3599536.66823
  23113583.940     3621796.497 6   2800319.69021
  22660608.308    -5799919.304 6  -4442197.62921
  23033901.5814     212904.25346    170608.53861
  21026566.4874    -702659.00546   -540566.10563
 91  3 21 23 52 29.9990000  0  5G 2G18G 6G11G19
  21015079.503    -4946420.668 7  -3627728.39423
  23120075.7764    3655915.87945   2826906.07161
  22651063.730    -5850066.527 6  -4481273.27021
  23035756.6444     222655.40446    178206.79961
  21026064.5894    -705307.27946   -542629.70263
 91  3 21 23 52 44.9990000  0  5G 2G18G 6G11G19
  21008205.948    -4982541.824 7  -3655874.69723
  23126575.659     3690064.788 5   2853515.44321
  22641520.401    -5900223.525 6  -4520356.51421
  23037633.315      232524.683 6    185897.10521
  21025568.690     -707902.826 6   -544652.21523
 91  3 21 23 52 59.9990000  0  5G 2G18G 6G11G19
  21001347.784    -5018579.790 7  -3683956.18223
  23133083.7534    3724267.53546   2880166.77861
  22631977.5114   -5950365.42046  -4559428.00061
  23039541.362      242536.626 6    193698.56921
  21025091.308     -710420.698 6   -546614.20823
 91  3 21 23 53 14.9990000  0  5G 2G18G 6G11G19
  20994504.300    -5054546.667 7  -3711982.26523
  23139601.800     3758511.654 5   2906850.35421
  22622435.7694   -6000504.17046  -4598497.04261
  23041469.7304     252678.85146    201601.55561
  21024622.495     -712872.970 6   -548525.07623
 91  3 21 23 53 29.9990000  0  5G 2G18G 6G11G19
  20987678.761    -5090415.750 7  -3739932.14923
  23146129.6904    3792823.77445   2933586.91961
  22612900.1754   -6050613.13046  -4637542.85961
  23043430.6124     262977.78246    209626.65861
  21024176.2144    -715232.87846   -550363.97663
 91  3 21 23 53 44.9990000  0  5G 2G18G 6G11G19
  20980869.230    -5126198.912 7  -3767815.08223
  23152669.1284    3827191.82145   2960367.06461
  22603368.8234   -6100704.07146  -4676574.64461
  23045417.9404     273421.41046    217764.51061
  21023740.7844    -717512.11246   -552140.00963
 91  3 21 23 53 59.9990000  0  5G 2G18G 6G11G19
  20974075.980    -5161897.650 7  -3795632.23023
  23159221.597     3861613.916 5   2987189.32721
  22593838.0814   -6150778.16546  -4715593.29161
  23047432.644      284008.137 6    226013.86521
  21023324.6124    -719711.91646   -553854.14963
 91  3 21 23 54 14.9990000  0  5G 2G18G 6G11G19
  20967300.323    -5197506.631 7  -3823379.43623
  23165782.3234    3896095.15345   3014057.66061
  22584315.4804   -6200830.09346  -4754594.66461
  23049476.4094     294743.01446    234378.66761
  21022919.3944    -721826.92346   -555502.21863
 91  3 21 23 54 29.9990000  0  5G 2G18G 6G11G19
  20960541.870    -5233018.960 7  -3851051.32723
  23172355.0194    3930642.16845   3040977.26761
  22574797.4644   -6250852.81446  -4793573.28061
  23051546.9404     305632.74846    242864.12961
  21022536.440     -723850.100 6   -557078.73423
 91  3 21 23 54 44.9990000  0  5G 2G18G 6G11G19
  20953802.105    -5268435.671 7  -3878648.71623
  23178940.8944    3965253.86145   3067947.26061
  22565283.6284   -6300847.22246  -4832529.84061
  23053647.894      316676.123 6    251469.31121
  21022166.956     -725782.290 6   -558584.35023
 91  3 21 23 54 59.9990000  0  5G 2G18G 6G11G19
  20947076.628    -5303779.768 7  -3906189.52223
  23185537.112     3999906.950 5   3094949.50721
  22555770.1594   -6350836.28946  -4871482.24761
  23055775.3944     327849.82246    260176.04861
  21021814.690     -727646.331 6   -560036.86023
 91  3 21 23 55 14.9990000  0  5G 2G18G 6G11G19
  20940364.987    -5339049.669 7  -3933672.51123
  23192140.1444    4034602.58645   3121984.90361
  22546259.9094   -6400818.35446  -4910429.19061
  23057927.550      339155.208 6    268985.39321
  21021470.308     -729440.714 6   -561435.09323
 91  3 21 23 55 29.9990000  0  5G 2G18G 6G11G19
  20933673.144    -5374217.418 7  -3961075.90023
  23198754.7224    4069368.57645   3149075.13161
  22536752.6054   -6450765.25846  -4949348.73061
  23060109.2304     350620.03246    277918.98461
  21021150.034     -731137.384 6   -562757.18423
 91  3 21 23 55 44.9990000  0  5G 2G18G 6G11G19
  20926995.503    -5409307.252 7  -3988418.57423
  23205380.4484    4104180.53245   3176201.17161
  22527252.0814   -6500701.05446  -4988259.60961
  23062315.2064     362219.98046    286957.86261
  21020838.792     -732760.250 6   -564021.77123
 91  3 21 23 55 59.9990000  0  5G 2G18G 6G11G19
  20920332.034    -5444323.283 7  -4015703.74023
  23212012.823     4139034.073 5   3203359.62721
  22517750.2144   -6550629.92046  -5027165.09661
  23064549.105      373950.430 6    296098.42621
  21020544.237     -734313.472 6   -565232.08523
 91  3 21 23 56 14.9990000  0  5G 2G18G 6G11G19
  20913682.190    -5479267.039 7  -4042932.59323
  23218651.6834    4173927.34145   3230549.01961
  22508250.4484   -6600553.12946  -5066066.17061
  23066805.003      385809.874 6    305339.51021
  21020259.769     -735798.304 6   -566389.11323
 91  3 21 23 56 29.9980000  0  5G 2G18G 6G11G19
  20907049.240    -5514119.447 7  -4070090.25723
  23225304.1544    4208874.65245   3257780.54861
  22498754.4514   -6650450.47946  -5104947.09461
  23069089.342      397813.989 6    314693.31421
  21020000.600     -737197.954 6   -567479.76123
 91  3 21 23 56 44.9980000  0  5G 2G18G 6G11G19
  20900432.764    -5548894.212 7  -4097187.42523
  23231962.748     4243871.121 5   3285050.36021
  22489261.2094   -6700337.62246  -5143820.07261
  23071400.5454     409955.15546    324153.92261
  21019742.443     -738521.380 6   -568511.01523
 91  3 21 23 56 59.9980000  0  5G 2G18G 6G11G19
  20893830.318    -5583589.473 7  -4124222.64223
  23238631.5374    4278913.76945   3312356.15661
  22479769.9514   -6750211.63746  -5182682.82261
  23073735.0684     422231.72846    333720.03761
  21019507.100     -739768.888 6   -569483.10623
 91  3 21 23 57 14.9980000  0  5G 2G18G 6G11G19
  20887242.279    -5618210.139 7  -4151199.73223
  23245307.584     4313997.400 5   3339693.89021
  22470281.5844   -6800077.21046  -5221538.98461
  23076096.607      434638.871 6    343387.89421
  21019280.8894    -740945.15846   -570399.69063
 91  3 21 23 57 29.9980000  0  5G 2G18G 6G11G19
  20880667.795    -5652758.012 7  -4178120.10423
  23251991.0454    4349120.44045   3367062.32561
  22460794.6474   -6849935.90446  -5260389.78961
  23078482.178      447174.555 6    353155.91421
  21019075.4754    -742051.81546   -571262.03463
 91  3 21 23 57 44.9980000  0  5G 2G18G 6G11G19
  20874108.029    -5687229.167 7  -4204980.69223
  23258683.4284    4384286.26145   3394464.11061
  22451308.4044   -6899783.61746  -5299232.03861
  23080891.3344     459842.48746    363026.99261
  21018873.811     -743084.782 6   -572066.95223
 91  3 21 23 57 59.9980000  0  5G 2G18G 6G11G19
  20867561.881    -5721631.578 7  -4231787.71723
  23265381.9124    4419486.64345   3421892.81661
  22441823.4824   -6949628.38546  -5338071.99761
  23083327.779      472634.362 6    372994.64221
  21018691.373     -744052.050 6   -572820.68623
 91  3 21 23 58 14.9980000  0  5G 2G18G 6G11G19
  20861030.334    -5755950.346 7  -4258529.56023
  23272090.8034    4454736.28145   3449359.90961
  22432341.2954   -6999455.16846  -5376897.93861
  23085788.0684     485564.81046    383070.26861
  21018522.428     -744938.646 6   -573511.55823
 91  3 21 23 58 29.9980000  0  5G 2G18G 6G11G19
  20854514.240    -5790191.275 7  -4285210.75423
  23278806.256     4490029.201 5   3476860.71521
  22422861.6314   -7049269.59346  -5415714.25361
  23088274.428      498627.884 6    393249.24921
  21018369.381     -745750.120 6   -574143.88523
 91  3 21 23 58 44.9980000  0  5G 2G18G 6G11G19
  20848013.272    -5824358.770 7  -4311834.72823
  23285530.1934    4525360.84345   3504391.70461
  22413383.8974   -7099075.81246  -5454524.17261
  23090784.061      511819.044 6    403528.02421
  21018225.576     -746490.622 6   -574720.91823
 91  3 21 23 58 59.9980000  0  5G 2G18G 6G11G19
  20841525.037    -5858453.720 7  -4338402.16523
  23292259.5614    4560729.65945   3531951.65361
  22403907.4514   -7148874.91846  -5493328.54961
  23093319.4824     525136.97246    413905.59061
  21018099.975     -747161.184 6   -575243.45423
 91  3 21 23 59 14.9980000  0  5G 2G18G 6G11G19
  20835052.607    -5892468.746 7  -4364907.32823
  23298998.8894    4596142.76445   3559546.11561
  22394432.7724   -7198659.25446  -5532121.41761
  23095880.3114     538588.82046    424387.51161
  21017985.147     -747754.187 6   -575705.54923
 91  3 21 23 59 29.9980000  0  5G 2G18G 6G11G19
  20828592.7564   -5926412.90247  -4391357.26363
  23305744.717     4631591.200 5   3587168.10621
  22384960.5224   -7248437.71446  -5570909.70361
  23098460.6784     552165.36446    434966.59061
  21017887.670     -748278.720 6   -576114.28723
 91  3 21 23 59 44.9980000  0  5G 2G18G 6G11G19
  20822147.787    -5960280.863 7  -4417747.82723
  23312498.647     4667079.691 5   3614821.29821
  22375490.9284   -7298205.02346  -5609689.30061
  23101071.412      565871.618 6    445646.75021
  21017798.943     -748729.438 6   -576465.50923
 91  3 21 23 59 59.9980000  0  5G 2G18G 6G11G19
  20815715.068    -5994084.263 7  -4444088.08323
  23319257.303     4702596.491 5   3642496.57121
  22366020.4514   -7347972.57046  -5648469.08561
  23103700.717      579695.745 6    456418.75021
  21017729.170     -749117.634 6   -576768.01223
 91  3 22  0  0 14.9980000  0  5G 2G18G 6G11G19
  20809295.068    -6027821.266 7  -4470376.60623
  23326021.100     4738143.787 5   3670195.59821
  22356550.3114   -7397738.25346  -5687247.41661
  23106353.334      593639.484 6    467283.95921
  21017666.201     -749441.235 6   -577020.18123
 91  3 22  0  0 29.9980000  0  5G 2G18G 6G11G19
  20802892.639    -6061467.654 7  -4496594.51923
  23332797.764     4773745.308 6   3697936.87021
  22347084.1234   -7447477.72146  -5726005.31861
  23109035.6624     607726.92146    478261.14161
  21017620.865     -749675.900 6   -577203.04923
 91  3 22  0  0 44.9980000  0  5G 2G18G 6G11G19
  20796503.193    -6095040.020 7  -4522754.75023
  23339577.998     4809383.643 5   3725706.84521
  22337622.475    -7497207.501 6  -5764755.67521
  23111739.537      621941.084 6    489337.06721
  21017589.201     -749838.231 6
 91  3 22  0  0 59.9980000  0  5G 2G18G 6G11G19
  20790127.412    -6128547.607 7  -4548864.50623
  23346364.061     4845049.777 5   3753498.47821
  22328157.334    -7546936.811 6  -5803505.66521
  23114466.8654     636272.45146    500504.32561
  21017575.131     -749937.314 6
 91  3 22  0  1 14.9980000  0  5G 2G18G 6G11G19
  20783762.568    -6161995.271 7  -4574927.57023
  23353156.9594    4880738.60745   3781307.78061
  22318693.842    -7596670.255 6  -5842258.88021
  23117215.311      650716.101 6    511759.07721
  21017559.967     -749977.858 6
 91  3 22  0  1 29.9980000  0  5G 2G18G 6G11G19
  20777408.951    -6195378.535 7  -4600940.44823
  23359953.5294    4916454.26445   3809138.00361
  22309229.795    -7646403.138 6  -5881011.66621
  23119986.107      665276.297 6    523104.63421
  21017570.865     -749955.241 6
 91  3 22  0  1 44.9980000  0  5G 2G18G 6G11G19
  20771064.475    -6228721.715 7  -4626922.09323
  23366750.1074    4952172.30145   3836970.06261
  22299761.4984   -7696159.59846  -5919782.81261
  23122773.857      679928.459 6    534521.85921
  21017579.678     -749893.492 6
 91  3 22  0  1 59.9980000  0  5G 2G18G 6G11G19
  20764734.584    -6261985.208 7  -4652841.64723
  23373555.404     4987932.170 5   3864834.73221
  22290296.5844   -7745899.90146  -5958541.37061
  23125586.889      694712.059 6    546041.50421
  21017607.5224    -749752.85446
 91  3 22  0  2 14.9980000  0  5G 2G18G 6G11G19
  20758416.318    -6295186.811 7  -4678712.97523
  23380365.5614    5023715.48345   3892717.67961
  22280830.7324   -7795641.87146  -5997301.22961
  23128423.3344     709608.74346    557649.26461
  21017643.889     -749551.163 6
 91  3 22  0  2 29.9980000  0  5G 2G18G 6G11G19
  20752112.959    -6328313.583 7  -4704525.98923
  23387182.092     5059535.120 5   3920628.91621
  22271366.8424   -7845372.34046  -6036052.12861
  23131280.561      724631.476 6    569355.24521
  21017699.107     -749275.347 6   -576891.04523
 91  3 22  0  2 44.9980000  0  5G 2G18G 6G11G19
  20745823.639    -6361363.432 7  -4730279.07623
  23394005.178     5095393.028 5   3948569.97321
  22261904.529    -7895089.070 6  -6074792.32621
  23134162.795      739782.042 6    581160.82721
  21017763.9984    -748923.21346   -576616.65563
 91  3 22  0  2 59.9980000  0  5G 2G18G 6G11G19
  20739557.092    -6394294.853 7  -4755939.86623
  23400844.397     5131330.572 5   3976573.07221
  22252456.0374   -7944750.30146  -6113489.25761
  23137079.6544     755101.83746    593098.28761
  21017855.7254    -748453.00046   -576250.26863
 91  3 22  0  3 14.9980000  0  5G 2G18G 6G11G19
  20733302.732    -6427157.070 7  -4781546.74223
  23407688.1394    5167298.02745   4004599.51261
  22243007.9824   -7994405.29046  -6152181.34461
  23140018.561      770541.206 6    605128.91821
  21017955.537     -747913.915 6   -575830.22123
 91  3 22  0  3 29.9980000  0  5G 2G18G 6G11G19
  20727064.100    -6459940.160 7  -4807091.95823
  23414541.6074    5203305.38445   4032657.00761
  22233561.811    -8044043.817 6  -6190860.59721
  23142980.123      786110.003 6    617260.40421
  21018075.443     -747295.800 6   -575348.59023
 91  3 22  0  3 44.9980000  0  5G 2G18G 6G11G19
  20720840.936    -6492647.637 7  -4832578.26123
  23421399.615     5239348.775 5   4060742.61621
  22224117.0684   -8093669.43446  -6229529.77961
  23145967.607      801804.320 6    629489.69521
  21018203.1314    -746602.35546   -574808.24963
 91  3 22  0  3 59.9980000  0  5G 2G18G 6G11G19
  20714629.264    -6525285.953 7  -4858010.66323
  23428264.303     5275421.302 5   4088850.90421
  22214674.9364   -8143288.37546  -6268193.77161
  23148976.357      817617.575 6    641811.66121
  21018351.732     -745839.562 6   -574213.88323
 91  3 22  0  4 14.9980000  0  5G 2G18G 6G11G19
  20708426.123    -6557885.308 7  -4883412.71123
  23435128.803     5311492.900 5   4116958.49321
  22205228.5614   -8192930.51746  -6306875.85661
  23152000.615      833519.383 6    654202.64021
  21018502.4674    -745037.48746   -573588.90263
 91  3 22  0  4 29.9980000  0  5G 2G18G 6G11G19
  20702234.201    -6590424.784 7  -4908768.09923
  23441996.795     5347583.841 5   4145081.13221
  22195780.154    -8242574.961 6  -6345559.73621
  23155048.037      849530.361 6    666678.67221
  21018669.092     -744175.170 6   -572916.97823
 91  3 22  0  4 44.9980000  0  5G 2G18G 6G11G19
  20696054.639    -6622898.466 7  -4934072.21823
  23448869.4284    5383699.89245   4173223.33961
  22186333.8574   -8292215.76646  -6384240.78261
  23158117.967      865656.063 6    679244.10421
  21018844.3974    -743246.65346   -572193.46863
 91  3 22  0  4 59.9980000  0  5G 2G18G 6G11G19
  20689887.943    -6655304.451 7  -4959323.58823
  23455747.482     5419842.555 5   4201386.28121
  22176889.6704   -8341850.67846  -6422917.23861
  23161208.6314     881898.28646    691900.32761
  21019035.0064    -742249.95346   -571416.82863
 91  3 22  0  5 14.9980000  0  5G 2G18G 6G11G19
  20683735.873    -6687633.680 7  -4984515.15023
  23462631.0144    5456021.15745   4229577.24661
  22167447.951    -8391470.520 6  -6461581.93621
  23164323.272      898265.895 6    704654.25721
  21019237.498     -741175.910 6   -570579.92823
 91  3 22  0  5 29.9980000  0  5G 2G18G 6G11G19
  20677603.592    -6719861.425 7  -5009627.62923
  23469528.404     5492259.941 5   4257815.07321
  22158012.537    -8441050.363 6  -6500215.47921
  23167466.0064     914783.52046    717525.08061
  21019463.686     -739999.529 6   -569663.29123
 91  3 22  0  5 44.9980000  0  5G 2G18G 6G11G19
  20671486.225    -6752010.207 7  -5034678.58523
  23476432.0614    5528536.25945   4286082.17661
  22148580.295    -8490612.646 6  -6538835.33021
  23170633.920      931428.110 6    730494.83621
  21019701.553     -738743.297 6   -568684.43223
 91  3 22  0  5 59.9980000  0  5G 2G18G 6G11G19
  20665381.107    -6784090.999 7  -5059676.55723
  23483337.9984    5564838.89845   4314369.78161
  22139151.084    -8540168.091 6  -6577449.85421
  23173823.404      948188.517 6    743554.85121
  21019954.397     -737417.970 6   -567651.73123
 91  3 22  0  6 14.9980000  0  5G 2G18G 6G11G19
  20659287.006    -6816112.571 7  -5084628.39123
  23490251.514     5601158.801 5   4342670.83421
  22129721.1234   -8589725.43746  -6616065.85061
  23177031.9124     965055.80246    756698.12861
  21020216.482     -736032.134 6   -566571.87323
 91  3 22  0  6 29.9980000  0  5G 2G18G 6G11G19
  20653205.131    -6848075.378 7  -5109534.42723
  23497165.9124    5637495.20545   4370984.74661
  22120287.904    -8639284.930 6  -6654683.53621
  23180262.3894     982029.25146    769924.15061
  21020496.0224    -734586.09346   -565445.10463
 91  3 22  0  6 44.9980000  0  5G 2G18G 6G11G19
  20647134.615    -6879974.205 7  -5134390.60523
  23504084.1074    5673853.18745   4399315.48261
  22110859.318    -8688841.084 6  -6693298.60521
  23183513.2564     999113.99146    783236.87261
  21020779.162     -733074.611 6   -564267.32823
 91  3 22  0  6 59.9980000  0  5G 2G18G 6G11G19
  20641079.123    -6911800.223 7  -5159190.05523
  23511009.5844    5710241.30645   4427669.68161
  22101430.373    -8738384.896 6  -6731904.05821
  23186788.295     1016318.571 6    796642.97721
  21021083.787     -731488.545 6   -563031.45023
 91  3 22  0  7 14.9980000  0  5G 2G18G 6G11G19
  20635040.318    -6943530.635 7  -5183915.00023
  23517944.709     5746682.170 5   4456065.00721
  22092011.2564   -8787893.50146  -6770482.07461
  23190089.529     1033665.426 6    810159.96021
  21021401.982     -729804.993 6   -561719.60523
 91  3 22  0  7 29.9980000  0  5G 2G18G 6G11G19
  20629019.459    -6975169.816 7  -5208568.85723
  23524888.475     5783170.980 5   4484497.67521
  22082595.318    -8837371.295 6  -6809036.09721
  23193415.334     1051149.800 6    823784.09421
  21021742.0224    -728028.53346   -560335.36763
 91  3 22  0  7 44.9980000  0  5G 2G18G 6G11G19
  20623009.061    -7006753.225 7  -5233179.25623
  23531833.443     5819672.210 5   4512940.01921
  22073177.1704   -8886853.58346  -6847593.61861
  23196764.053     1068735.971 6    837487.55321
  21022089.0764    -726194.39246   -558906.17163
 91  3 22  0  7 59.9980000  0  5G 2G18G 6G11G19
  20617011.100    -7038274.759 7  -5257741.44123
  23538783.865     5856191.804 5   4541396.68721
  22063762.022    -8936333.869 6  -6886149.57821
  23200129.443     1086429.981 6    851275.03521
  21022452.123     -724296.077 6   -557426.97923
 91  3 22  0  8 14.9980000  0  5G 2G18G 6G11G19
  20611025.951    -7069726.434 7  -5282249.19523
  23545736.6864    5892737.43445   4569873.62561
  22054348.459    -8985804.051 6  -6924697.66221
  23203517.998     1104239.587 6    865152.61021
  21022827.451     -722325.637 6   -555891.58323
 91  3 22  0  8 29.9980000  0  5G 2G18G 6G11G19
  20605053.904    -7101110.275 7  -5306704.09123
  23552696.5534    5929306.90645   4598369.15261
  22044934.3424   -9035266.03146  -6963239.36661
  23206931.279     1122162.509 6    879118.47421
  21023215.162     -720285.024 6   -554301.52123
 91  3 22  0  8 44.9980000  0  5G 2G18G 6G11G19
  20599095.7094   -7132419.85447  -5331101.13163
  23559660.350     5965906.061 5   4626887.80821
  22035527.951    -9084713.331 6  -7001769.62721
  23210363.475     1140204.795 6    893177.34921
  21023615.404     -718167.685 6   -552651.66223
 91  3 22  0  8 59.9980000  0  5G 2G18G 6G11G19
  20593151.4204   -7163655.92047  -5355440.88363
  23566630.045     6002533.984 5   4655428.88021
  22026119.350    -9134146.376 6  -7040288.77521
  23213819.678     1158365.415 6    907328.43221
  21024036.631     -715974.473 6   -550942.68023
 91  3 22  0  9 14.9980000  0  5G 2G18G 6G11G19
  20587217.170    -7194843.223 7  -5379742.63623
  23573603.0924    6039166.09845   4683973.20561
  22016710.084    -9183589.649 6  -7078815.88421
  23217293.3574    1176619.51546    921552.35561
  21024460.732     -713729.627 6   -549193.46723
 91  3 22  0  9 29.9980000  0  5G 2G18G 6G11G19
  20581294.3814   -7225967.60747  -5403995.36663
  23580576.8264    6075816.10345   4712531.49761
  22007302.764    -9233029.003 6  -7117339.94421
  23220786.631     1194980.905 6    935859.88221
  21024902.1314    -711419.09646   -547393.05763
 91  3 22  0  9 44.9980000  0  5G 2G18G 6G11G19
  20575388.264    -7257005.135 7  -5428180.41523
  23587558.8344    6112507.67045   4741122.13861
  21997899.084    -9282440.464 6  -7155842.27621
  23224306.670     1213473.217 6    950269.42821
  21025357.311     -709019.043 6   -545522.91623
 91  3 22  0  9 59.9980000  0  5G 2G18G 6G11G19
  20569493.428    -7287978.982 7  -5452315.83023
  23594544.740     6149217.377 5   4769726.94721
  21988497.217    -9331846.751 6  -7194340.57221
  23227845.9904    1232073.20746    964762.86761
  21025831.740     -706552.147 6   -543600.67623
 91  3 22  0 10 14.9980000  0  5G 2G18G 6G11G19
  20563609.037    -7318902.953 7  -5476412.38723
  23601531.514     6185931.231 5   4798334.96821
  21979094.131    -9381261.692 6  -7232845.61121
  23231401.2174    1250766.73346    979329.19661
  21026305.951     -704032.185 6   -541637.08823
 91  3 22  0 10 29.9980000  0  5G 2G18G 6G11G19
  20557738.787    -7349748.869 7  -5500448.12123
  23608524.9754    6222677.35345   4826968.13061
  21969694.014    -9430656.713 6  -7271335.12721
  23234982.568     1269581.844 6    993990.26821
  21026801.498     -701430.706 6   -539609.97623
 91  3 22  0 10 44.9980000  0  5G 2G18G 6G11G19
  20551881.522    -7380530.867 7  -5524434.04323
  23615520.2014    6259440.97545   4855614.93561
  21960295.6784   -9480046.04246  -7309820.20261
  23238584.342     1288503.945 6   1008734.70621
  21027308.975     -698761.928 6   -537530.42223
 91  3 22  0 10 59.9980000  0  5G 2G18G 6G11G19
  20546038.506    -7411231.756 7  -5548356.77223
  23622523.779     6296239.670 5   4884289.07321
  21950902.5764   -9529412.04946  -7348287.12261
  23242206.670     1307550.175 6   1023575.86721
  21027835.4124    -696008.25446   -535384.71863
 91  3 22  0 11 14.9980000  0  5G 2G18G 6G11G19
  20540210.693    -7441856.618 7  -5572220.25523
  23629532.4044    6333067.90045   4912986.22261
  21941510.709    -9578759.618 6  -7386739.66621
  23245857.3264    1326715.35346   1038509.72061
  21028372.9044    -693174.67246   -533176.73863
 91  3 22  0 11 29.9980000  0  5G 2G18G 6G11G19
  20534395.1784   -7472416.14947  -5596032.84063
  23636543.7644    6369914.47445   4941697.66361
  21932122.006    -9628099.370 6  -7425186.11621
  23249522.959     1345988.376 6   1053527.61021
  21028925.842     -690271.774 6   -530914.75523
 91  3 22  0 11 44.9980000  0  5G 2G18G 6G11G19
  20528598.600    -7502884.078 7  -5619774.03723
  23643563.701     6406805.621 5   4970443.84621
  21922739.092    -9677405.106 6  -7463606.06821
  23253214.7404    1365395.08546   1068649.66061
  21029496.311     -687273.372 6   -528578.35723
 91  3 22  0 11 59.9980000  0  5G 2G18G 6G11G19
  20522813.9594   -7533280.08247  -5643459.19763
  23650589.6624    6443721.33645   4999209.17461
  21913358.912    -9726696.047 6  -7502014.48221
  23256929.959     1384915.765 6   1083860.52221
  21030081.365     -684198.808 6   -526182.60423
 91  3 22  0 12 14.9980000  0  5G 2G18G 6G11G19
  20517043.412    -7563605.600 7  -5667089.42723
  23657618.248     6480660.059 5   5027992.42821
  21903983.068    -9775973.594 6  -7540412.46621
  23260665.5374    1404548.54146   1099158.73361
  21030678.881     -681049.661 6   -523728.73523
 91  3 22  0 12 29.9980000  0  5G 2G18G 6G11G19
  20511288.1314   -7593845.24547  -5690652.74563
  23664654.170     6517637.038 5   5056805.48421
  21894610.709    -9825222.141 6  -7578787.85621
  23264425.772     1424308.584 6   1114556.12321
  21031298.717     -677810.433 6   -521204.68223
 91  3 22  0 12 44.9980000  0  5G 2G18G 6G11G19
  20505547.389    -7624017.637 7  -5714163.65723
  23671694.8654    6554633.03645   5085633.38161
  21885240.326    -9874460.214 6  -7617155.07921
  23268208.193     1444176.916 6   1130037.88221
  21031926.123     -674499.736 6   -518624.93923
 91  3 22  0 12 59.9980000  0  5G 2G18G 6G11G19
  20499817.076    -7654129.831 7  -5737627.66023
  23678737.2094    6591641.17645   5114470.70661
  21875871.795    -9923694.657 6  -7655519.46521
  23272007.373     1464146.213 6   1145598.31421
  21032568.186     -671124.277 6   -515994.73523
 91  3 22  0 13 14.9980000  0  5G 2G18G 6G11G19
  20494096.811    -7684189.358 7  -5761050.62423
  23685780.6864    6628653.71345   5143311.50261
  21866500.600    -9972932.553 6  -7693886.55221
  23275826.256     1484208.964 6   1161231.57521
  21033222.193     -667691.068 6   -513319.52623
 91  3 22  0 13 29.9980000  0  5G 2G18G 6G11G19
  20488385.4364   -7714200.26947  -5784435.71063
  23692824.873     6665666.274 5   5172152.28021
  21857132.264   -10022177.817 6  -7732259.37221
  23279661.107     1504360.895 6   1176934.32721
  21033889.568     -664204.146 6   -510602.46823
 91  3 22  0 13 44.9980000  0  5G 2G18G 6G11G19
  20482688.1784   -7744143.30747  -5807767.90663
  23699871.0924    6702697.67945   5201007.76861
  21847761.428   -10071411.209 6  -7770622.95121
  23283515.936     1524620.885 6   1192721.27621
  21034562.451     -660644.391 6   -507828.65823
 91  3 22  0 13 59.9980000  0  5G 2G18G 6G11G19
  20476999.904    -7774032.547 7  -5831058.18123
  23706920.1234    6739733.86145   5229866.94461
  21838393.217   -10120646.440 6  -7808987.95721
  23287388.982     1544974.729 6   1208581.37621
  21035253.873     -657025.605 6   -505008.84523
 91  3 22  0 14 14.9980000  0  5G 2G18G 6G11G19
  20471325.873    -7803850.981 7  -5854293.27823
  23713972.404     6776791.598 5   5258742.94621
  21829026.350   -10169866.480 6  -7847341.13621
  23291283.936     1565438.878 6   1224527.40221
  21035954.795     -653330.927 6   -502129.88823
 91  3 22  0 14 29.9980000  0  5G 2G18G 6G11G19
  20465665.2874   -7833597.90947  -5877472.66263
  23721026.725     6813871.263 5   5287636.02521
  21819663.201   -10219070.503 6  -7885681.82321
  23295200.428     1586013.832 6   1240559.78621
  21036673.178     -649559.464 6   -499191.10623
 91  3 22  0 14 44.9980000  0  5G 2G18G 6G11G19
  20460017.6934   -7863271.56347  -5900594.95963
  23728086.029     6850974.555 5   5316547.52721
  21810303.709   -10268256.449 6  -7924008.43121
  23299135.6004    1606701.12846   1256679.69761
  21037405.006     -645709.333 6   -496191.02123
 91  3 22  0 14 59.9980000  0  5G 2G18G 6G11G19
  20454383.936    -7892882.079 7  -5923668.04523
  23735152.3264    6888091.09345   5345469.33261
  21800945.3034  -10317434.30546  -7962328.73361
  23303093.795     1627490.497 6   1272879.14621
  21038152.326     -641790.469 6   -493137.37823
 91  3 22  0 15 14.9980000  0  5G 2G18G 6G11G19
  20448763.084    -7922419.684 7  -5946684.31623
  23742220.4904    6925230.17345   5374408.71461
  21791589.279   -10366593.932 6  -8000634.83321
  23307069.1004    1648391.49946   1289165.57861
  21038910.779     -637792.900 6   -490022.41022
 91  3 22  0 15 29.9980000  0  5G 2G18G 6G11G19
  20443156.475    -7951883.091 7  -5969642.77023
  23749290.8814    6962393.08845   5403366.67461
  21782239.467   -10415734.062 6  -8038925.73621
  23311067.4434    1669405.13546   1305539.78261
  21039689.725     -633715.297 6   -486845.08223
 91  3 22  0 15 44.9980000  0  5G 2G18G 6G11G19
  20437563.014    -7981274.918 7  -5992545.44723
  23756366.061     6999577.000 5   5432340.99721
  21772891.4514  -10464856.81646  -8077203.10661
  23315087.3114    1690528.69246   1321999.62661
  21040479.561     -629560.025 6   -483607.22922
 91  3 22  0 15 59.9980000  0  5G 2G18G 6G11G19
  20431982.795    -8010600.531 7  -6015396.52923
  23763442.8184    7036776.24945   5461327.23561
  21763547.2724  -10513967.78746  -8115471.30261
  23319128.0454    1711756.14046   1338540.43661
  21041284.123     -625332.508 6   -480313.08622
 91  3 22  0 16 14.9980000  0  4G 2G 6G11G19
  20426415.998    -8039849.178 7  -6038187.63523
  21754206.1624  -10563055.92546  -8153721.71561
  23323188.4514    1733097.97146   1355170.37561
  21042102.912     -621022.052 6   -476954.30922
 91  3 22  0 16 29.9980000  0  4G 2G 6G11G19
  20420866.154    -8069018.375 7  -6060916.83323
  21744868.022   -10612118.458 6  -8191952.15721
  23327270.178     1754556.650 6   1371891.36621
  21042939.920     -616625.979 6   -473528.81822
 91  3 22  0 16 44.9980000  0  4G 2G 6G11G19
  20415327.053    -8098121.345 7  -6083594.42723
  21735533.1394  -10661168.44846  -8230172.83061
  23331374.881     1776118.609 6   1388692.83821
  21043790.123     -612157.266 6   -470046.72622
 91  3 22  0 16 59.9980000  0  4G 2G 6G11G19
  20409797.397    -8127177.535 7  -6106235.57123
  21726199.3504  -10710225.16046  -8268398.74361
  23335494.1544    1797764.11146   1405559.40261
  21044652.998     -607635.335 6   -466523.16122
 91  3 22  0 17 14.9980000  0  4G 2G 6G11G19
  20404282.3424   -8156164.95747  -6128823.13563
  21716866.9754  -10759266.35446  -8306612.55961
  23339631.787     1819515.031 6   1422508.11721
  21045525.451     -603037.800 6   -462940.68722
 91  3 22  0 17 29.9980000  0  4G 2G 6G11G19
  20398780.4044   -8185076.77147  -6151351.78363
  21707539.0764  -10808284.78446  -8344808.64161
  23343794.2254    1841377.98046   1439544.10861
  21046418.006     -598357.792 6   -459293.94722
 91  3 22  0 17 44.9970000  0  4G 2G 6G11G19
  20393291.6344   -8213919.89347  -6173826.90663
  21698213.7594  -10857286.30846  -8382991.55361
  23347974.2434    1863342.10646   1456658.95661
  21047320.681     -593604.639 6   -455590.20623
 91  3 22  0 17 59.9970000  0  4G 2G 6G11G19
  20387812.5174   -8242711.50047  -6196261.88663
  21688889.7514  -10906290.37446  -8421176.44761
  23352169.064     1885396.767 6   1473844.35521
  21048237.618     -588790.812 6   -451839.19522
 91  3 22  0 18 14.9970000  0  4G 2G 6G11G19
  20382348.8214   -8271426.59647  -6218637.24663
  21679567.5794  -10955270.43946  -8459342.62561
  23356388.3764    1907563.39746   1491116.99061
  21049168.009     -583893.257 6   -448022.93922
 91  3 22  0 18 29.9970000  0  4G 2G 6G11G19
  20376894.6964   -8300086.98847  -6240969.98563
  21670248.4784  -11004248.17346  -8497506.99461
  23360624.899     1929819.822 6   1508459.59521
  21050112.579     -578933.800 6   -444158.44723
 91  3 22  0 18 44.9970000  0  4G 2G 6G11G19
  20371454.4624   -8328672.35347  -6263244.25763
  21660930.790   -11053202.849 6  -8535653.39321
  23364879.540     1952186.227 6   1525887.91321
  21051071.618     -573891.781 6   -440229.62322
 91  3 22  0 18 59.9970000  0  4G 2G 6G11G19
  20366028.4704   -8357185.69447  -6285462.40563
  21651619.9314  -11102137.40746  -8573784.12061
  23369157.1034    1974659.38746   1543399.40261
  21052049.431     -568770.188 6   -436238.79322
 91  3 22  0 19 14.9970000  0  4G 2G 6G11G19
  20360614.8924   -8385635.97547  -6307631.42263
  21642309.6734  -11151060.32446  -8611905.78261
  23373452.9394    1997230.18346   1560986.97361
  21053034.548     -563577.783 6   -432192.78722
 91  3 22  0 19 29.9970000  0  4G 2G 6G11G19
  20355212.954    -8414024.612 7  -6329752.39623
  21633000.7824  -11199973.31046  -8650019.69761
  23377764.8534    2019896.75946   1578649.17261
  21054037.524     -558316.211 6   -428092.88023
 91  3 22  0 19 44.9970000  0  4G 2G 6G11G19
  20349823.8684   -8442340.66647  -6351816.81663
  21623699.9934  -11248865.00946  -8688117.02661
  23382098.0174    2042669.72746   1596394.28961
  21055052.157     -552974.373 6   -423930.42823
 91  3 22  0 19 59.9970000  0  4G 2G 6G11G19
  20344450.6344   -8470580.00947  -6373821.45963
  21614398.8374  -11297731.06946  -8726194.38361
  23386452.2204    2065552.99346   1614225.33361
  21056088.103     -547547.885 6   -419702.01723
 91  3 22  0 20 14.9970000  0  4G 2G 6G11G19
  20339092.1104   -8498742.36247  -6395766.11363
  21605103.7984  -11346570.94546  -8764251.34361
  23390827.2594    2088546.79146   1632142.51361
  21057133.657     -542036.313 6   -415407.30722
 91  3 22  0 20 29.9970000  0  4G 2G 6G11G19
  20333745.1894   -8526837.77547  -6417658.60463
  21595814.9934  -11395394.47846  -8802295.55661
  23395223.181     2111640.756 5   1650137.74621
  21058198.329     -536449.581 6   -411054.03523
 91  3 22  0 20 44.9970000  0  4G 2G 6G11G19
  20328412.1734   -8554862.74447  -6439496.20963
  21586527.5954  -11444198.06446  -8840324.23061
  23399638.040     2134837.945 6   1668213.41421
  21059275.024     -530784.089 6   -406639.38722
 91  3 22  0 20 59.9970000  0  4G 2G 6G11G19
  20323092.1654   -8582820.88147  -6461281.73363
  21577244.3534  -11492984.91046  -8878339.86261
  23404070.8144    2158134.66946   1686366.64761
  21060368.462     -525043.333 6   -402166.09723
 91  3 22  0 21 14.9970000  0  4G 2G 6G11G19
  20317780.5404   -8610733.45647  -6483031.75763
  21567958.1894  -11541776.28546  -8916359.01761
  23408518.485     2181509.283 5   1704580.58021
  21061470.157     -519248.436 6   -397650.61123
 91  3 22  0 21 29.9970000  0  4G 2G 6G11G19
  20312484.0174   -8638568.72347  -6504721.54263
  21558678.5874  -11590540.10446  -8954356.69961
  23412987.657     2204993.266 5   1722879.71921
  21062593.7594    -513367.57246   -393068.15363
 91  3 22  0 21 44.9970000  0  4G 2G 6G11G19
  20307201.4464   -8666323.49547  -6526348.59963
  21549406.0564  -11639273.14746  -8992330.39761
  23417477.9854    2228589.26545   1741266.15561
  21063726.407     -507397.644 6   -388416.28722
 91  3 22  0 21 59.9970000  0  4G 2G 6G11G19
  20301933.9704   -8694007.99847  -6547920.90363
  21540136.2984  -11687985.38246  -9030287.89761
  23421989.0564    2252286.99645   1759731.83561
  21064878.517     -501348.538 6   -383702.71623
 91  3 22  0 22 14.9970000  0  4G 2G 6G11G19
  20296678.8294   -8721627.48547  -6569442.54763
  21530869.142   -11736681.627 6  -9068232.93421
  23426518.462     2276081.086 5   1778272.61521
  21066042.704     -495225.253 6   -378931.34423
 91  3 22  0 22 29.9970000  0  4G 2G 6G11G19
  20291436.0564   -8749169.96547  -6590904.18763
  21521608.6264  -11785349.90646  -9106156.17161
  23431063.5174    2299983.09145   1796897.49861
  21067227.165     -489015.957 6   -374092.95422
 91  3 22  0 22 44.9970000  0  4G 2G 6G11G19
  20286208.228    -8776645.533 7  -6612313.67623
  21512350.142   -11834000.074 6  -9144065.30121
  23435631.220     2323982.647 5   1815598.39621
  21068420.907     -482730.707 6   -369195.37422
 91  3 22  0 22 59.9970000  0  4G 2G 6G11G19
  20280992.2124   -8804054.99347  -6633671.66263
  21503095.8764  -11882632.58146  -9181960.66361
  23440217.978     2348078.785 5   1834374.53121
  21069631.1894    -476370.04146   -364239.04062
 91  3 22  0 23 14.9970000  0  4G 2G 6G11G19
  20275786.0244   -8831413.63547  -6654990.04563
  21493842.8924  -11931262.62146  -9219854.10061
  23444817.4784    2372255.93545   1853213.80661
  21070851.204     -469949.142 6   -359235.76822
 91  3 22  0 23 29.9970000  0  4G 2G 6G11G19
  20270591.6814   -8858708.05447  -6676258.38663
  21484590.5094  -11979876.60946  -9257735.03961
  23449435.189     2396527.023 5   1872126.27421
  21072089.314     -463454.537 6   -354175.05822
 91  3 22  0 23 44.9970000  0  4G 2G 6G11G19
  20265411.3454   -8885936.59747  -6697475.39564
  21475344.2824  -12028472.68446  -9295602.01561
  23454072.6264    2420893.56845   1891113.12061
  21073338.282     -456884.371 6   -349055.47022
 91  3 22  0 23 59.9970000  0  4G 2G 6G11G19
  20260239.7824   -8913102.42147  -6718643.53164
  21466098.8064  -12077053.74946  -9333457.29262
  23458727.0794    2445352.12345   1910171.66961
  21074602.470     -450241.908 6   -343879.55422
 91  3 22  0 24 14.9970000  0  4G 2G 6G11G19
  20255081.6734   -8940216.80347  -6739771.58264
  21456854.2284  -12125630.77246  -9371309.42162
  23463396.696     2469891.230 5   1929293.00321
  21075876.782     -443538.218 6   -338655.92322
 91  3 22  0 24 29.9970000  0  4G 2G 6G11G19
  20249934.3214   -8967262.81847  -6760846.36864
  21447614.6494  -12174186.60346  -9409145.03761
  23468084.3994    2494527.66645   1948490.15561
  21077170.134     -436756.207 6   -333371.26322
 91  3 22  0 24 44.9970000  0  4G 2G 6G11G19
  20244802.7514   -8994235.67147  -6781864.13064
  21438379.2984  -12222716.34446  -9446960.32461
  23472791.6574    2519265.74445   1967766.51161
  21078474.9624    -429890.89246   -328021.69462
 91  3 22  0 24 59.9970000  0  4G 2G 6G11G19
  20239680.2434   -9021145.73347  -6802832.97764
  21429147.3844  -12271230.10146  -9484763.15661
  23477517.2674    2544094.75645   1987113.72661
  21079796.3604    -422952.46346   -322615.15462
 91  3 22  0 25 14.9970000  0  4G 2G 6G11G19
  20234572.2984   -9047994.12547  -6823753.76564
  21419918.6734  -12319728.86346  -9522554.31161
  23482259.7594    2569013.24345   2006530.66661
  21081128.6814    -415942.28646   -317152.70362
 91  3 22  0 25 29.9970000  0  4G 2G 6G11G19
  20229474.767    -9074780.908 7  -6844626.53924
  21410693.4704  -12368212.45246  -9560333.64061
  23487017.517     2594021.017 5   2026017.19021
  21082478.2904    -408860.19346   -311634.22363
 91  3 22  0 25 44.9970000  0  4G 2G 6G11G19
  20224388.7904   -9101502.46547  -6865448.49563
  21401472.0014  -12416676.96746  -9598098.10061
  23491795.5094    2619121.42346   2045575.88061
  21083838.8684    -401702.35646   -306056.71462
 91  3 22  0 25 59.9970000  0  4G 2G 6G11G19
  20219314.142    -9128172.037 7  -6886229.93923
  21392248.1814  -12465135.36946  -9635857.79762
  23496586.579     2644300.902 5   2065196.18621
  21085215.6894    -394481.94446   -300430.44763
 91  3 22  0 26 14.9970000  0  4G 2G 6G11G19
  20214253.5174   -9154768.83247  -6906954.67364
  21383031.2984  -12513566.74046  -9673596.42862
  23501398.2284    2669580.03845   2084894.16161
  21086602.157     -387177.949 6   -294739.04622
 91  3 22  0 26 29.9970000  0  4G 2G 6G11G19
  20209204.524    -9181299.387 7  -6927627.79023
  21373818.6734  -12561977.22046  -9711318.78262
  23506224.1494    2694951.91246   2104664.39961
  21088008.0324    -379797.00546   -288987.69262
 91  3 22  0 26 44.9970000  0  4G 2G 6G11G19
  20204168.7434   -9207759.38147  -6948245.92663
  21364612.8684  -12610362.43846  -9749021.45062
  23511071.251     2720420.682 6   2124510.13721
  21089427.6034    -372334.63546   -283172.89362
 91  3 22  0 26 59.9970000  0  4G 2G 6G11G19
  20199146.470    -9234155.913 7  -6968814.61423
  21355409.4154  -12658729.14046  -9786709.69862
  23515935.2594    2745979.02445   2144425.66461
  21090863.360     -364797.700 6   -277299.98222
 91  3 22  0 27 14.9970000  0  4G 2G 6G11G19
  20194134.6894   -9260495.26247  -6989338.74263
  21346206.665   -12707083.524 6  -9824388.33322
  23520814.4154    2771620.27946   2164405.79861
  21092308.243     -357192.529 6   -271373.89322
 91  3 22  0 27 29.9970000  0  4G 2G 6G11G19
  20189132.845    -9286778.493 7  -7009819.13623
  21337007.3604  -12755426.38046  -9862057.99562
  23525708.3294    2797343.10746   2184449.49361
  21093770.173     -349520.021 6   -265395.34422
 91  3 22  0 27 44.9970000  0  4G 2G 6G11G19
  20184142.321    -9313001.534 7  -7030252.63123
  21327810.3764  -12803753.18946  -9899715.15662
  23530620.1654    2823151.47646   2204559.84761
  21095242.024     -341775.667 6   -259360.80522
 91  3 22  0 27 59.9970000  0  4G 2G 6G11G19
  20179165.954    -9339152.886 7  -7050630.26523
  21318618.6424  -12852052.42646  -9937350.82662
  23535550.8374    2849056.39646   2224745.43061
  21096735.3214    -333948.21946   -253261.52562
 91  3 22  0 28 14.9970000  0  4G 2G 6G11G19
  20174202.821    -9365236.310 7  -7070954.96424
  21309434.4934  -12900327.68846  -9974967.81362
  23540496.7594    2875053.87846   2245003.13761
  21098236.4544    -326041.47346   -247100.45462
 91  3 22  0 28 29.9970000  0  4G 2G 6G11G19
  20169250.696    -9391257.754 7  -7091231.36724
  21300250.1964  -12948584.70946 -10012570.58862
  23545461.290     2901137.638 6   2265328.08221
  21099757.8534    -318061.13946   -240882.04262
 91  3 22  0 28 44.9970000  0  4G 2G 6G11G19
  20164310.243    -9417217.199 7  -7111459.46224
  21291069.5714  -12996823.17646 -10050158.91161
  23550441.032     2927307.470 6   2285720.10221
  21101289.3684    -310007.11546   -234606.21362
 91  3 22  0 28 59.9970000  0  4G 2G 6G11G19
  20159383.610    -9443110.877 7  -7131636.31024
  21281894.8374  -13045038.97946 -10087729.56661
  23555438.556     2953566.927 6   2306181.94021
  21102836.5484    -301875.46546   -228269.90162
 91  3 22  0 29 14.9970000  0  4G 2G 6G11G19
  20154467.274    -9468942.600 7  -7151764.88124
  21272723.3064  -13093235.79346 -10125285.42762
  23560453.173     2979911.839 6   2326710.37121
  21104396.290     -293669.957 6   -221876.01522
 91  3 22  0 29 29.9970000  0  4G 2G 6G11G19
  20149562.478    -9494722.780 7  -7171853.28523
  21263554.564   -13141423.783 7 -10162834.43022
  23565479.181     3006331.578 6   2347297.13521
  21105973.907     -285400.990 6   -215432.69522
 91  3 22  0 29 44.9970000  0  4G 2G 6G11G19
  20144667.892    -9520441.021 7  -7191893.42923
  21254387.4464  -13189592.24246 -10200368.20162
  23570522.9394    3032836.24246   2367950.05261
  21107557.524     -277057.874 6   -208931.59122
 91  3 22  0 29 59.9970000  0  4G 2G 6G11G19
  20139785.915    -9546096.620 7  -7211884.76023
  21245225.4074  -13237740.27746 -10237886.06262
  23575582.6574    3059426.32546   2388669.51961
  21109162.1734    -268639.68546   -202371.99362
 91  3 22  0 30 14.9970000  0  4G 2G 6G11G19
  20134915.673    -9571686.088 7  -7231824.55923
  21236067.2434  -13285864.32046 -10275385.22762
  23580659.5564    3086104.84046   2409457.91661
  21110776.3924    -260143.09046   -195751.30562
 91  3 22  0 30 29.9970000  0  4G 2G 6G11G19
  20130057.899    -9597214.874 7  -7251717.07723
  21226913.9784  -13333969.36546 -10312869.58562
  23585752.5794    3112866.08946   2430310.77761
  21112409.7354    -251573.31746   -189073.58762
 91  3 22  0 30 44.9970000  0  4G 2G 6G11G19
  20125209.884    -9622690.126 7  -7271567.87923
  21217760.1104  -13382062.55846 -10350344.70262
  23590859.3684    3139702.67146   2451222.34361
  21114051.4074    -242937.60546   -182344.48962
 91  3 22  0 30 59.9970000  0  4G 2G 6G11G19
  20120378.423    -9648079.680 7  -7291351.89823
  21208616.8684  -13430111.28146 -10387785.17162
  23595985.9394    3166646.62045   2472217.56061
  21115713.8454    -234203.48046   -175538.70662
 91  3 22  0 31 14.9970000  0  4G 2G 6G11G19
  20115559.618    -9673405.047 7  -7311085.90424
  21199478.7984  -13478136.91446 -10425207.64962
  23601128.9784    3193676.04545   2493279.38461
  21117390.5244    -225392.50546   -168673.04262
 91  3 22  0 31 29.9970000  0  4G 2G 6G11G19
  20110751.040    -9698672.969 7  -7330775.14724
  21190344.321   -13526145.856 6 -10462617.13522
  23606287.782     3220784.071 5   2514402.46321
  21119083.6574    -216511.25346   -161752.61562
 91  3 22  0 31 44.9970000  0  4G 2G 6G11G19
  20105950.329    -9723900.431 7  -7350432.86324
  21181207.415   -13574154.894 6 -10500026.69322
  23611459.360     3247953.324 5   2535573.24521
  21120779.4784    -207576.73546   -154790.67662
 91  3 22  0 31 59.9970000  0  4G 2G 6G11G19
  20101162.353    -9749060.208 7  -7370037.84224
  21172076.970   -13622136.559 6 -10537414.91422
  23616646.5644    3275210.75345   2556812.74661
  21122497.626     -198561.468 6   -147765.81822
 91  3 22  0 32 14.9970000  0  4G 2G 6G11G19
  20096385.595    -9774158.890 7  -7389595.21224
  21162949.9704  -13670097.24446 -10574786.78362
  23621849.5564    3302549.29845   2578115.45661
  21124225.0014    -189472.21046   -140683.31062
 91  3 22  0 32 29.9970000  0  4G 2G 6G11G19
  20091621.790    -9799191.270 7  -7409100.90924
  21153829.040   -13718031.475 7 -10612138.05222
  23627067.9234    3329974.02145   2599485.29561
  21125971.462     -180303.447 6   -133538.84722
 91  3 22  0 32 44.9970000  0  4G 2G 6G11G19
  20086872.064    -9824154.629 7  -7428552.84024
  21144713.017   -13765936.334 6 -10649466.42922
  23632302.8534    3357487.35345   2620924.19361
  21127730.860     -171052.224 6   -126330.11622
 91  3 22  0 32 59.9970000  0  3G 2G 6G19
  20082133.4154   -9849052.91047  -7447954.05864
  21135601.329   -13813815.297 6 -10686774.62522
  21129506.899     -161722.471 6   -119060.20622
 91  3 22  0 33 14.9970000  0  3G 2G 6G19
  20077408.0404   -9873890.63347  -7467308.08863
  21126494.524   -13861672.830 6 -10724066.12422
  21131295.0014    -152318.71246   -111732.62662
 91  3 22  0 33 29.9970000  0  3G 2G 6G19
  20072693.540    -9898666.553 7  -7486613.95624
  21117392.7904  -13909507.36846 -10761339.70262
  21133101.353     -142839.560 6   -104346.30022
 91  3 22  0 33 44.9970000  0  3G 2G 6G19
  20067994.6814   -9923359.12747  -7505854.88463
  21108298.1894  -13957297.09446 -10798578.36462
  21134920.634     -133263.479 6    -96884.44422
 91  3 22  0 33 59.9970000  0  3G 2G 6G19
  20063303.9854   -9948002.38247  -7525057.38263
  21099204.5714  -14005076.09546 -10835808.66462
  21136760.712     -123624.413 6    -89373.51022
 91  3 22  0 34 14.9970000  0  3G 2G 6G19
  20058625.1344   -9972592.33747  -7544218.35163
  21090115.2434  -14052839.78846 -10873027.04262
  21138603.2284    -113918.13646    -81810.20062
 91  3 22  0 34 29.9970000  0  3G 2G 6G19
  20053959.5404   -9997111.92847  -7563324.49664
  21081034.0564  -14100571.03246 -10910220.13062
  21140465.939     -104127.594 6    -74181.23122
 91  3 22  0 34 44.9970000  0  4G 2G15G 6G19
  20049306.1184  -10021564.07448  -7582378.08464
  23355377.7904         -0.63555
  21071955.439   -14148272.581 6 -10947390.08322
  21142345.079      -94255.690 6    -66488.85922
 91  3 22  0 34 59.9970000  0  4G 2G15G 6G19
  20044663.8844  -10045956.58147  -7601385.19864
  23346757.5244     -45320.51745
  21062883.368   -14195951.838 6 -10984542.67122
  21144240.767      -84310.207 6    -58739.15622
 91  3 22  0 35 14.9970000  0  4G 2G15G 6G19
  20040032.6654  -10070296.91648  -7620351.65864
  23338145.1494     -90571.69545
  21053812.3064  -14243616.12646 -11021683.58962
  21146142.196      -74298.299 6    -50937.69222
 91  3 22  0 35 29.9970000  0  4G 2G15G 6G19
  20035409.3604  -10094595.98348  -7639285.96464
  23329544.5094    -135764.74045
  21044744.0714  -14291275.93446 -11058821.01362
  21148057.665      -64230.693 6    -43092.82922
 91  3 22  0 35 44.9970000  0  4G 2G15G 6G19
  20030799.6104  -10118818.58947  -7658160.68664
  23320964.3294    -180863.84645
  21035681.0404  -14338895.89346 -11095927.38662
  21149992.126      -54072.265 6    -35177.19322
 91  3 22  0 35 59.9970000  0  4G 2G15G 6G19
  20026200.1184  -10142989.33447  -7676995.00064
  23312392.6344    -225893.25645        -0.44071
  21026623.2904  -14386500.45447 -11133021.76362
  21151938.923      -43847.628 6    -27209.97222
 91  3 22  0 36 14.9970000  0  4G 2G15G 6G19
  20021615.5174  -10167080.35347  -7695767.18764
  23303843.314     -270824.539 5    -35011.65821
  21017572.3764  -14434061.25547 -11170082.03862
  21153900.470      -33528.667 6    -19169.24822
 91  3 22  0 36 29.9970000  0  4G 2G15G 6G19
  20017044.0954  -10191103.13247  -7714486.21064
  23295312.157     -315668.756 5    -69955.05121
  21008527.4154  -14481589.62047 -11207117.03762
  21155881.962      -23126.644 6    -11063.80422
 91  3 22  0 36 44.9970000  0  4G 2G15G 6G19
  20012483.1894  -10215074.26247  -7733164.97664
  23286792.7434    -360441.98445   -104843.13161
  20999485.165   -14529102.040 6 -11244139.61622
  21157871.321      -12658.132 6     -2906.54922
 91  3 22  0 36 59.9970000  0  4G 2G15G 6G19
  20007931.9704  -10238983.27647  -7751795.34664
  23278286.7674    -405133.53945   -139667.57661
  20990449.2354  -14576587.67546 -11281141.31962
  21159879.142       -2112.865 6      5310.52022
 91  3 22  0 37 14.9970000  0  4G 2G15G 6G19
  20003396.2434  -10262824.37848  -7770372.79864
  23269798.1034    -449737.11945   -174423.47361
  20981419.3214  -14624040.57246 -11318117.50462
  21161900.4464       8515.07046     13592.00362
 91  3 22  0 37 29.9970000  0  4G 2G15G 6G19
  19998869.7124  -10286611.24847  -7788907.99163
  23261323.181     -494266.160 5   -209121.27821
  20972393.5014  -14671474.03446 -11355078.55762
  21163938.368       19212.186 6     21927.39322
 91  3 22  0 37 44.9970000  0  4G 2G15G 6G19
  19994354.1654  -10310339.79447  -7807397.73964
  23252866.7674    -538715.71245   -243757.15061
  20963372.1964  -14718883.73447 -11392021.09062
  21165987.7984      29982.69846     30319.96962
 91  3 22  0 37 59.9970000  0  4G 2G15G 6G19
  19989848.743   -10334013.209 7  -7825844.53024
  23244420.954     -583088.673 5   -278333.35621
  20954353.1034  -14766272.37247 -11428947.21262
  21168051.3924      40823.49346     38767.31062
 91  3 22  0 38 14.9970000  0  4G 2G15G 6G19
  19985357.0874  -10357618.37147  -7844238.12964
  23235993.4154    -627371.85645   -312839.61361
  20945341.8214  -14813626.96747 -11465846.80162
  21170128.1184      51747.70946     47279.65762
 91  3 22  0 38 29.9970000  0  4G 2G15G 6G19
  19980878.6264  -10381151.67947  -7862575.74064
  23227584.5014    -671561.10545   -347272.66861
  20936337.3604  -14860943.59546 -11502716.81162
  21172228.181       62758.981 6     55859.84022
 91  3 22  0 38 44.9970000  0  4G 2G15G 6G19
  19976411.8604  -10404627.31347  -7880868.41264
  23219191.571     -715669.962 5   -381643.07021
  20927339.1034  -14908236.21546 -11539568.11162
  21174332.2984      73843.21046     64496.87762
 91  3 22  0 38 59.9970000  0  4G 2G15G 6G19
  19971956.0404  -10428043.19347  -7899114.52664
  23210812.7354    -759695.98145   -415948.93561
  20918344.134   -14955502.302 6 -11576398.74422
  21176459.2674      85002.66346     73192.52362
 91  3 22  0 39 14.9970000  0  4G 2G15G 6G19
  19967511.6184  -10451397.40247  -7917312.57864
  23202452.9704    -803636.66645   -450188.29861
  20909354.6654  -15002739.55746 -11613206.90162
  21178594.5324      96239.51746     81948.48162
 91  3 22  0 39 29.9960000  0  4G 2G15G 6G19
  19963080.0744  -10474684.79347  -7935458.56464
  23194106.8564    -847485.40145   -484356.02261
  20900372.4964  -15049941.28746 -11649987.37362
  21180750.0824     107556.41146     90766.80762
 91  3 22  0 39 44.9960000  0  4G 2G15G 6G19
  19958659.7624  -10497912.33947  -7953557.91464
  23185781.199     -891251.606 5   -518459.42121
  20891395.3014  -15097117.43646 -11686747.91862
  21182917.0354     118950.94946     99645.63662
 91  3 22  0 39 59.9960000  0  4G 2G15G 6G19
  19954251.8014  -10521074.90147  -7971606.63264
  23177469.0274    -934927.91045   -552492.78161
  20882423.3874  -15144260.94146 -11723483.01462
  21185101.059      130426.126 6    108587.30622
 91  3 22  0 40 14.9960000  0  4G 2G15G 6G19
  19949856.4654  -10544172.92947  -7989605.06464
  23169171.137     -978514.608 5   -586456.30121
  20873459.637   -15191371.873 7 -11760192.75222
  21187299.379      141981.733 6    117591.65522
 91  3 22  0 40 29.9960000  0  4G 2G15G 6G19
  19945474.4344  -10567204.01647  -8007551.33664
  23160897.6524   -1022008.77345   -620347.74361
  20864501.5664  -15238447.66747 -11796875.09862
  21189516.0744     153620.16746    126660.53462
 91  3 22  0 40 44.9960000  0  4G 2G15G 6G19
  19941101.2234  -10590185.59447  -8025459.02864
  23152635.8324   -1065427.11145   -654180.07761
  20855545.6994  -15285505.44847 -11833543.40362
  21191741.168      165323.952 6    135780.34022
 91  3 22  0 40 59.9960000  0  4G 2G15G 6G19
  19936737.1064  -10613116.69447  -8043327.38764
  23144387.6524   -1108768.68945   -687952.61661
  20846595.7934  -15332543.97746 -11870196.70362
  21193982.5984     177094.17646    144951.91062
 91  3 22  0 41 14.9960000  0  4G 2G15G 6G19
  19932384.3324  -10635993.91747  -8061153.76864
  23136153.691    -1152029.628 5   -721662.30721
  20837646.8714  -15379559.49146 -11906832.08462
  21196233.5984     188934.37646    154178.00762
 91  3 22  0 41 29.9960000  0  4G 2G15G 6G19
  19928043.5044  -10658803.57547  -8078927.49564
  23127939.6764   -1195195.84845   -755298.20261
  20828707.7624  -15426538.19446 -11943438.76462
  21198505.1844     200858.31146    163469.35462
 91  3 22  0 41 44.9960000  0  4G 2G15G 6G19
  19923713.8714  -10681554.93747  -8096655.79364
  23119743.8324   -1238275.90845   -788866.94061
  20819774.168   -15473488.950 6 -11980023.66922
  21200786.1454     212856.84046    172818.82562
 91  3 22  0 41 59.9960000  0  4G 2G15G 6G19
  19919397.2704  -10704237.45947  -8114330.45364
  23111563.199    -1281258.747 5   -822359.94121
  20810845.5824  -15520400.92747 -12016578.36262
  21203087.7314     224940.58446    182234.70062
 91  3 22  0 42 14.9960000  0  4G 2G15G 6G19
  19915092.8094  -10726854.64747  -8131954.20764
  23103400.9344   -1324147.69045   -855779.76661
  20801925.3164  -15567277.43847 -12053105.42562
  21205400.8484     237106.06846    191714.26362
 91  3 22  0 42 29.9960000  0  4G 2G15G 6G19
  19910800.9734  -10749413.22947  -8149532.29164
  23095257.3564   -1366949.15545   -889131.43561
  20793010.496   -15614124.852 7 -12089609.81322
  21207732.1844     249346.63346    201252.33462
 91  3 22  0 42 44.9960000  0  4G 2G15G 6G19
  19906519.4104  -10771908.69247  -8167061.19164
  23087127.4884   -1409658.03645   -922410.95761
  20784102.8714  -15660938.65846 -12126088.01662
  21210075.0354     261666.94046    210852.53762
 91  3 22  0 42 59.9960000  0  4G 2G15G 6G19
  19902251.0124  -10794341.28347  -8184541.09764
  23079017.3484   -1452274.15645   -955618.19361
  20775200.8564  -15707718.53746 -12162539.77562
  21212434.645      274066.746 6    220514.70122
 91  3 22  0 43 14.9960000  0  4G 2G15G 6G19
  19897996.4024  -10816700.64547  -8201963.94964
  23070930.7544   -1494786.97445   -988744.92761
  20766306.496   -15754453.993 6 -12198956.91022
  21214812.8874     286556.34746    230246.82862
 91  3 22  0 43 29.9960000  0  4G 2G15G 6G19
  19893754.3164  -10838994.69147  -8219335.90164
  23062854.3714   -1537203.72045  -1021796.80861
  20757420.0984  -15801152.74647 -12235345.45862
  21217204.5824     299127.88346    240042.80062
 91  3 22  0 43 44.9960000  0  4G 2G15G 6G19
  19889522.9344  -10861229.96347  -8236662.05664
  23054802.277    -1579530.426 5  -1054778.52721
  20748540.3794  -15847820.90447 -12271710.16662
  21219610.5124     311774.87046    249897.55962
 91  3 22  0 43 59.9960000  0  5G 2G15G 6G13G19
  19885303.9574  -10883399.75347  -8253937.18464
  23046765.0824   -1621760.12445  -1087684.65461
  20739666.6844  -15894451.69347 -12308045.76462
  23003106.0434     -77198.54745
  21222036.1374     324504.20046    259816.48962
 91  3 22  0 44 14.9960000  0  5G 2G15G 6G13G19
  19881094.1374  -10905521.44847  -8271174.83864
  23038747.0824   -1663909.87945  -1120528.49761
  20730797.402   -15941062.113 7 -12344365.48622
  22988419.0044    -154372.70945
  21224467.6064     337298.59146    269786.11462
 91  3 22  0 44 29.9960000  0  5G 2G15G 6G13G19
  19876897.2774  -10927577.34247  -8288361.21264
  23030742.1604   -1705961.56645  -1153295.91361
  20721934.481   -15987634.193 7 -12380655.33522
  22973742.6524    -231505.46845
  21226919.527      350175.930 6    279820.36322
 91  3 22  0 44 44.9960000  0  5G 2G15G 6G13G19
  19872710.8634  -10949573.13347  -8305500.75764
  23022757.6454   -1747920.52245  -1185991.07061
  20713076.684   -16034173.454 7 -12416919.61722
  22959069.3094    -308602.20045
  21229383.8794     363130.22746    289914.58762
 91  3 22  0 44 59.9960000  0  5G 2G15G 6G13G19
  19868537.5904  -10971506.46947  -8322591.63364
  23014791.1684   -1789784.05945  -1218611.88561
  20704228.5744  -16080677.26547 -12453156.26662
  22944407.004     -385659.887 5        -0.17531
  21231864.910      376163.994 6    300070.73422
 91  3 22  0 45 14.9960000  0  5G 2G15G 6G13G19
  19864373.9104  -10993387.01947  -8339641.37664
  23006840.2854   -1831561.33645  -1251165.48961
  20695384.699   -16127154.810 7 -12489372.45022
  22929748.481     -462687.618 5    -60021.44321
  21234356.4104     389267.83046    310281.47962
 91  3 22  0 45 29.9960000  0  5G 2G15G 6G13G19
  19860220.9654  -11015208.81647  -8356645.34264
  22998910.2074   -1873245.88745  -1283646.83461
  20686546.066   -16173600.021 7 -12525563.44322
  22915095.879     -539679.269 5   -120014.56221
  21236867.1524     402447.72646    320551.49062
 91  3 22  0 45 44.9960000  0  5G 2G15G 6G13G19
  19856078.4884  -11036978.49347  -8373608.70264
  22990993.5594   -1914843.63445  -1316060.53261
  20677712.879   -16220018.977 7 -12561733.97922
  22900451.1524    -616640.61845   -179984.09661
  21239387.3634     415697.25146    330875.75862
 91  3 22  0 45 59.9960000  0  5G 2G15G 6G13G19
  19851947.3874  -11058684.24948  -8390522.25164
  22983098.066    -1956342.750 5  -1348397.38121
  20668886.762   -16266399.881 7 -12597874.87222
  22885814.363     -693559.559 5   -239920.59421
  21241923.5904     429028.10646    341263.40362
 91  3 22  0 46 14.9960000  0  5G 2G15G 6G13G19
  19847828.4104  -11080334.27447  -8407392.37164
  22975219.2624   -1997750.84245  -1380663.29661
  20660066.754   -16312750.517 7 -12633992.17622
  22871182.254     -770444.094 5   -299830.25721
  21244473.6294     442432.09946    351708.04062
 91  3 22  0 46 29.9960000  0  5G 2G15G 6G13G19
  19843719.7704  -11101924.46647  -8424215.86764
  22967355.965    -2039063.365 5  -1412854.74921
  20651253.2934  -16359066.59847 -12670082.56062
  22856559.762     -847289.562 5   -359709.56121
  21247043.9344     455913.29945    362212.83262
 91  3 22  0 46 44.9960000  0  5G 2G15G 6G13G19
  19839620.8954  -11123462.86847  -8440999.00664
  22959509.3634   -2080288.05445  -1444977.75461
  20642444.473   -16405355.894 7 -12706152.06922
  22841945.309     -924103.642 5   -419564.34921
  21249617.481      469463.810 6    372771.63322
 91  3 22  0 46 59.9960000  0  5G 2G15G 6G13G19
  19835534.1994  -11144935.43047  -8457730.84264
  22951685.324    -2121410.458 5  -1477021.06121
  20633642.637   -16451603.981 7 -12742189.46122
  22827333.152    -1000871.605 4   -479383.17821
  21252212.270      483097.872 6    383395.53222
 91  3 22  0 47 14.9960000  0  5G 2G15G 6G13G19
  19831459.0434  -11166350.66047  -8474418.00764
  22943878.926    -2162438.574 5  -1508990.89021
  20624848.621   -16497819.087 7 -12778201.16022
  22812731.645    -1077601.414 4   -539172.31121
  21254820.316      496806.944 6    394077.88722
 91  3 22  0 47 29.9960000  0  5G 2G15G 6G13G19
  19827395.7854  -11187705.85647  -8491058.38964
  22936088.684    -2203369.521 5  -1540885.00721
  20616059.231   -16543998.380 7 -12814184.95522
  22798139.012    -1154290.115 4   -598929.40121
  21257452.879      510593.794 6    404820.84322
 91  3 22  0 47 44.9960000  0  5G 2G15G 6G13G19
  19823343.7544  -11208998.93147  -8507650.36664
  22928319.6844   -2244200.70845  -1572701.38761
  20607280.4414  -16590139.39347 -12850138.92462
  22783553.3244   -1230935.02644   -658652.36761
  21260083.2854     524460.48146    415626.01562
 91  3 22  0 47 59.9960000  0  5G 2G15G 6G13G19
  19819301.387   -11230239.918 7  -8524201.76024
  22920567.0744   -2284941.66245  -1604447.46561
  20598505.3564  -16636251.82747 -12886070.62962
  22768972.895    -1307545.699 4   -718348.66921
  21262735.2074     538396.97546    426485.57962
 91  3 22  0 48 14.9960000  0  5G 2G15G 6G13G19
  19815271.5124  -11251418.10547  -8540704.21664
  22912833.168    -2325581.326 5  -1636114.60521
  20589738.0204  -16682324.66147 -12921971.47062
  22754402.6844   -1384111.24044   -778009.80261
  21265404.629      552414.360 6    437408.17522
 91  3 22  0 48 29.9960000  0  5G 2G15G 6G13G19
  19811250.457   -11272549.576 7  -8557170.26724
  22905113.9734   -2366135.45145  -1667715.09261
  20580974.9184  -16728373.83347 -12957853.87562
  22739838.410    -1460647.370 4   -837647.98921
  21268082.551      566496.230 6    448381.01122
 91  3 22  0 48 44.9960000  0  5G 2G15G 6G13G19
  19807240.676   -11293617.006 7  -8573586.42724
  22897416.6064   -2406586.31945  -1699235.13261
  20572219.7234  -16774381.79247 -12993704.16362
  22725283.512    -1537136.081 5   -897249.22921
  21270778.777      580659.974 6    459417.65122
 91  3 22  0 48 59.9960000  0  5G 2G15G 6G13G19
  19803243.6214  -11314622.00047  -8589953.91764
  22889738.0354   -2446934.97945  -1730675.51761
  20563472.7234  -16820349.76747 -13029523.29262
  22710735.6844   -1613578.46545   -956814.39361
  21273487.4734     594904.31146    470517.09962
 91  3 22  0 49 14.9960000  0  5G 2G15G 6G13G19
  19799256.5434  -11335575.38847  -8606281.20064
  22882075.1294   -2487191.82645  -1762044.36861
  20554730.6214  -16866288.30047 -13065319.48462
  22696196.7704   -1689985.05345  -1016351.65361
  21276210.7074     609218.32146    481670.83262
 91  3 22  0 49 29.9960000  0  5G 2G15G 6G13G19
  19795281.5354  -11356466.96347  -8622560.31764
  22874435.504    -2527346.373 5  -1793333.50421
  20545995.652   -16912186.884 7 -13101084.53922
  22681665.707    -1766345.077 5  -1075852.64821
  21278952.7464     623612.21946    492886.81662
 91  3 22  0 49 44.9960000  0  5G 2G15G 6G13G19
  19791314.6134  -11377311.24847  -8638802.58964
  22866812.6134   -2567413.00845  -1824554.12261
  20537266.848   -16958059.800 7 -13136829.59922
  22667141.1374   -1842672.67445  -1135328.32861
  21281703.465      638071.418 6    504153.68122
 91  3 22  0 49 59.9960000  0  5G 2G15G 6G13G19
  19787360.7314  -11398089.25347  -8654993.21564
  22859208.9734   -2607372.06045  -1855690.92761
  20528545.3164  -17003887.78847 -13172539.64962
  22652626.2854   -1918948.36045  -1194763.63661
  21284473.2464     652615.37946    515486.60662
 91  3 22  0 50 14.9960000  0  5G 2G15G 6G13G19
  19783419.5204  -11418796.68047  -8671128.84864
  22851625.340    -2647218.495 5  -1886739.96621
  20519834.3954  -17049665.93447 -13208210.86762
  22638124.4024   -1995167.10745  -1254154.53361
  21287255.996      667248.459 6    526888.95722
 91  3 22  0 50 29.9960000  0  5G 2G15G 6G13G19
  19779488.4734  -11439457.38447  -8687228.06464
  22844057.707    -2686976.480 5  -1917720.08821
  20511128.3484  -17095418.21547 -13243861.92762
  22623623.746    -2071352.751 5  -1313519.65221
  21290053.465      681946.524 6    538341.95422
 91  3 22  0 50 44.9960000  0  5G 2G15G 6G13G19
  19775566.6374  -11460064.59847  -8703285.60064
  22836510.199    -2726638.606 5  -1948625.50621
  20502427.8634  -17141137.50847 -13279487.28563
  22609133.0514   -2147497.96445  -1372853.25461
  21292863.387      696716.457 6    549850.94622
 91  3 22  0 50 59.9960000  0  5G 2G15G 6G13G19
  19771655.6994  -11480619.38447  -8719302.29064
  22828983.066    -2766205.423 5  -1979456.68021
  20493733.9654  -17186824.60047 -13315087.55463
  22594651.0984   -2223603.35445  -1432155.82261
  21295690.0514     711557.23745    561415.15962
 91  3 22  0 51 14.9960000  0  5G 2G15G 6G13G19
  19767758.0664  -11501101.90247  -8735262.66264
  22821474.832    -2805656.826 5  -2010197.90121
  20485051.004   -17232459.303 7 -13350646.99123
  22580177.8404   -2299648.66245  -1491411.57461
  21298527.4574     726488.55346    573049.91362
 91  3 22  0 51 29.9960000  0  5G 2G15G 6G13G19
  19763871.6844  -11521525.18847  -8751176.88164
  22813985.363    -2845005.456 5  -2040859.02921
  20476374.082   -17278054.469 7 -13386175.61323
  22565717.027    -2375646.558 5  -1550630.41121
  21301385.6214     741497.56545    584745.21662
 91  3 22  0 51 44.9960000  0  5G 2G15G 6G13G19
  19759995.3794  -11541894.22247  -8767048.82464
  22806516.7384   -2884255.66645  -2071443.48961
  20467703.4184  -17323614.80347 -13421677.10062
  22551264.3484   -2451601.47345  -1609815.71961
  21304253.8794     756579.26346    596497.15462
 91  3 22  0 51 59.9960000  0  5G 2G15G 6G13G19
  19756130.6294  -11562207.67447  -8782877.45764
  22799068.902    -2923405.993 5  -2101950.12021
  20459040.0124  -17369138.66747 -13457150.17162
  22536816.512    -2527511.595 5  -1668966.14421
  21307139.3014     771735.03446    608306.81262
 91  3 22  0 52 14.9960000  0  5G 2G15G 6G13G19
  19752274.0904  -11582470.59747  -8798666.72064
  22791637.270    -2962461.194 5  -2132382.60921
  20450382.9494  -17414630.78347 -13492598.50562
  22522379.606    -2603381.687 5  -1728085.37721
  21310035.0824     786960.02746    620170.41262
 91  3 22  0 52 29.9960000  0  5G 2G15G 6G13G19
  19748430.5824  -11602669.48547  -8814406.08064
  22784226.2314   -3001407.04645  -2162729.90161
  20441735.0514  -17460077.23147 -13528011.26262
  22507953.527    -2679197.391 5  -1787162.24221
  21312950.0744     802267.92146    632098.60562
 91  3 22  0 52 44.9960000  0  5G 2G15G 6G13G19
  19744591.0354  -11622849.60747  -8830130.81864
  22776824.957    -3040288.211 5  -2193026.77721
  20433087.0514  -17505522.84447 -13563423.35863
  22493525.7544   -2755003.59645  -1846231.70861
  21315868.332      817613.571 6    644056.21822
 91  3 22  0 52 59.9960000  0  5G 2G15G 6G13G19
  19740757.2154  -11642989.10247  -8845823.89964
  22769441.590    -3079082.841 5  -2223256.24621
  20424443.145   -17550945.817 7 -13598817.80323
  22479107.152    -2830778.262 5  -1905276.59121
  21318801.6134     833018.62445    656060.11062
 91  3 22  0 53 14.9960000  0  5G 2G15G 6G13G19
  19736933.8164  -11663081.97747  -8861480.65464
  22762081.152    -3117784.646 5  -2253413.37821
  20415804.160   -17596339.686 7 -13634189.57823
  22464694.9024   -2906514.80145  -1964291.78061
  21321742.7934     848489.09646    668114.98361
 91  3 22  0 53 29.9960000  0  5G 2G15G 6G13G19
  19733119.8714  -11683121.14447  -8877095.55764
  22754734.1604   -3156385.99645  -2283492.22761
  20407174.2704  -17641697.14247 -13669532.98263
  22450291.770    -2982205.712 5  -2023271.40921
  21324703.926      864031.995 6    680226.29021
 91  3 22  0 53 44.9960000  0  5G 2G15G 6G13G19
  19729318.1374  -11703104.89847  -8892667.29064
  22747407.7544   -3194884.76545  -2313491.15761
  20398549.481   -17687016.232 7 -13704846.48623
  22435896.152    -3057848.830 5  -2082213.77721
  21327673.5904     879649.23346    692395.53561
 91  3 22  0 53 59.9960000  0  5G 2G15G 6G13G19
  19725522.7384  -11723044.88947  -8908204.91564
  22740097.520    -3233292.039 5  -2343418.78721
  20389930.4574  -17732308.15547 -13740138.82463
  22421509.418    -3133455.335 5  -2141127.64321
  21330658.1214     895329.17545    704613.63862
 91  3 22  0 54 14.9960000  0  5G 2G15G 6G13G19
  19721741.0824  -11742921.60947  -8923693.23664
  22732811.2464   -3271588.15545  -2373259.79061
  20381320.8794  -17777553.24247 -13775394.66463
  22407131.6214   -3209005.19645  -2199997.35061
  21333657.441      911091.419 6    716895.86422
 91  3 22  0 54 29.9960000  0  5G 2G15G 6G13G19
  19717970.6604  -11762734.76147  -8939132.02664
  22725544.176    -3309772.597 5  -2403013.79721
  20372720.9734  -17822750.85147 -13810613.51462
  22392764.9884   -3284497.66345  -2258822.37261
  21336673.1524     926936.14645    729242.37161
 91  3 22  0 54 44.9960000  0  5G 2G15G 6G13G19
  19714212.0594  -11782485.29147  -8954522.01564
  22718299.481    -3347845.786 5  -2432681.09121
  20364128.652   -17867901.600 7 -13845795.84322
  22378411.504    -3359933.279 5  -2317603.09521
  21339702.871      942862.514 6    741652.48621
 91  3 22  0 54 59.9960000  0  5G 2G15G 6G13G19
  19710461.6064  -11802196.90447  -8969881.68164
  22711070.566    -3385830.837 5  -2462279.72721
  20355540.9814  -17913028.86247 -13880959.87762
  22364062.215    -3435335.461 5  -2376357.71421
  21342746.051      958846.980 5    754107.87421
 91  3 22  0 55 14.9960000  0  5G 2G15G 6G13G19
  19706721.7314  -11821847.17447  -8985193.55064
  22703861.9414   -3423705.38845  -2491792.23661
  20346962.449   -17958110.156 7 -13916088.08822
  22349724.6524   -3510681.50545  -2435068.62861
  21345802.6764     974911.77146    766625.85161
 91  3 22  0 55 29.9960000  0  5G 2G15G 6G13G19
  19702992.2464  -11841446.32447  -9000465.58464
  22696676.0204   -3461479.31045  -2521226.34161
  20338389.1764  -18003155.54447 -13951188.32363
  22335396.5904   -3585981.04045  -2493743.31561
  21348874.191      991046.769 5    779198.52621
 91  3 22  0 55 44.9960000  0  5G 2G15G 6G13G19
  19699272.4654  -11860991.05147  -9015695.21464
  22689507.910    -3499148.477 5  -2550578.82621
  20329825.941   -18048160.997 7 -13986257.43423
  22321074.801    -3661229.957 5  -2552378.52421
  21351956.465     1007255.297 6    791828.50121
 91  3 22  0 55 59.9960000  0  5G 2G15G 6G13G19
  19695564.1914  -11880481.86647  -9030882.83364
  22682357.7384   -3536713.15645  -2579849.90361
  20321268.6844  -18093126.87847 -14021295.71263
  22306765.8954   -3736428.51045  -2610974.55261
  21355054.168     1023536.990 5    804515.48921
 91  3 22  0 56 14.9960000  0  5G 2G15G 6G13G19
  19691868.9494  -11899899.93747  -9046013.76764
  22675233.606    -3574154.404 5  -2609024.78221
  20312723.2464  -18138034.15447 -14056288.32863
  22292470.051    -3811557.541 5  -2669516.36021
  21358171.316     1039910.579 6    817274.09121
 91  3 22  0 56 29.9960000  0  5G 2G15G 6G13G19
  19688184.012   -11919260.621 7  -9061099.99024
  22668129.0904   -3611487.22745  -2638115.19161
  20304186.5354  -18182897.93147 -14091247.05162
  22278182.9344   -3886632.18545  -2728015.81561
  21361302.6294    1056360.49945    830092.16561
 91  3 22  0 56 44.9960000  0  5G 2G15G 6G13G19
  19684509.2624  -11938577.26747  -9076151.89464
  22661042.6454   -3648724.45945  -2667131.10061
  20295655.3794  -18227731.05547 -14126181.88662
  22263903.074    -3961664.918 5  -2786482.62121
  21364443.434     1072873.756 5    842959.58621
 91  3 22  0 56 59.9960000  0  5G 2G15G 6G13G19
  19680843.996   -11957838.819 7  -9091160.86824
  22653977.606    -3685854.425 5  -2696063.44321
  20287131.5744  -18272522.25747 -14161084.05762
  22249633.856    -4036644.294 5  -2844907.80221
  21367601.848     1089461.469 5    855885.03221
 91  3 22  0 57 14.9960000  0  5G 2G15G 6G13G19
  19677188.6764  -11977041.36547  -9106123.86364
  22646935.106    -3722872.850 5  -2724908.86621
  20278616.426   -18317267.157 7 -14195950.13923
  22235379.262    -4111565.977 5  -2903288.06521
  21370772.551     1106127.785 5    868871.71721
 91  3 22  0 57 29.9960000  0  5G 2G15G 6G13G19
  19673546.5904  -11996179.09047  -9121036.34864
  22639908.449    -3759773.637 5  -2753662.61721
  20270112.395   -18361959.809 7 -14230775.50823
  22221133.4414   -4186423.88845  -2961618.62661
  21373960.934     1122878.269 5    881923.99121
 91  3 22  0 57 44.9960000  0  5G 2G15G 6G13G19
  19669918.3324  -12015244.12847  -9135892.18964
  22632912.3714   -3796548.56545  -2782318.30561
  20261618.582   -18406592.041 7 -14265553.79423
  22206902.2624   -4261209.53445  -3019892.88961
  21377164.426     1139720.881 5    895048.05721
 91  3 22  0 57 59.9960000  0  5G 2G15G 6G13G19
  19666299.582   -12034267.836 7  -9150715.83224
  22625931.1454   -3833228.59745  -2810900.03661
  20253130.2934  -18451194.99247 -14300309.26863
  22192677.957    -4335953.972 5  -3078135.07121
  21380382.285     1156624.212 5    908219.43421
 91  3 22  0 58 14.9960000  0  5G 2G15G 6G13G19
  19662689.621   -12053235.132 7  -9165495.52124
  22618975.590    -3869798.774 5  -2839396.16921
  20244651.0594  -18495753.36447 -14335030.01163
  22178465.160    -4410641.912 5  -3136333.20221
  21383612.551     1173603.199 5    921449.76521
 91  3 22  0 58 29.9960000  0  5G 2G15G 6G13G19
  19659089.8404  -12072152.90447  -9180236.60864
  22612034.285    -3906265.552 5  -2867811.73421
  20236179.3164  -18540273.69847 -14369721.11362
  22164261.543    -4485279.684 5  -3194492.20921
  21386857.207     1190651.038 5    934733.74921
 91  3 22  0 58 44.9960000  0  5G 2G15G 6G13G19
  19655500.738   -12091015.514 7  -9194934.72024
  22605115.520    -3942622.493 5  -2896141.70721
  20227716.301   -18584749.888 7 -14404377.81422
  22150068.574    -4559860.920 5  -3252607.19621
  21390114.543     1207773.685 5    948076.02521
 91  3 22  0 58 59.9960000  0  5G 2G15G 6G13G19
  19651920.340   -12109827.555 7  -9209593.43224
  22598215.488    -3978873.939 5  -2924389.48321
  20219260.340   -18629186.284 7 -14439003.50322
  22135887.309    -4634389.841 5  -3310681.40221
  21393391.801     1224966.512 5    961472.98721
 91  3 22  0 59 14.9960000  0  5G 2G15G 6G13G19
  19648350.918   -12128582.727 7  -9224207.82724
  22591341.2704   -4015013.41045  -2952549.99961
  20210812.309   -18673576.368 7 -14473593.10422
  22121716.027    -4708859.807 5  -3368709.69021
  21396672.246     1242235.762 5    974929.49821
 91  3 22  0 59 29.9960000  0  5G 2G15G 6G13G19
  19644796.277   -12147267.767 7  -9238767.57524
  22584485.3564   -4051027.24445  -2980612.60461
  20202376.379   -18717906.569 7 -14508136.04223
  22107559.0044   -4783256.93945  -3426681.21961
  21399976.723     1259594.575 5    988455.79521
 91  3 22  0 59 44.9960000  0  5G 2G15G 6G13G19
  19641248.2154  -12165912.02147  -9253296.03964
  22577652.1994   -4086944.00245  -3008600.10161
  20193947.098   -18762205.749 7 -14542655.30723
  22093408.8324   -4857610.16845  -3484619.03261
  21403289.863     1277013.871 5   1002028.72421
 91  3 22  0 59 59.9960000  0  5G 2G15G 6G13G19
  19637708.285   -12184509.505 7  -9267787.56324
  22570838.434    -4122757.793 5  -3036506.82021
  20185523.801   -18806467.841 7 -14577145.16823
  22079270.1374   -4931913.31945  -3542516.80561
  21406622.2854    1294499.33245   1015654.22061
 91  3 22  1  0 14.9960000  0  5G 2G15G 6G13G19
  19634178.9104  -12203057.35847  -9282240.40864
  22564043.3634   -4158465.44645  -3064330.87761
  20177109.129   -18850689.744 7 -14611603.71523
  22065139.3954   -5006162.89245  -3600373.35361
  21409959.426     1312053.961 5   1029333.10421
 91  3 22  1  0 29.9960000  0  5G 2G15G 6G13G19
  19630659.4654  -12221555.71047  -9296654.67764
  22557266.1604   -4194066.29245  -3092071.67861
  20168700.348   -18894870.882 7 -14646030.50023
  22051020.7464   -5080358.49145  -3658187.84661
  21413312.676     1329677.941 5   1043066.03221
 91  3 22  1  0 44.9960000  0  5G 2G15G 6G13G19
  19627149.707   -12239999.298 7  -9311026.28024
  22550514.387    -4229554.966 5  -3119725.09921
  20160301.926   -18939005.924 7 -14680421.37123
  22036912.5594   -5154494.50345  -3715955.91061
  21416678.926     1347376.326 5   1056856.93721
 91  3 22  1  0 59.9960000  0  5G 2G15G 6G13G19
  19623651.1214  -12258382.55747  -9325350.87164
  22543781.7934   -4264925.91445  -3147286.75761
  20151912.4734  -18983089.12347 -14714771.84162
  22022816.879    -5228565.093 5  -3773672.99221
  21420063.9964    1365154.65645   1070710.13661
 91  3 22  1  1 14.9960000  0  5G 2G15G 6G13G19
  19620164.684   -12276702.648 7  -9339626.24124
  22537075.027    -4300175.279 5  -3174753.68021
  20143535.7704  -19027117.28047 -14749079.42763
  22008733.6214   -5302566.79845  -3831336.39561
  21423462.145     1383015.823 5   1084627.88921
 91  3 22  1  1 29.9960000  0  5G 2G15G 6G13G19
  19616690.207   -12294961.166 7  -9353853.63424
  22530391.5044   -4335304.84345  -3202127.24861
  20135167.949   -19071091.744 7 -14783345.17123
  21994664.9344   -5376501.04445  -3888947.25861
  21426877.504     1400958.027 5   1098608.77321
 91  3 22  1  1 44.9960000  0  5G 2G15G 6G13G19
  19613225.895   -12313166.949 7  -9368039.93424
  22523727.4104   -4370322.77445  -3229413.84961
  20126807.426   -19115020.883 7 -14817575.59523
  21980606.973    -5450375.930 5  -3946511.84121
  21430305.0744    1418972.68045   1112646.13261
 91  3 22  1  1 59.9960000  0  5G 2G15G 6G13G19
  19609771.566   -12331319.437 7  -9382184.70724
  22517083.8564   -4405228.18445  -3256612.75161
  20118457.387   -19158903.818 7 -14851770.01523
  21966560.809    -5524190.583 5  -4004029.50521
  21433748.8014    1437060.41245   1126740.42461
 91  3 22  1  2 14.9950000  0  5G 2G15G 6G13G19
  19606328.6554  -12349411.64347  -9396282.50364
  22510462.5384   -4440012.70745  -3283717.46461
  20110116.827   -19202731.661 7 -14885921.50723
  21952527.796    -5597933.734 5  -4061491.45321
  21437204.5544    1455225.61845   1140895.07261
 91  3 22  1  2 29.9950000  0  5G 2G15G 6G13G19
  19602897.0774  -12367447.87047  -9410336.67664
  22503864.163    -4474682.688 5  -3310732.92921
  20101786.3194  -19246511.75147 -14920035.79563
  21938506.054    -5671616.783 5  -4118906.56121
  21440676.6164    1473469.03045   1155110.68261
 91  3 22  1  2 44.9950000  0  5G 2G15G 6G13G19
  19599473.273   -12385443.722 7  -9424359.39024
  22497287.398    -4509252.226 5  -3337670.12721
  20093461.2574  -19290257.70347 -14954123.47463
  21924494.6324   -5745251.14345  -4176283.71261
  21444158.249     1491772.570 5   1169373.13221
 91  3 22  1  2 59.9950000  0  5G 2G15G 6G13G19
  19596055.343   -12403398.938 7  -9438350.44224
  22490727.608    -4543720.478 5  -3364528.38421
  20085143.038   -19333968.921 7 -14988184.09223
  21910491.296    -5818836.145 5  -4233622.42421
  21447654.382     1510136.769 5   1183682.84221
 91  3 22  1  3 14.9950000  0  5G 2G15G 6G13G19
  19592650.304   -12421293.037 7  -9452293.87424
  22484191.780    -4578066.886 5  -3391291.71121
  20076835.952   -19377624.728 7 -15022201.52623
  21896501.0154   -5892351.08745  -4290906.55061
  21451162.202     1528581.957 5   1198055.67021
 91  3 22  1  3 29.9950000  0  5G 2G15G 6G13G19
  19589258.593   -12439112.654 7  -9466179.26924
  22477680.515    -4612277.745 5  -3417949.41821
  20068540.749   -19421211.444 7 -15056165.12723
  21882526.921    -5965782.182 5  -4348125.32421
  21454693.944     1547121.241 5   1212501.81821
 91  3 22  1  3 44.9950000  0  5G 2G15G 6G13G19
  19585882.483   -12456857.450 7  -9480006.35624
  22471200.749    -4646352.415 5  -3444501.00321
  20060259.421   -19464728.460 7 -15090074.41423
  21868569.749    -6039128.368 5  -4405277.96021
  21458237.069     1565754.989 5   1227021.57821
 91  3 22  1  3 59.9950000  0  5G 2G15G 6G13G19
  19582518.444   -12474537.881 7  -9493783.29124
  22464740.6944   -4680300.97445  -3470954.31861
  20051991.1014  -19508185.88147 -15123937.27263
  21854626.218    -6112399.624 5  -4462372.18221
  21461799.601     1584472.790 5   1241606.82721
 91  3 22  1  4 14.9950000  0  5G 2G15G 6G13G19
  19579164.7964  -12492156.97147  -9507512.42564
  22458303.1404   -4714125.90545  -3497311.30461
  20043732.2574  -19551586.35247 -15157755.75663
  21840697.1324   -6185598.56445  -4519410.06261
  21465374.999     1603271.574 5   1256255.18621
 91  3 22  1  4 29.9950000  0  5G 2G15G 6G13G19
  19575822.5934  -12509720.98247  -9521198.63964
  22451884.6874   -4747833.22845  -3523576.65761
  20035482.6714  -19594935.92547 -15191534.57863
  21826780.2964   -6258731.22445  -4576396.30161
  21468968.358     1622145.034 5   1270961.73121
 91  3 22  1  4 44.9950000  0  5G 2G15G 6G13G19
  19572490.3274  -12527229.66847  -9534841.74264
  22445497.2964   -4781422.63145  -3549750.09261
  20027242.429   -19638234.060 7 -15225273.31123
  21812876.3824   -6331796.94245  -4633330.37761
  21472573.538     1641093.565 5   1285726.77221
 91  3 22  1  4 59.9950000  0  5G 2G15G 6G13G19
  19569168.554   -12544691.822 7  -9548448.58824
  22439123.9054   -4814902.16745  -3575837.95161
  20019010.929   -19681489.204 7 -15258978.54423
  21798982.6484   -6404804.12745  -4690218.87261
  21476194.3354    1660108.46745   1300543.53861
 91  3 22  1  5 14.9950000  0  5G 2G15G 6G13G19
  19565855.374   -12562102.982 7  -9562015.69924
  22432775.6794   -4848267.13845  -3601836.50761
  20010790.3354  -19724696.51647 -15292646.50963
  21785100.226    -6477747.915 5  -4747057.91821
  21479824.788     1679194.146 5   1315415.45321
 91  3 22  1  5 29.9950000  0  5G 2G15G 6G13G19
  19562551.648   -12579462.211 7  -9575542.34924
  22426450.0074   -4881516.28845  -3627744.83361
  20002577.0694  -19767854.80247 -15326276.27563
  21771233.6794   -6550626.54946  -4803846.23961
  21483470.015     1698351.667 5   1330343.34721
 91  3 22  1  5 44.9950000  0  5G 2G15G 6G13G19
  19559258.319   -12596768.742 7  -9589027.93224
  22420143.054    -4914648.480 5  -3653562.01221
  19994373.6084  -19810962.97847 -15359866.99363
  21757377.249    -6623438.989 6  -4860582.97821
  21487128.038     1717581.530 5   1345327.61821
 91  3 22  1  5 59.9950000  0  5G 2G15G 6G13G19
  19555975.8984  -12614017.65047  -9602468.61264
  22413861.296    -4947658.715 5  -3679284.18221
  19986180.7884  -19854015.88647 -15393414.65563
  21743534.9604   -6696180.06446  -4917264.09361
  21490802.796     1736888.692 5   1360372.11421
 91  3 22  1  6 14.9950000  0  5G 2G15G 6G13G19
  19552702.085   -12631217.519 7  -9615871.08424
  22407599.429    -4980555.170 5  -3704917.66921
  19977996.7264  -19897021.65647 -15426925.58263
  21729705.390    -6768857.891 6  -4973895.90821
  21494489.640     1756264.815 5   1375470.35021
 91  3 22  1  6 29.9950000  0  5G 2G15G 6G13G19
  19549441.148   -12648357.073 7  -9629226.55624
  22401365.7964   -5013326.26845  -3730453.51061
  19969824.4054  -19939968.88347 -15460390.88863
  21715888.2734   -6841460.78346  -5030469.36761
  21498193.851     1775720.851 5   1390630.83621
 91  3 22  1  6 44.9950000  0  5G 2G15G 6G13G19
  19546190.5624  -12665440.49247  -9642538.28164
  22395152.6944   -5045976.09445  -3755894.82661
  19961661.5854  -19982861.40547 -15493813.56663
  21702085.546    -6913992.592 5  -5086987.41821
  21501910.468     1795252.761 5   1405850.46321
 91  3 22  1  6 59.9950000  0  5G 2G15G 6G13G19
  19542950.437   -12682468.574 8  -9655806.88624
  22388963.3194   -5078504.75646  -3781241.73661
  19953510.3434  -20025699.77347 -15527194.04463
  21688297.9294   -6986453.50746  -5143450.23661
  21505641.0694    1814859.75645   1421128.60161
 91  3 22  1  7 14.9950000  0  5G 2G15G 6G13G19
  19539720.007   -12699443.786 7  -9669034.30424
  22382794.8664   -5110914.17146  -3806495.73661
  19945367.4444  -20068485.90747 -15560533.82463
  21674521.827    -7058845.400 6  -5199859.26821
  21509385.812     1834539.482 5   1436463.41021
 91  3 22  1  7 29.9950000  0  5G 2G15G 6G13G19
  19536499.218   -12716364.313 7  -9682219.11124
  22376651.8904   -5143202.54346  -3831655.40761
  19937235.8124  -20111217.73047 -15593831.28863
  21660759.8044   -7131166.21846  -5256212.93561
  21513145.694     1854293.643 5   1451856.21421
 91  3 22  1  7 44.9950000  0  5G 2G15G 6G13G19
  19533293.1484  -12733216.31847  -9695350.51564
  22370531.038    -5175355.734 6  -3856709.74321
  19929117.4994  -20153881.33247 -15627075.58863
  21647011.8434   -7203401.69946  -5312500.07861
  21516919.5544    1874135.90945   1467317.67461
 91  3 22  1  7 59.9950000  0  5G 2G15G 6G13G19
  19530097.0854  -12750014.31947  -9708439.83964
  22364437.5464   -5207388.00946  -3881669.86461
  19921009.2494  -20196490.72647 -15660277.64363
  21633280.077    -7275565.869 6  -5368731.66821
  21520710.991     1894052.152 5   1482836.78621
 91  3 22  1  8 14.9950000  0  5G 2G15G 6G13G19
  19526910.4524  -12766751.93047  -9721482.10164
  22358362.398    -5239292.440 5  -3906530.36421
  19912913.2334  -20239039.05047 -15693432.11763
  21619563.569    -7347651.884 6  -5424902.36321
  21524515.694     1914048.597 5   1498418.38521
 91  3 22  1  8 29.9950000  0  5G 2G15G 6G13G19
  19523734.1484  -12783446.63947  -9734490.93764
  22352314.5774   -5271086.25845  -3931304.68261
  19904824.4054  -20281543.71647 -15726552.57463
  21605856.718    -7419676.999 6  -5481025.59921
  21528333.421     1934107.612 5   1514048.74021
 91  3 22  1  8 44.9950000  0  5G 2G15G 6G13G19
  19520567.429   -12800088.834 7  -9747458.85724
  22346282.4374   -5302759.46945  -3955985.02461
  19896746.7964  -20323994.69447 -15759631.19263
  21592165.3124   -7491630.98346  -5537093.40561
  21532164.093     1954238.882 5   1529735.40221
 91  3 22  1  8 59.9950000  0  5G 2G15G 6G13G19
  19517409.374   -12816682.287 7  -9760388.79724
  22340281.530    -5334315.591 5  -3980574.09921
  19888678.1794  -20366395.38847 -15792670.63463
  21578485.796    -7563517.248 6  -5593108.43621
  21536009.812     1974438.648 5   1545475.43121
 91  3 22  1  9 14.9950000  0  5G 2G15G 6G13G19
  19514262.812   -12833222.592 7  -9773277.32424
  22334297.2184   -5365750.05645  -4005068.40161
  19880619.273   -20408741.232 7 -15825667.34623
  21564818.663    -7635331.047 6  -5649066.99221
  21539864.952     1994711.252 5   1561272.21621
 91  3 22  1  9 29.9950000  0  5G 2G15G 6G13G19
  19511124.319   -12849709.665 7  -9786124.36724
  22328340.9604   -5397062.46145  -4029467.58261
  19872571.8124  -20451031.91147 -15858621.05863
  21551167.0234   -7707071.86146  -5704968.69661
  21543737.640     2015056.584 5   1577125.67021
 91  3 22  1  9 44.9950000  0  5G 2G15G 6G13G19
  19507996.710   -12866145.845 7  -9798931.75424
  22322403.9294   -5428254.92345  -4053773.31061
  19864534.3044  -20493269.49447 -15891533.39363
  21537527.4684   -7778741.66246  -5760815.05161
  21547621.640     2035472.263 5   1593033.93721
 91  3 22  1  9 59.9950000  0  5G 2G15G 6G13G19
  19504882.6324  -12882509.93947  -9811682.96964
  22316494.241    -5459306.009 5  -4077968.87321
  19856510.7104  -20535432.30147 -15924387.46263
  21523907.8664   -7850318.84046  -5816589.25761
  21551526.499     2055979.681 5   1609013.69321
 91  3 22  1 10 14.9950000  0  5G 2G15G 6G13G19
  19501778.4294  -12898823.09947  -9824394.49364
  22310610.7884   -5490236.75145  -4102070.64761
  19848497.8354  -20577541.30447 -15957199.60363
  21510300.335    -7921824.080 6  -5872307.38721
  21555439.866     2076557.585 5   1625048.37221
 91  3 22  1 10 29.9950000  0  5G 2G15G 6G13G19
  19498684.1014  -12915083.58547  -9837064.96964
  22304747.1244   -5521044.80845  -4126076.83961
  19840494.765   -20619594.515 7 -15989968.28023
  21496705.882    -7993255.215 6  -5927967.79221
  21559373.296     2097207.543 5   1641139.20721
 91  3 22  1 10 44.9950000  0  5G 2G15G 6G13G19
  19495601.202   -12931288.991 7  -9849692.53124
  22298910.5854   -5551727.23445  -4149985.13161
  19832503.5694  -20661588.98447 -16022691.18663
  21483128.390    -8064609.233 6  -5983568.09321
  21563312.546     2117932.261 5   1657288.29021
 91  3 22  1 10 59.9950000  0  5G 2G15G 6G13G19
  19492529.468   -12947430.415 7  -9862270.23824
  22293096.2574   -5582274.83445  -4173788.36661
  19824525.6794  -20703515.47547 -16055361.11963
  21469566.890    -8135877.043 6  -6039101.21621
  21567273.437     2138740.533 5   1673502.47821
 91  3 22  1 11 14.9950000  0  5G 2G15G 6G13G19
  19489467.7804  -12963516.74747  -9874805.01464
  22287306.710    -5612696.237 5  -4197493.27121
  19816558.3194  -20745382.73647 -16087984.89363
  21456020.515    -8207067.158 6  -6094573.80521
  21571248.2414    2159623.48645   1689774.85461
 91  3 22  1 11 29.9950000  0  5G 2G15G 6G13G19
  19486415.202   -12979555.473 7  -9887302.69824
  22281540.202    -5642998.856 5  -4221105.60621
  19808600.3904  -20787197.83247 -16120568.01763
  21442486.530    -8278186.361 6  -6149991.14521
  21575238.898     2180573.631 5   1706099.59221
 91  3 22  1 11 44.9950000  0  5G 2G15G 6G13G19
  19483374.843   -12995533.457 7  -9899753.05624
  22275799.1084   -5673169.12045  -4244614.81761
  19800655.9914  -20828947.17447 -16153099.90564
  21428968.8044   -8349221.21846  -6205342.73761
  21579236.4134    2201604.12745   1722486.93061
 91  3 22  1 11 59.9950000  0  5G 2G15G 6G13G19
  19480344.1014  -13011462.15047  -9912164.99764
  22270079.835    -5703218.356 5  -4268029.71621
  19792722.8354  -20870642.09647 -16185589.39263
  21415464.593    -8420182.886 6  -6260637.32621
  21583253.530     2222703.330 5   1738927.82021
 91  3 22  1 12 14.9950000  0  5G 2G15G 6G13G19
  19477325.023   -13027330.587 7  -9924529.98624
  22264386.5074   -5733135.23145  -4291341.47161
  19784800.2654  -20912271.32947 -16218027.69563
  21401977.538    -8491060.092 6  -6315866.09421
  21587282.0544    2243882.06945   1755430.68061
 91  3 22  1 12 29.9950000  0  5G 2G15G 6G13G19
  19474314.8354  -13043145.32247  -9936853.13064
  22258719.2024   -5762925.87246  -4314554.87761
  19776889.4604  -20953841.08047 -16250419.64763
  21388504.577    -8561858.917 6  -6371033.78921
  21591329.023     2265133.774 5   1771990.39121
 91  3 22  1 12 44.9950000  0  5G 2G15G 6G13G19
  19471314.288   -13058910.583 7  -9949137.72624
  22253072.851    -5792594.258 6  -4337673.01621
  19768989.2184  -20995355.38747 -16282768.39663
  21375044.905    -8632583.054 6  -6426143.29521
  21595382.257     2286454.288 5   1788603.72521
 91  3 22  1 12 59.9950000  0  5G 2G15G 6G13G19
  19468324.179   -13074627.213 7  -9961384.42724
  22247450.890    -5822141.181 6  -4360696.52021
  19761099.9054  -21036814.62847 -16315074.23263
  21361600.452    -8703232.962 6  -6481194.95321
  21599453.3514    2307842.91745   1805270.12961
 91  3 22  1 13 14.9950000  0  5G 2G15G 6G13G19
  19465346.569   -13090274.947 7  -9973577.44324
  22241855.8194   -5851545.97046  -4383609.24661
  19753225.3354  -21078198.14947 -16347321.07163
  21348174.3664   -8773787.89146  -6536172.59561
  21603540.921     2329319.952 5   1822005.42721
 91  3 22  1 13 29.9950000  0  5G 2G15G 6G13G19
  19462378.9374  -13105867.65647  -9985727.57764
  22236283.6794   -5880822.09346  -4406421.71761
  19745361.7654  -21119519.61047 -16379519.54963
  21334764.6404   -8844261.33746  -6591086.75661
  21607641.304     2350871.339 5   1838798.65821
 91  3 22  1 13 44.9950000  0  5G 2G15G 6G13G19
  19459422.976   -13121404.537 7  -9997834.21424
  22230739.0694   -5909968.51046  -4429133.12261
  19737511.0464  -21160777.96647 -16411668.85363
  21321368.882    -8914652.252 6  -6645936.61121
  21611756.796     2372497.871 5   1855650.45521
 91  3 22  1 13 59.9950000  0  5G 2G15G 6G13G19
  19456475.765   -13136889.107 7 -10009900.08824
  22225215.632    -5938988.495 6  -4451746.01021
  19729670.8124  -21201976.43447 -16443771.48463
  21307988.1634   -8984963.84046  -6700724.64261
  21615886.1714    2394195.76945   1872557.84961
 91  3 22  1 14 14.9950000  0  5G 2G15G 6G13G19
  19453536.5384  -13152333.23547 -10021934.44264
  22219714.0624   -5967893.62945  -4474269.39861
  19721840.0694  -21243126.47647 -16475836.38463
  21294621.2414   -9055207.37546  -6755459.64561
  21620026.312     2415953.399 5   1889511.79721
 91  3 22  1 14 29.9950000  0  5G 2G15G 6G13G19
  19450608.1404  -13167725.89047 -10033928.69264
  22214237.804    -5996672.350 5  -4496694.29921
  19714020.8274  -21284216.62447 -16507854.61563
  21281268.8274   -9125371.44446  -6810132.74461
  21624180.226     2437781.751 5   1906520.85321
 91  3 22  1 14 44.9950000  0  5G 2G15G 6G13G19
  19447691.0854  -13183051.80747 -10045870.93664
  22208788.4294   -6025309.36045  -4519008.76661
  19706215.968   -21325231.451 7 -16539814.16423
  21267936.827    -9195440.520 6  -6864731.81521
  21628350.702     2459696.072 5   1923596.88921
 91  3 22  1 14 59.9950000  0  5G 2G15G 6G13G19
  19444784.5074  -13198326.45147 -10057773.22264
  22203360.858    -6053820.376 5  -4541225.05921
  19698422.8354  -21366186.29847 -16571726.97663
  21254617.624    -9265429.640 6  -6919268.57421
  21632535.9914    2481680.56345   1940727.62861
 91  3 22  1 15 14.9950000  0  5G 2G15G 6G13G19
  19441886.5464  -13213554.41247 -10069639.13664
  22197960.0854   -6082209.30246  -4563346.21961
  19690640.2734  -21407085.22047 -16603596.20864
  21241313.7334   -9335342.94346  -6973746.28161
  21636727.757     2503730.863 5   1957909.62821
 91  3 22  1 15 29.9950000  0  5G 2G15G 6G13G19
  19438998.2024  -13228734.09847 -10081467.43364
  22192579.2734   -6110473.95245  -4585370.52761
  19682867.9294  -21447926.28747 -16635420.34564
  21228024.0774   -9405178.41346  -7028163.31761
  21640940.155     2525848.644 5   1975144.21021
 91  3 22  1 15 44.9950000  0  5G 2G15G 6G13G19
  19436119.577   -13243863.616 7 -10093256.64424
  22187227.218    -6138612.480 6  -4607296.58121
  19675108.3194  -21488707.27447 -16667197.66563
  21214749.827    -9474933.554 6  -7082517.76821
  21645160.023     2548035.700 5   1992432.77521
 91  3 22  1 15 59.9950000  0  5G 2G15G 6G13G19
  19433253.671   -13258924.040 7 -10104992.01724
  22181900.546    -6166605.611 5  -4629109.32721
  19667361.390   -21529409.003 7 -16698913.24523
  21201495.374    -9544589.104 6  -7136794.61621
  21649401.608     2570310.739 5   2009789.88821
 91  3 22  1 16 14.9950000  0  5G 2G15G 6G13G19
  19430398.1084  -13273926.34547 -10116682.09864
  22176598.413    -6194464.036 5  -4650817.11221
  19659629.6714  -21570042.23947 -16730575.44863
  21188257.4834   -9614155.75946  -7191002.21961
  21653653.7804    2592662.75745   2027206.99161
 91  3 22  1 16 29.9950000  0  5G 2G15G 6G13G19
  19427553.2414  -13288877.60647 -10128332.40064
  22171322.6484   -6222194.74346  -4672425.36361
  19651908.6874  -21610613.53647 -16762189.38763
  21175034.390    -9683640.170 6  -7245145.71821
  21657921.280     2615084.852 5   2044678.70021
 91  3 22  1 16 44.9950000  0  5G 2G15G 6G13G19
  19424715.5154  -13303790.78647 -10139953.02664
  22166066.858    -6249810.429 5  -4693943.99921
  19644197.640   -21651135.832 7 -16793765.12924
  21161824.140    -9753054.998 6  -7299235.00021
  21662197.7884    2637563.63145   2062194.57861
 91  3 22  1 16 59.9950000  0  5G 2G15G 6G13G19
  19421884.9684  -13318663.97647 -10151542.49864
  22160833.9054   -6277308.63245  -4715371.07861
  19636497.3514  -21691606.63647 -16825300.74764
  21148628.968    -9822397.690 6  -7353268.06921
  21666485.1794    2660101.21645   2079756.27461
 91  3 22  1 17 14.9950000  0  5G 2G15G 6G13G19
  19419064.663   -13333485.154 7 -10163091.44224
  22155626.2574   -6304677.12146  -4736697.08861
  19628807.2734  -21732013.84247 -16856786.82364
  21135450.132    -9891655.775 6  -7407235.21921
  21670787.132     2682709.490 5   2097373.05721
 91  3 22  1 17 29.9950000  0  5G 2G15G 6G13G19
  19416255.952   -13348245.623 7 -10174593.07824
  22150446.062    -6331906.948 6  -4757915.04621
  19621132.2414  -21772348.18547 -16888216.11764
  21122288.116    -9960820.226 6  -7461129.39721
  21675105.9374    2705397.29445   2115051.81061
 91  3 22  1 17 44.9950000  0  5G 2G15G 6G13G19
  19413454.890   -13362965.804 7 -10186063.32624
  22145283.523    -6359018.626 6  -4779040.95421
  19613466.9604  -21812629.85847 -16919604.36763
  21109139.8904  -10029911.21646  -7514966.35961
  21679433.7334    2728144.09445   2132776.52861
 91  3 22  1 17 59.9950000  0  5G 2G15G 6G13G19
  19410664.0074  -13377628.92847 -10197489.11264
  22140151.3044   -6385994.91846  -4800061.35361
  19605813.6244  -21852841.82747 -16950938.30764
  21096009.3274  -10098911.60846  -7568732.70961
  21683778.6634    2750966.57845   2150560.22061
 91  3 22  1 18 14.9950000  0  5G 2G15G 6G13G19
  19407883.4134  -13392241.24947 -10208875.30764
  22135041.624    -6412841.521 6  -4820980.70821
  19598173.773   -21892989.930 7 -16982222.47524
  21082895.319   -10167827.206 6  -7622432.98321
  21688130.8124    2773858.66345   2168398.15161
 91  3 22  1 18 29.9950000  0  5G 2G15G 6G13G19
  19405112.2734  -13406805.66347 -10220224.17364
  22129958.7574   -6439561.36046  -4841801.27461
  19590546.0154  -21933076.83947 -17013458.95464
  21069796.773   -10236660.674 6  -7676069.26021
  21692503.140     2796817.197 5   2186287.86321
 91  3 22  1 18 44.9950000  0  5G 2G15G 6G13G19
  19402349.3274  -13421327.96547 -10231540.22864
  22124895.327    -6466159.827 6  -4862527.27621
  19582928.1944  -21973108.01647 -17044652.01964
  21056712.5694  -10305417.14746  -7729645.54461
  21696881.8744    2819836.36045   2204224.81961
 91  3 22  1 18 59.9950000  0  5G 2G15G 6G13G19
  19399595.2264  -13435794.54647 -10242812.85764
  22119860.765    -6492623.197 6  -4883147.99921
  19575323.5694  -22013069.54047 -17075790.80164
  21043645.7734  -10374082.54946  -7783150.86561
  21701279.9214    2842929.60245   2222219.50261
 91  3 22  1 19 14.9950000  0  5G 2G15G 6G13G19
  19396852.4764  -13450210.76547 -10254046.24964
  22114849.296    -6518956.581 6  -4903667.43721
  19567732.5464  -22052966.41547 -17106879.20964
  21030593.9914  -10442662.01846  -7836589.23761
  21705685.163     2866091.762 5   2240267.89121
 91  3 22  1 19 29.9950000  0  5G 2G15G 6G13G19
  19394118.5544  -13464577.96347 -10265241.43864
  22109861.5624   -6545161.25146  -4924086.56861
  19560151.2884  -22092799.88647 -17137918.21364
  21017561.898   -10511156.680 6  -7889961.50821
  21710106.741     2889321.168 5   2258368.67321
 91  3 22  1 19 44.9950000  0  5G 2G15G 6G13G19
  19391395.046   -13478886.729 7 -10276391.09924
  22104902.733    -6571227.547 6  -4944397.89221
  19552585.0304  -22132560.13447 -17168900.16064
  21004544.0694  -10579556.68146  -7943260.04161
  21714540.898     2912627.338 5   2276529.27421
 91  3 22  1 19 59.9950000  0  5G 2G15G 6G13G19
  19388682.7334  -13493144.56447 -10287501.07264
  22099966.4684   -6597162.67246  -4964606.99361
  19545031.7104  -22172254.26747 -17199830.58664
  20991544.6484  -10647868.98546  -7996490.22361
  21718988.796     2936002.816 5   2294743.88021
 91  3 22  1 20 14.9950000  0  5G 2G15G 6G13G19
  19385978.077   -13507353.908 7 -10298573.26424
  22095055.257    -6622968.724 6  -4984715.53121
  19537490.6324  -22211884.26947 -17230711.04364
  20978562.538   -10716095.593 6  -8049653.64821
  21723448.952     2959445.106 5   2313010.54821
 91  3 22  1 20 29.9950000  0  5G 2G15G 6G13G19
  19383283.858   -13521515.026 7 -10309607.87824
  22090169.343    -6648645.516 6  -5004723.34021
  19529959.6874  -22251450.14947 -17261541.53664
  20965595.0074  -10784236.51646  -8102750.29461
  21727924.140     2982953.855 5   2331328.99421
 91  3 22  1 20 44.9950000  0  5G 2G15G 6G13G19
  19380597.562   -13535629.753 7 -10320606.34324
  22085307.9134   -6674194.85746  -5024631.82161
  19522443.7414  -22290953.56047 -17292323.34864
  20952644.7024  -10852293.39546  -8155781.44761
  21732408.8514    3006526.82545   2349697.49061
 91  3 22  1 20 59.9950000  0  5G 2G15G 6G13G19
  19377920.6084  -13549697.06347 -10331567.85664
  22080471.921    -6699615.600 6  -5044440.11521
  19514938.7334  -22330393.11847 -17323055.41064
  20939709.4444  -10920264.52346  -8208745.78761
  21736907.499     3030165.318 5   2368117.03721
 91  3 22  1 21 14.9950000  0  5G 2G15G 6G13G19
  19375254.632   -13563707.497 7 -10342485.05024
  22075657.577    -6724897.978 6  -5064140.57821
  19507447.3274  -22369759.10247 -17353730.14064
  20926793.327   -10988140.091 6  -8261635.66221
  21741421.874     3053878.471 5   2386594.77021
 91  3 22  1 21 29.9950000  0  5G 2G15G 6G13G19
  19372599.9294  -13577657.00347 -10353354.76364
  22070876.7654   -6750037.72646  -5083729.90161
  19499971.2884  -22409047.18947 -17384344.15763
  20913895.515   -11055915.844 6  -8314447.76321
  21745949.3124    3077670.55645   2405133.99861
 91  3 22  1 21 44.9950000  0  5G 2G15G 6G13G19
  19369957.319   -13591540.408 7 -10364172.97424
  22066121.265    -6775029.588 6  -5103203.99521
  19492510.7964  -22448251.82747 -17414893.16763
  20901018.398   -11123586.096 6  -8367177.65421
  21750490.312     3101546.649 5   2423738.70021
 91  3 22  1 21 59.9950000  0  5G 2G15G 6G13G19
  19367325.843   -13605373.412 7 -10374951.91224
  22061390.4684   -6799888.68246  -5122574.62061
  19485063.1324  -22487388.35947 -17445389.10864
  20888158.6634  -11191166.12246  -8419837.23261
  21755046.601     3125490.880 5   2442396.49421
 91  3 22  1 22 14.9950000  0  5G 2G15G 6G13G19
  19364703.843   -13619154.534 8 -10385690.42624
  22056681.687    -6824613.478 6  -5141840.62421
  19477629.4294  -22526454.88647 -17475830.50164
  20875314.804   -11258654.085 6  -8472425.08421
  21759616.952     3149505.001 5   2461108.74221
 91  3 22  1 22 29.9950000  0  5G 2G15G 6G13G19
  19362088.952   -13632887.774 7 -10396391.63224
  22052003.0304   -6849207.51746  -5161004.71861
  19470207.6714  -22565455.19947 -17506220.29264
  20862489.773   -11326053.764 6  -8524944.14321
  21764201.773     3173584.618 5   2479872.02121
 91  3 22  1 22 44.9950000  0  5G 2G15G 6G13G19
  19359486.179   -13646568.210 7 -10407051.68624
  22047349.2884   -6873666.03346  -5180063.22361
  19462799.1164  -22604384.01947 -17536554.37764
  20849681.1944  -11393359.48446  -8577389.98061
  21768796.327     3197734.772 5   2498690.29021
 91  3 22  1 22 59.9950000  0  5G 2G15G 6G13G19
  19356893.8824  -13660192.15147 -10417667.71664
  22042723.1634   -6897984.93946  -5199012.93261
  19455405.7184  -22643237.35647 -17566829.63864
  20836892.265   -11460567.238 6  -8629759.48221
  21773406.421     3221959.133 5   2517566.36321
 91  3 22  1 23 14.9950000  0  5G 2G15G 6G13G19
  19354309.452   -13673768.900 7 -10428246.97324
  22038118.640    -6922173.165 6  -5217860.81121
  19448024.6404  -22682024.24247 -17597053.12764
  20824119.726   -11527686.146 6  -8682059.76221
  21778024.624     3246248.220 5   2536492.87721
 91  3 22  1 23 29.9950000  0  5G 2G15G 6G13G19
  19351735.499   -13687296.825 7 -10438788.19024
  22033540.3904   -6946228.95046  -5236605.49761
  19440656.2804  -22720742.67847 -17627223.27964
  20811364.8824  -11594714.14146  -8734289.19461
  21782662.577     3270603.672 5   2555471.10621
 91  3 22  1 23 44.9950000  0  5G 2G15G 6G13G19
  19349172.273   -13700771.317 8 -10449287.76524
  22028989.491    -6970147.624 6  -5255243.33421
  19433302.726   -22759387.816 7 -17657336.32123
  20798628.0694  -11661646.31346  -8786443.96061
  21787311.8194    3295029.85745   2574504.46061
 91  3 22  1 23 59.9950000  0  5G 2G15G 6G13G19
  19346619.351   -13714190.097 8 -10459743.93624
  22024464.241    -6993926.629 6  -5273772.34821
  19425963.507   -22797957.139 7 -17687390.28724
  20785909.905   -11728480.087 6  -8838522.06421
  21791976.6404    3319529.01645   2593594.65861
 91  3 22  1 24 14.9950000  0  5G 2G15G 6G13G19
  19344073.7184  -13727559.68048 -10470161.76764
  22019965.515    -7017572.370 6  -5292197.51821
  19418636.546   -22836456.891 7 -17717390.03524
  20773208.8354  -11795221.63646  -8890528.29961
  21796645.9524    3344094.45645   2612736.52361
 91  3 22  1 24 29.9950000  0  5G 2G15G 6G13G19
  19341536.3274  -13740896.50847 -10480554.07364
  22015486.0624   -7041101.18646  -5310531.56861
  19411321.1484  -22874903.05047 -17747348.02564
  20760523.562   -11861886.808 6  -8942475.01721
  21801332.4054    3368709.84445   2631917.28561
 91  3 22  1 24 44.9950000  0  5G 2G15G 6G13G19
  19339008.1634  -13754181.93147 -10490906.32064
  22011035.577    -7064494.058 6  -5328759.68521
  19404019.101   -22913276.527 7 -17777249.38324
  20747854.593   -11928456.573 6  -8994347.39821
  21806027.7414    3393393.81945   2651151.51261
 91  3 22  1 24 59.9950000  0  5G 2G15G 6G13G19
  19336491.7574  -13767408.23747 -10501212.50364
  22006610.655    -7087742.975 6  -5346875.64721
  19396731.062   -22951569.414 7 -17807087.94223
  20735207.804   -11994922.882 6  -9046139.16721
  21810744.491     3418153.749 5   2670444.91321
 91  3 22  1 25 14.9950000  0  5G 2G15G 6G13G19
  19333983.726   -13780584.182 7 -10511479.44524
  22002212.6084   -7110856.43746  -5364886.06361
  19389458.085   -22989790.215 7 -17836870.33023
  20722576.2264  -12061294.28746  -9097856.96261
  21815463.0074    3442981.04745   2689790.80761
 91  3 22  1 25 29.9950000  0  5G 2G15G 6G13G19
  19331488.835   -13793702.087 7 -10521701.17124
  21997840.819    -7133826.757 6  -5382784.92621
  19382201.601   -23027930.898 7 -17866590.28823
  20709965.7104  -12127562.84346  -9149494.64761
  21820202.468     3467883.156 5   2709195.00221
 91  3 22  1 25 44.9940000  0  5G 2G15G 6G13G19
  19329001.900   -13806762.630 7 -10531878.19024
  21993499.174    -7156653.569 6  -5400571.97821
  19374958.674   -23065990.109 7 -17896246.76324
  20697375.0334  -12193725.05546  -9201049.44461
  21824955.510     3492857.056 5   2728655.13121
 91  3 22  1 25 59.9940000  0  5G 2G15G 6G13G19
  19326523.1904  -13819786.60647 -10542026.71964
  21989175.275    -7179358.531 6  -5418264.08221
  19367727.1904  -23103991.58547 -17925858.24564
  20684799.8694  -12259808.31046  -9252542.72361
  21829721.447     3517886.877 5   2748158.83221
 91  3 22  1 26 14.9940000  0  5G 2G15G 6G13G19
  19324055.9944  -13832758.81447 -10552134.89864
  21984882.705    -7201925.825 6  -5435848.90521
  19360509.6974  -23141918.07547 -17955411.29364
  20672243.713   -12325793.425 6  -9303959.52821
  21834496.330     3542985.343 5   2767716.02721
 91  3 22  1 26 29.9940000  0  5G 2G15G 6G13G19
  19321599.7294  -13845664.18947 -10562191.00764
  21980618.0254   -7224340.38446  -5453314.71061
  19353308.6504  -23179754.57147 -17984894.21963
  20659707.7364  -12391665.10946  -9355287.97061
  21839287.291     3568167.135 5   2787338.16421
 91  3 22  1 26 44.9940000  0  5G 2G15G 6G13G19
  19319155.3544  -13858505.19947 -10572196.95964
  21976380.2294   -7246604.40746  -5470663.21861
  19346126.541   -23217503.001 7 -18014308.52623
  20647194.424   -12457425.522 6  -9406529.67121
  21844095.260     3593430.015 5   2807023.48121
 91  3 22  1 26 59.9940000  0  5G 2G15G 6G13G19
  19316718.8464  -13871311.58447 -10582175.93364
  21972167.604    -7268747.523 6  -5487917.51521
  19338954.104   -23255192.826 7 -18043677.16524
  20634695.916   -12523104.236 6  -9457707.72621
  21848912.736     3618744.080 5   2826748.66921
 91  3 22  1 27 14.9940000  0  5G 2G15G 6G13G19
  19314292.6434  -13884061.16447 -10592110.64164
  21967979.5254   -7290747.29246  -5505060.11361
  19331797.197   -23292801.711 7 -18072982.73924
  20622217.697   -12588678.771 6  -9508804.60221
  21853741.822     3644131.249 5   2846530.83621
 91  3 22  1 27 29.9940000  0  5G 2G15G 6G13G19
  19311876.8074  -13896757.83547 -10602004.12164
  21963821.0804   -7312607.30046  -5522093.79761
  19324655.7214  -23330333.18847 -18102227.98864
  20609757.682   -12654152.464 6  -9559822.89821
  21858588.5964    3669587.59444   2866366.88761
 91  3 22  1 27 44.9940000  0  5G 2G15G 6G13G19
  19309466.1354  -13909424.31147 -10611874.07664
  21959683.463    -7334350.183 6  -5539036.23021
  19317524.1114  -23367809.54147 -18131430.28164
  20597314.111   -12719547.768 6  -9610780.11221
  21863439.713     3695090.306 5   2886239.07921
 91  3 22  1 27 59.9940000  0  5G 2G15G 6G13G19
  19307068.1824  -13922030.01247 -10621696.67164
  21955572.033    -7355945.288 6  -5555863.50721
  19310408.6664  -23405199.85947 -18160565.53364
  20584890.213   -12784833.575 6  -9661652.00621
  21868306.7914    3720669.96944   2906171.23161
 91  3 22  1 28 14.9940000  0  5G 2G15G 6G13G19
  19304676.533   -13934595.055 7 -10631487.58924
  21951487.5104   -7377412.46246  -5572591.11361
  19303305.5414  -23442523.80547 -18189649.06864
  20572483.674   -12850029.600 6  -9712453.93621
  21873184.861     3746306.449 4   2926147.66121
 91  3 22  1 28 29.9940000  0  5G 2G15G 6G13G19
  19302298.2994  -13947089.41547 -10641223.42564
  21947433.846    -7398721.113 6  -5589195.17521
  19296221.6904  -23479751.15947 -18218657.33763
  20560099.596   -12915105.373 6  -9763162.15821
  21878081.463     3772029.710 4   2946191.71721
 91  3 22  1 28 44.9940000  0  5G 2G15G 6G13G19
  19299931.4944  -13959529.14447 -10650916.69164
  21943405.432    -7419887.231 6  -5605688.18721
  19289152.9864  -23516897.83747 -18247602.74263
  20547735.924   -12980076.847 6  -9813789.12221
  21882986.721     3797823.548 4   2966290.76121
 91  3 22  1 28 59.9940000  0  5G 2G15G 6G13G19
  19297572.5254  -13971924.71747 -10660575.55064
  21939401.916    -7440921.308 6  -5622078.30121
  19282097.5574  -23553973.88147 -18276493.10763
  20535390.4244  -13044954.37446  -9864342.88861
  21887909.869     3823677.149 4   2986436.36621
 91  3 22  1 29 14.9940000  0  5G 2G15G 6G13G19
  19295222.7364  -13984272.21747 -10670196.94964
  21935427.0184   -7461819.21046  -5638362.30861
  19275055.9554  -23590975.03847 -18305325.11764
  20523062.635   -13109733.355 6  -9914819.85221
  21892840.080     3849594.623 4   3006631.75421
 91  3 22  1 29 29.9940000  0  5G 2G15G 6G13G19
  19292883.7524  -13996569.71547 -10679779.38664
  21931474.549    -7482579.089 6  -5654538.76721
  19268029.7364  -23627899.11647 -18334097.06464
  20510755.1974  -13174411.73146  -9965218.42161
  21897787.736     3875577.774 4   3026878.31121
 91  3 22  1 29 44.9940000  0  5G 2G15G 6G13G19
  19290552.9404  -14008812.40747 -10689319.12064
  21927552.5334   -7503196.02946  -5670603.84061
  19261019.2604  -23664741.09147 -18362805.04263
  20498467.5104  -13238984.35946 -10015534.59961
  21902741.6434    3901631.09644   3047179.54261
 91  3 22  1 29 59.9940000  0  5G 2G15G 6G13G19
  19288231.1114  -14021013.21147 -10698826.20764
  21923651.5334   -7523682.68046  -5686567.39761
  19254021.3464  -23701513.59247 -18391458.87364
  20486197.2294  -13303463.77746 -10065778.15261
  21907712.635     3927741.771 4   3067525.46821
 91  3 22  1 30 14.9940000  0  5G 2G15G 6G13G19
  19285918.2054  -14033169.41747 -10708298.54764
  21919778.2444   -7544035.85746  -5702426.94961
  19247037.619   -23738213.489 7 -18420056.13723
  20473944.3774  -13367846.71846 -10115946.52261
  21912692.182     3953912.527 5   3087918.20921
 91  3 22  1 30 29.9940000  0  5G 2G15G 6G13G19
  19283614.3774  -14045274.40447 -10717730.97564
  21915933.2754   -7564248.78946  -5718177.22561
  19240069.3154  -23774833.76147 -18448591.36363
  20461713.846   -13432126.360 6 -10166034.38721
  21917686.900     3980149.831 4   3108362.81421
 91  3 22  1 30 44.9940000  0  5G 2G15G 6G13G19
  19281321.4794  -14057321.34947 -10727118.17764
  21912117.7684   -7584314.64746  -5733812.89261
  19233117.2754  -23811367.28347 -18477058.98363
  20449501.908   -13496295.340 6 -10216036.02921
  21922689.111     4006460.381 4   3128864.49021
 91  3 22  1 30 59.9940000  0  5G 2G15G 6G13G19
  19279037.6194  -14069325.04147 -10736471.67464
  21908321.1114   -7604248.09745  -5749345.37861
  19226177.9004  -23847828.51947 -18505470.28163
  20437309.6274  -13560368.11746 -10265962.71861
  21927710.838     4032829.361 4   3149411.68921
 91  3 22  1 31 14.9940000  0  5G 2G15G 6G13G19
  19276760.361   -14081291.012 7 -10745795.78424
  21904553.065    -7624054.262 6  -5764778.68421
  19219252.6824  -23884222.79747 -18533829.39663
  20425133.447   -13624349.888 6 -10315818.47321
  21932738.354     4059251.210 5   3170000.09221
 91  3 22  1 31 29.9940000  0  5G 2G15G 6G13G19
  19274494.1824  -14093202.47247 -10755077.41664
  21900810.9084   -7643716.24746  -5780099.65461
  19212342.3544  -23920532.88347 -18562122.90363
  20412979.4944  -13688223.47246 -10365589.94561
  21937779.979     4085742.640 4   3190642.70921
 91  3 22  1 31 44.9940000  0  5G 2G15G 6G13G19
  19272240.0254  -14105048.00047 -10764307.66564
  21897099.846    -7663222.497 6  -5795299.24921
  19205450.8304  -23956747.33847 -18590341.90263
  20400847.510   -13751977.311 6 -10415268.10121
  21942833.025     4112314.638 5   3211348.11821
 91  3 22  1 31 59.9940000  0  5G 2G15G 6G13G19
  19269994.9554  -14116845.55547 -10773500.53564
  21893414.5884   -7682590.59446  -5810391.20761
  19198575.1044  -23992883.54847 -18618499.93463
  20388733.557   -13815629.028 6 -10464866.67621
  21947905.518     4138949.423 4   3232102.43721
 91  3 22  1 32 14.9940000  0  5G 2G15G 6G13G19
  19267756.979   -14128602.925 7 -10782662.09624
  21889753.3224   -7701828.61546  -5825381.81161
  19191712.5104  -24028949.14647 -18646602.93363
  20376640.4714  -13879186.12446 -10514391.54161
  21952980.6584    4165639.08744   3252899.52661
 91  3 22  1 32 29.9940000  0  5G 2G15G 6G13G19
  19265530.346   -14140303.426 7 -10791779.34524
  21886120.7604   -7720919.61046  -5840257.85261
  19184866.119   -24064927.156 7 -18674637.69523
  20364566.947   -13942631.302 6 -10563829.17721
  21958073.377     4192400.298 4   3273752.36921
 91  3 22  1 32 44.9940000  0  5G 2G15G 6G13G19
  19263313.525   -14151954.682 7 -10800858.21824
  21882513.7364   -7739871.03146  -5855025.12361
  19178034.6114  -24100824.80047 -18702609.83063
  20352512.8224  -14005972.04146 -10613185.44561
  21963178.549     4219225.135 4   3294654.78321
 91  3 22  1 32 59.9940000  0  5G 2G15G 6G13G19
  19261107.908   -14163547.355 7 -10809891.44924
  21878935.0884   -7758673.23346  -5869676.12861
  19171220.5104  -24136632.33647 -18730511.74863
  20340480.7684  -14069198.56846 -10662452.72161
  21968298.4794    4246122.97444   3315614.08261
 91  3 22  1 33 14.9940000  0  5G 2G15G 6G13G19
  19258913.0724  -14175079.61547 -10818877.59464
  21875389.1824   -7777324.44446  -5884209.46961
  19164423.690   -24172347.708 7 -18758341.85124
  20328471.658   -14132308.786 6 -10711629.36121
  21973429.440     4273095.548 5   3336631.63121
 91  3 22  1 33 29.9940000  0  5G 2G15G 6G13G19
  19256729.018   -14186558.836 7 -10827822.41624
  21871863.1744   -7795831.91246  -5898630.81861
  19157643.283   -24207977.961 7 -18786105.63124
  20316484.604   -14195309.784 6 -10760720.90221
  21978573.6274    4300135.35544   3357701.56261
 91  3 22  1 33 44.9940000  0  5G 2G15G 6G13G19
  19254554.1434  -14197985.75747 -10836726.48464
  21868372.4324   -7814196.07546  -5912940.48761
  19150878.9404  -24243523.60947 -18813803.47964
  20304515.6904  -14258201.90046 -10809727.59961
  21983734.6504    4327241.59844   3378823.26661
 91  3 22  1 33 59.9940000  0  5G 2G15G 6G13G19
  19252387.025   -14209374.491 7 -10845600.79724
  21864897.4324   -7832431.13746  -5927149.56361
  19144130.0334  -24278998.53547 -18841446.21963
  20292564.7134  -14320999.11546 -10858660.34461
  21988903.791     4354399.904 4   3399985.53521
 91  3 22  1 34 14.9940000  0  5G 2G15G 6G13G19
  19250231.869   -14220698.984 7 -10854425.05024
  21861460.1904   -7850510.92646  -5941237.65061
  19137396.619   -24314376.303 7 -18869013.26524
  20280638.5184  -14383675.02346 -10907498.56861
  21994084.268     4381636.255 4   3421208.61421
 91  3 22  1 34 29.9940000  0  5G 2G15G 6G13G19
  19248083.588   -14231986.554 7 -10863220.53324
  21858043.7914   -7868462.39446  -5955225.75061
  19130677.869   -24349684.005 7 -18896525.70524
  20268729.2834  -14446256.46746 -10956263.18261
  21999278.7914    4408923.14844   3442471.07261
 91  3 22  1 34 44.9940000  0  5G 2G15G 6G13G19
  19245943.471   -14243234.436 7 -10871985.09524
  21854651.5494   -7886282.57746  -5969111.54361
  19123973.7294  -24384918.27147 -18923980.92464
  20256838.2914  -14508740.16646 -11004951.63861
  22004480.869     4436263.467 4   3463775.15721
 91  3 22  1 34 59.9940000  0  5G 2G15G 6G13G19
  19243812.744   -14254434.493 8 -10880712.39224
  21851285.385    -7903963.100 6  -5982888.52121
  19117283.627   -24420070.868 7 -18951372.49923
  20244968.8614  -14571117.82846 -11053557.46261
  22009695.7914    4463665.15644   3485127.06061
 91  3 22  1 35 14.9940000  0  5G 2G15G 6G13G19
  19241691.8544  -14265577.59847 -10889395.30064
  21847952.7364   -7921494.85946  -5996549.56561
  19110611.299   -24455132.288 7 -18978693.03423
  20233120.5724  -14633379.89746 -11102073.20961
  22014920.697     4491137.279 4   3506533.86621
 91  3 22  1 35 29.9940000  0  5G 2G15G 6G13G19
  19239581.447   -14276669.850 7 -10898038.59124
  21844642.4634   -7938883.91246  -6010099.41861
  19103955.346   -24490108.456 7 -19005947.13823
  20221293.369   -14695532.162 6 -11150503.41121
  22020163.525     4518673.512 4   3527990.61821
 91  3 22  1 35 44.9940000  0  5G 2G15G 6G13G19
  19237485.143   -14287682.377 7 -10906619.75324
  21841368.3774   -7956101.21146  -6023515.42561
  19097321.455   -24524970.018 7 -19033111.94423
  20209491.5334  -14757545.59246 -11198825.42161
  22025420.244     4546302.786 4   3549519.87321
 91  3 22  1 35 59.9940000  0  5G 2G15G 6G13G19
  19235402.5724  -14298625.93147 -10915147.17464
  21838120.1274   -7973157.43846  -6036805.93561
  19090707.690   -24559727.627 7 -19060195.75024
  20197715.432   -14819430.644 6 -11247047.40121
  22030694.611     4574014.255 4   3571113.18421
 91  3 22  1 36 14.9940000  0  5G 2G15G 6G13G19
  19233327.838   -14309528.267 7 -10923642.47524
  21834899.643    -7990080.085 6  -6049992.36021
  19084108.322   -24594408.499 7 -19087219.75724
  20185958.190   -14881214.748 6 -11295190.71521
  22035976.736     4601779.902 4   3592748.68421
 91  3 22  1 36 29.9940000  0  5G 2G15G 6G13G19
  19231261.893   -14320387.017 7 -10932103.81324
  21831703.916    -8006866.567 6  -6063072.68221
  19077522.783   -24629010.214 7 -19114182.07623
  20174220.596   -14942895.158 6 -11343253.22921
  22041277.666     4629602.026 3   3614428.21921
 91  3 22  1 36 44.9940000  0  5G 2G15G 6G13G19
  19229205.322   -14331194.093 7 -10940524.88924
  21828536.6664   -8023508.71646  -6076040.52961
  19070956.361   -24663524.203 7 -19141076.03924
  20162503.963   -15004463.467 6 -11391228.39621
  22046579.361     4657488.687 4   3636158.03121
 91  3 22  1 36 59.9940000  0  5G 2G15G 6G13G19
  19227156.354   -14341959.408 7 -10948913.42224
  21825399.322    -8040016.388 6  -6088903.59521
  19064402.861   -24697960.186 7 -19167909.22524
  20150807.768   -15065929.453 6 -11439123.83921
  22051897.736     4685429.827 4   3657930.30021
 91  3 22  1 37 14.9940000  0  5G 2G15G 6G13G19
  19225119.065   -14352670.081 7 -10957259.37624
  21822285.2294   -8056377.00946  -6101652.07361
  19057867.018   -24732305.088 7 -19194671.43424
  20139133.705   -15127279.835 6 -11486929.18721
  22057226.221     4713437.880 4   3679754.69821
 91  3 22  1 37 29.9940000  0  5G 2G15G 6G13G19
  19223089.869   -14363333.227 7 -10965568.29824
  21819195.6904   -8072597.09746  -6114291.04061
  19051347.299   -24766565.439 7 -19221367.76523
  20127478.572   -15188521.268 6 -11534649.64621
  22062572.3934    4741506.08944   3701625.99361
 91  3 22  1 37 44.9940000  0  5G 2G15G 6G13G19
  19221071.213   -14373934.902 7 -10973829.31824
  21816142.9714   -8088662.73646  -6126809.65361
  19044846.729   -24800726.987 7 -19247987.10123
  20115848.2994  -15249639.37746 -11582274.00961
  22067920.135     4769648.249 3   3723554.88621
 91  3 22  1 37 59.9940000  0  5G 2G15G 6G13G19
  19219064.0574  -14384490.90747 -10982054.75364
  21813105.9794   -8104589.46746  -6139220.02561
  19038362.041   -24834805.349 7 -19274541.61824
  20104238.6974  -15310649.81246 -11629814.48161
  22073289.252     4797848.306 3   3745528.91321
 91  3 22  1 38 14.9940000  0  5G 2G15G 6G13G19
  19217061.869   -14395002.814 7 -10990245.82724
  21810106.0494   -8120378.87546  -6151523.39861
  19031892.104   -24868801.883 7 -19301032.37624
  20092648.9554  -15371553.89646 -11677272.06761
  22078664.9084    4826104.63043   3767546.76861
 91  3 22  1 38 29.9940000  0  5G 2G15G 6G13G19
  19215068.838   -14405480.997 7 -10998410.61524
  21807123.525    -8136041.213 6  -6163727.75721
  19025437.111   -24902726.581 7 -19327467.15524
  20081077.658   -15432361.610 6 -11724654.57121
  22084050.713     4854406.698 3   3789600.28021
 91  3 22  1 38 44.9940000  0  5G 2G15G 6G13G19
  19213083.502   -14415914.080 7 -11006540.27224
  21804169.6904   -8151565.14046  -6175824.27261
  19018997.143   -24936567.856 7 -19353836.93623
  20069526.2054  -15493061.38046 -11771952.96561
  22089448.690     4882765.661 3   3811698.11921
 91  3 22  1 38 59.9940000  0  5G 2G15G 6G13G19
  19211109.846   -14426285.518 7 -11014621.88524
  21801245.4164   -8166933.90346  -6187799.86461
  19012576.291   -24970308.791 7 -19380128.51924
  20057999.479   -15553636.238 6 -11819154.02821
  22094858.0964    4911197.93943   3833853.08561
 91  3 22  1 39 14.9940000  0  5G 2G15G 6G13G19
  19209143.5884  -14436613.61647 -11022669.72564
  21798348.8774   -8182165.78246  -6199668.80661
  19006170.322   -25003967.435 7 -19406355.98524
  20046492.666   -15614104.402 6 -11866271.94621
  22100280.041     4939685.137 3   3856050.85121
 91  3 22  1 39 29.9940000  0  5G 2G15G 6G13G19
  19207189.1904  -14446886.85147 -11030674.81464
  21795477.729    -8197248.992 5  -6211421.90221
  18999784.049   -25037531.769 7 -19432509.95823
  20035008.5184  -15674453.75946 -11913297.29361
  22105714.2294    4968238.80643   3878300.40661
 91  3 22  1 39 44.9940000  0  5G 2G15G 6G13G19
  19205244.1504  -14457107.17947 -11038638.67364
  21792635.9004   -8212185.25745  -6223060.48861
  18993413.752   -25071003.531 7 -19458591.80323
  20023547.1194  -15734686.09246 -11960231.45161
  22111157.8544    4996856.80843   3900600.10361
 91  3 22  1 39 59.9940000  0  5G 2G15G 6G13G19
  19203308.502   -14467281.123 7 -11046566.40024
  21789818.315    -8226980.966 5  -6234589.54921
  18987061.893   -25104388.922 7 -19484606.34323
  20012105.7134  -15794807.54246 -12007079.20361
  22116618.088     5025532.527 3   3922944.77221
 91  3 22  1 40 14.9940000  0  5G 2G15G 6G13G19
  19201381.705   -14477402.541 7 -11054453.19424
  21787031.6434   -8241630.22845  -6246004.50661
  18980726.174   -25137681.783 7 -19510548.78524
  20000687.752   -15854811.777 6 -12053835.62321
  22122084.471     5054271.676 3   3945338.87121
 91  3 22  1 40 29.9940000  0  5G 2G15G 6G13G19
  19199466.7214  -14487466.75947 -11062295.41664
  21784272.549    -8256128.410 5  -6257301.74121
  18974409.440   -25170877.064 7 -19536415.18624
  19989292.6274  -15914693.82446 -12100496.83061
  22127567.166     5083078.979 3   3967786.06621
 91  3 22  1 40 44.9940000  0  5G 2G15G 6G13G19
  19197560.5334  -14497486.02847 -11070102.60364
  21781538.283    -8270487.378 6  -6268490.48421
  18968108.2214  -25203986.57447 -19562214.74964
  19977918.6434  -15974465.56946 -12147072.08661
  22133058.3384    5111942.24143   3990276.87561
 91  3 22  1 40 59.9940000  0  5G 2G15G 6G13G19
  19195663.854   -14507459.087 7 -11077873.79924
  21778832.6584   -8284705.84846  -6279569.75461
  18961824.486   -25237008.810 7 -19587946.30724
  19966565.0334  -16034125.56246 -12193560.27361
  22138564.4404    5140862.52643   4012812.12661
 91  3 22  1 41 14.9940000  0  5G 2G15G 6G13G19
  19193775.9164  -14517375.59547 -11085600.92164
  21776157.6274   -8298773.11646  -6290531.20461
  18955559.322   -25269932.947 7 -19613601.42624
  19955235.8854  -16093662.89746 -12239952.87661
  22144078.0804    5169850.09443   4035399.78861
 91  3 22  1 41 29.9940000  0  5G 2G15G 6G13G19
  19191899.799   -14527232.945 7 -11093281.94924
  21773511.0724   -8312686.63246  -6301372.84861
  18949312.838   -25302756.128 7 -19639177.88424
  19943929.5254  -16153074.92746 -12286247.83661
  22149610.752     5198907.350 3   4058041.76121
 91  3 22  1 41 44.9940000  0  5G 2G15G 6G13G19
  19190031.4004  -14537053.42347 -11100934.24164
  21770883.7994   -8326468.74846  -6312112.09561
  18943082.033   -25335500.456 7 -19664692.89624
  19932643.8384  -16212383.56446 -12332462.23461
  22155146.4404    5228012.04643   4080720.70061
 91  3 22  1 41 59.9940000  0  5G 2G15G 6G13G19
  19188170.7364  -14546825.90147 -11108549.13164
  21768291.9944   -8340108.12146  -6322740.12561
  18936867.299   -25368154.654 7 -19690137.67124
  19921379.2054  -16271577.39547 -12378587.17761
  22160697.127     5257174.931 3   4103444.97621
 91  3 22  1 42 14.9940000  0  5G 2G15G 6G13G19
  19186324.650   -14556531.294 7 -11116111.74924
  21765722.158    -8353585.640 5  -6333242.03221
  18930675.346   -25400699.275 7 -19715497.06424
  19910139.9244  -16330637.07846 -12424607.58461
  22166260.9474    5286414.98243   4126229.38061
 91  3 22  1 42 29.9940000  0  5G 2G15G 6G13G19
  19184485.979   -14566189.976 7 -11123637.97124
  21763188.2684   -8366921.62045  -6343633.64161
  18924498.994   -25433154.308 7 -19740786.64424
  19898923.2214  -16389582.61546 -12470539.04061
  22171836.041     5315711.633 3   4149057.90521
 91  3 22  1 42 44.9940000  0  5G 2G15G 6G13G19
  19182657.8934  -14575797.05047 -11131123.97564
  21760677.7994   -8380110.86845  -6353910.91761
  18918341.830   -25465514.505 7 -19766002.33224
  19887728.4554  -16448408.79147 -12516377.50461
  22177424.885     5345069.954 3   4171934.47821
 91  3 22  1 42 59.9940000  0  5G 2G15G 6G13G19
  19180838.2444  -14585363.53047 -11138578.34464
  21758191.4004   -8393164.62846  -6364082.61661
  18912199.900   -25497790.595 7 -19791152.48724
  19876555.7444  -16507126.35147 -12562131.32061
  22183017.385     5374478.696 3   4194850.34421
 91  3 22  1 43 14.9940000  0  5G 2G15G 6G13G19
  19179025.8464  -14594886.01147 -11145998.43664
  21755733.8464   -8406079.13746  -6374145.81361
  18906073.455   -25529978.921 7 -19816234.25123
  19865403.1904  -16565731.60947 -12607797.63861
  22188626.2214    5403941.00443   4217807.92861
 91  3 22  1 43 29.9940000  0  5G 2G15G 6G13G19
  19177220.502   -14604372.678 7 -11153390.61824
  21753305.1044   -8418862.73946  -6384106.99361
  18899964.127   -25562087.380 7 -19841253.78224
  19854270.1664  -16624232.60346 -12653382.69961
  22194240.549     5433448.731 3   4240800.94021
 91  3 22  1 43 44.9940000  0  5G 2G15G 6G13G19
  19175424.666   -14613812.180 7 -11160746.04924
  21750897.6824   -8431504.11646  -6393957.35861
  18893870.307   -25594104.342 7 -19866202.01624
  19843159.9244  -16682617.59247 -12698877.37461
  22199864.854     5463013.078 3   4263838.03721
 91  3 22  1 43 59.9940000  0  5G 2G15G 6G13G19
  19173635.229   -14623213.451 7 -11168071.69724
  21748519.2134   -8444012.02046  -6403703.71461
  18887794.572   -25626038.376 7 -19891085.62824
  19832070.1584  -16740895.32046 -12744288.47161
  22205500.307     5492624.683 3   4286912.01521
 91  3 22  1 44 14.9940000  0  5G 2G15G 6G13G19
  19171853.385   -14632579.394 7 -11175369.81224
  21746161.502    -8456389.333 6  -6413348.33321
  18881733.682   -25657892.249 7 -19915906.78224
  19821000.2684  -16799068.38646 -12789618.01461
  22211143.1434    5522280.62543   4310020.46161
 91  3 22  1 44 29.9940000  0  5G 2G15G 6G13G19
  19170081.494   -14641893.275 7 -11182627.35324
  21743835.9794   -8468619.46346  -6422878.24261
  18875689.682   -25689648.923 7 -19940652.19624
  19809953.3224  -16857119.61946 -12834852.61461
  22216800.5104    5551997.48643   4333176.44461
 91  3 22  1 44 44.9940000  0  5G 2G15G 6G13G19
  19168314.775   -14651174.783 7 -11189859.67824
  21741530.127    -8480721.705 6  -6432308.50221
  18869661.182   -25721327.736 7 -19965336.93824
  19798925.658   -16915068.617 6 -12880007.56021
  22222462.393     5581755.536 3   4356364.48521
 91  3 22  1 44 59.9940000  0  5G 2G15G 6G13G19
  19166559.6664  -14660394.71747 -11197044.01264
  21739259.8304   -8492666.67346  -6441616.21961
  18863652.611   -25752899.135 7 -19989937.97824
  19787923.9004  -16972885.80846 -12925059.79161
  22228136.580     5611583.865 3   4379607.29621
 91  3 22  1 45 14.9940000  0  5G 2G15G 6G13G19
  19164817.213   -14669547.756 7 -11204176.22724
  21737019.5804   -8504448.98746  -6450797.18061
  18857667.791   -25784357.488 7 -20014450.93224
  19776947.1114  -17030565.63346 -12970004.99361
  22233826.1974    5641487.75943   4402908.97661
 91  3 22  1 45 29.9940000  0  5G 2G15G 6G13G19
  19163085.799   -14678652.389 7 -11211270.71924
  21734800.5184   -8516087.12446  -6459865.79461
  18851698.861   -25815721.138 7 -20038890.09924
  19765993.4404  -17088126.40446 -13014857.42161
  22239530.815     5671448.371 3   4426254.88521
 91  3 22  1 45 44.9940000  0  5G 2G15G 6G13G19
  19161361.002   -14687710.494 7 -11218328.96324
  21732615.049    -8527583.194 6  -6468823.72921
  18845748.221   -25846991.636 7 -20063256.67424
  19755062.5024  -17145569.50546 -13059618.16461
  22245242.018     5701463.581 4   4449643.31221
 91  3 22  1 45 59.9940000  0  5G 2G15G 6G13G19
  19159651.861   -14696693.157 7 -11225328.42324
  21730459.955    -8538907.973 6  -6477648.17121
  18839820.682   -25878139.831 7 -20087527.95124
  19744159.7914  -17202866.16946 -13104264.79761
  22250972.650     5731562.261 4   4473096.79621
 91  3 22  1 46 14.9940000  0  5G 2G15G 6G13G19
  19157951.986   -14705627.651 7 -11232290.34424
  21728332.0254   -8550088.89546  -6486360.51961
  18833910.549   -25909192.710 7 -20111724.95924
  19733278.4634  -17260043.14646 -13148818.16461
  22256709.1194    5761717.21544   4496594.11061
 91  3 22  1 46 29.9940000  0  5G 2G15G 6G13G19
  19156259.900   -14714521.728 7 -11239220.77424
  21726228.408    -8561133.606 6  -6494966.72421
  18828018.596   -25940157.780 7 -20135853.53824
  19722419.4164  -17317107.98446 -13193284.15861
  22262455.900     5791920.318 3   4520128.95121
 91  3 22  1 46 44.9940000  0  5G 2G15G 6G13G19
  19154573.650   -14723377.598 7 -11246121.42724
  21724155.885    -8572044.203 6  -6503468.42921
  18822143.049   -25971036.796 7 -20159915.06924
  19711581.2604  -17374062.49646 -13237664.18361
  22268212.424     5822169.172 4   4543699.44421
 91  3 22  1 46 59.9940000  0  5G 2G15G 6G13G19
  19152896.971   -14732192.049 7 -11252989.80924
  21722105.2834   -8582817.69745  -6511863.30161
  18816283.213   -26001826.463 7 -20183906.97624
  19700764.354   -17430903.322 6 -13281955.61821
  22273974.4084    5852466.78643   4567307.95661
 91  3 22  1 47 14.9940000  0  5G 2G15G 6G13G19
  19151226.604   -14740973.423 7 -11259832.41924
  21720075.291    -8593462.241 5  -6520157.70421
  18810439.6504  -26032534.70147 -20207835.43664
  19689968.424   -17487638.472 6 -13326164.71321
  22279749.6504    5882804.85843   4590947.96261
 91  3 22  1 47 29.9940000  0  5G 2G15G 6G13G19
  19149565.650   -14749699.491 7 -11266631.93324
  21718078.5184   -8603955.43745  -6528334.16361
  18804616.4794  -26063138.98147 -20231682.88764
  19679196.244   -17544245.605 7 -13370274.05021
  22285537.0574    5913205.34243   4614636.59161
 91  3 22  1 47 44.9940000  0  5G 2G15G 6G13G19
  19147915.291   -14758373.360 7 -11273390.77224
  21716111.6114   -8614300.30045  -6536395.04261
  18798812.025   -26093642.029 7 -20255451.45224
  19668448.0884  -17600727.38747 -13414285.71661
  22291331.2604    5943665.21843   4638371.49361
 91  3 22  1 47 59.9940000  0  5G 2G15G 6G13G19
  19146273.682   -14766996.455 7 -11280110.04924
  21714170.143    -8624498.280 5  -6544341.46421
  18793026.2364  -26124045.10547 -20279142.12464
  19657722.9004  -17657085.17047 -13458200.74961
  22297139.3544    5974182.87543   4662151.44261
 91  3 22  1 48 14.9940000  0  5G 2G15G 6G13G19
  19144641.385   -14775576.830 7 -11286796.03724
  21712255.9794   -8634557.52745  -6552179.78261
  18787257.604   -26154356.018 7 -20302760.97524
  19647020.885   -17713326.536 7 -13502025.07921
  22302957.572     6004749.993 4   4685969.93621
 91  3 22  1 48 29.9940000  0  5G 2G15G 6G13G19
  19143015.744   -14784118.595 7 -11293451.94324
  21710365.815    -8644481.817 5  -6559912.94321
  18781506.6434  -26184578.54647 -20326310.95764
  19636340.2754  -17769455.40046 -13545761.74461
  22308781.471     6035362.550 3   4709823.82321
 91  3 22  1 48 44.9940000  0  5G 2G15G 6G13G19
  19141399.541   -14792610.811 7 -11300069.23724
  21708505.4404   -8654260.08645  -6567532.31261
  18775774.4714  -26214701.35647 -20349783.23864
  19625682.5964  -17825460.54547 -13589402.00261
  22314614.6114    6066031.25243   4733721.46161
 91  3 22  1 48 59.9940000  0  5G 2G15G 6G13G19
  19139789.463   -14801070.446 7 -11306661.13524
  21706672.4084   -8663909.53445  -6575051.30761
  18770057.8074  -26244741.30947 -20373190.95764
  19615045.494   -17881358.521 7 -13632958.75021
  22320464.0804    6096738.78543   4757649.35661
 91  3 22  1 49 14.9940000  0  5G 2G15G 6G13G19
  19138188.268   -14809487.812 7 -11313220.11024
  21704864.0884   -8673420.55545  -6582462.44261
  18764359.0964  -26274688.27647 -20396526.21664
  19604430.900   -17937139.533 6 -13676424.36321
  22326313.0654    6127494.87443   4781615.08861
 91  3 22  1 49 29.9940000  0  5G 2G15G 6G13G19
  19136598.572   -14817847.983 7 -11319734.51324
  21703079.557    -8682778.063 5  -6589753.95821
  18758680.8384  -26304527.10247 -20419777.21364
  19593840.143   -17992788.482 6 -13719787.07021
  22332176.5334    6158314.10743   4805630.04861
 91  3 22  1 49 44.9940000  0  5G 2G15G 6G13G19
  19135013.260   -14826166.271 7 -11326216.27424
  21701330.7754   -8691997.35745  -6596937.75861
  18753020.3224  -26334272.96047 -20442955.76364
  19583273.5024  -18048320.51746 -13763058.67161
  22338051.025     6189180.962 3   4829682.09021
 91  3 22  1 49 59.9940000  0  5G 2G15G 6G13G19
  19133442.479   -14834426.325 7 -11332652.65824
  21699600.354    -8701061.859 5  -6604000.96921
  18747381.6434  -26363909.16147 -20466048.87064
  19572731.721   -18103718.982 7 -13806226.19421
  22343939.7214    6220111.76643   4853783.95861
 91  3 22  1 50 14.9940000  0  5G 2G15G 6G13G19
  19131880.604   -14842628.937 7 -11339044.29224
  21697907.4004   -8709972.74445  -6610944.47161
  18741762.7364  -26393436.19947 -20489056.91764
  19562214.135   -18158984.376 7 -13849290.03021
  22349835.9554    6251105.49143   4877934.85561
 91  3 22  1 50 29.9940000  0  4G 2G15G 6G13
  19130326.135   -14850807.420 7 -11345417.11624
  21696233.1664   -8718763.13445  -6617794.06261
  18736158.2444  -26422887.09347 -20512005.62164
  19551717.2604  -18214149.60747 -13892275.81261
 91  3 22  1 50 44.9930000  0  4G 2G15G 6G13
  19128775.567   -14858949.276 7 -11351761.39425
  21694587.732    -8727420.296 5  -6624539.84721
  18730570.239   -26452247.635 7 -20534883.92424
  19541240.591   -18269198.948 7 -13935171.28821
 91  3 22  1 50 59.9930000  0  4G 2G15G 6G13
  19127232.974   -14867051.144 7 -11358074.52124
  21692967.5914   -8735941.24045  -6631179.50561
  18725000.864   -26481517.122 7 -20557691.27024
  19530786.622   -18324135.419 7 -13977978.81921
 91  3 22  1 51 14.9930000  0  5G 2G15G 6G13G19
  19125702.661   -14875097.190 7 -11364344.15324
  21691369.2084   -8744310.02445  -6637700.59861
  18719452.380   -26510677.962 7 -20580413.96024
  19520358.122   -18378939.522 7 -14020683.20721
  22373502.255          -0.67113
 91  3 22  1 51 29.9930000  0  4G 2G15G 6G13
  19124180.896   -14883093.851 7 -11370575.30224
  21689805.0524   -8752532.97245  -6644108.03561
  18713921.2714  -26539736.38547 -20603056.85564
  19509952.7394  -18433617.51847 -14063289.32361
 91  3 22  1 51 44.9930000  0  5G 2G15G 6G13G19
  19122667.646   -14891049.365 7
  21688265.4194   -8760618.36045
  18708410.341   -26568700.379 7 -20625626.15824
  19499569.974   -18488177.471 7 -14105803.46921
  22385390.575          -0.32612
 91  3 22  1 51 59.9930000  0  5G 2G15G 6G13G19
  19121159.521   -14898973.576 7
  21686750.3104   -8768576.17145
  18702914.982   -26597579.539 7 -20648129.35824
  19489208.849   -18542628.888 7 -14148233.03921
  22391355.427       31305.818 2
 91  3 22  1 52 14.9930000  0  5G 2G15G 6G13G19
  19119660.185   -14906859.025 7 -11389093.55824
  21685261.6614   -8776398.92445  -6662704.75261
  18697436.146   -26626365.941 7 -20670560.27624
  19478870.232   -18596964.149 7 -14190572.10121
  22397317.607       62655.250 2
 91  3 22  1 52 29.9930000  0  5G 2G15G 6G13G19
  19118167.021   -14914696.307 7 -11395200.51024
  21683803.232    -8784076.828 5  -6668687.49921
  18691978.130   -26655049.967 7 -20692911.42124
  19468553.107   -18651173.508 7 -14232813.05521
  22403294.7714      94056.83742        -0.42571
 91  3 22  1 52 44.9930000  0  5G 2G15G 6G13G19
  19116684.083   -14922486.923 7 -11401271.10424
  21682370.2634   -8791611.64745  -6674558.73261
  18686538.794   -26683632.947 7 -20715183.82924
  19458261.6694  -18705258.36647 -14274957.00161
  22409275.497      125508.855 2     24507.57521
 91  3 22  1 52 59.9930000  0  4G 2G15G 6G13
  19115212.232   -14930218.494 7 -11407295.68124
  21680969.825    -8798990.784 5  -6680308.65821
  18681122.013   -26712102.085 7 -20737367.52724
  19447995.489   -18759205.749 7 -14316993.81821
 91  3 22  1 53 14.9930000  0  4G 2G15G 6G13
  19113751.247   -14937903.216 7 -11413283.75224
  21679589.364    -8806226.562 6  -6685946.89221
  18675723.0214  -26740469.37147 -20759471.86664
  19437753.794   -18813027.777 7 -14358932.96021
 91  3 22  1 53 29.9930000  0  4G 2G15G 6G13
  19112297.591   -14945542.308 7 -11419236.26924
  21678236.396    -8813320.286 5  -6691474.41321
  18670344.810   -26768735.846 7 -20781497.64924
  19427535.0214  -18866725.51547 -14400775.26261
 91  3 22  1 53 44.9930000  0  4G 2G15G 6G13
  19110852.607   -14953131.113 7 -11425149.60524
  21676921.4664   -8820267.38045  -6696887.70161
  18664985.442   -26796896.539 7 -20803441.00124
  19417340.466   -18920294.131 7 -14442516.93521
 91  3 22  1 53 59.9930000  0  4G 2G15G 6G13
  19109416.107   -14960684.249 7 -11431035.13924
  21675617.474    -8827082.590 5  -6702198.20921
  18659643.325   -26824965.729 7 -20825313.05424
  19407169.4034  -18973747.82747 -14484169.06761
 91  3 22  1 54 14.9930000  0  4G 2G15G 6G13
  19107986.755   -14968192.069 7 -11436885.36724
  21674352.114    -8833755.952 5  -6707398.18721
  18654322.849   -26852933.474 7 -20847106.06024
  19397020.833   -19027076.792 7 -14525724.00321
 91  3 22  1 54 29.9930000  0  4G 2G15G 6G13
  19106564.161   -14975669.529 7 -11442711.93924
  21673102.607    -8840302.527 5  -6712499.37321
  18649016.677   -26880814.467 7 -20868831.46424
  19386893.8644  -19080295.85247 -14567193.30161
 91  3 22  1 54 44.9930000  0  4G 2G15G 6G13
  19105150.036   -14983104.330 7 -11448505.26924
  21671882.997    -8846710.068 5  -6717492.21721
  18643730.138   -26908596.268 7 -20890479.57324
  19376789.763   -19133392.680 7 -14608567.35021
 91  3 22  1 54 59.9930000  0  4G 2G15G 6G13
  19103743.9274  -14990493.67147 -11454263.17064
  21670695.5604   -8852975.70145  -6722374.49161
  18638461.755   -26936275.780 7 -20912047.97324
  19366708.6224  -19186364.03047 -14649843.62861
 91  3 22  1 55 14.9930000  0  4G 2G15G 6G13
  19102343.5604  -14997847.58547 -11459993.46464
  21669528.5994   -8859109.58445  -6727154.10861
  18633212.325   -26963862.821 7 -20933544.32123
  19356651.974   -19239219.911 7 -14691029.93021
 91  3 22  1 55 29.9930000  0  4G 2G15G 6G13
  19100951.442   -15005168.474 7 -11465698.02924
  21668381.825    -8865113.940 5  -6731832.78221
  18627980.888   -26991359.355 7 -20954970.14924
  19346613.185   -19291962.469 7 -14732127.92222
 91  3 22  1 55 44.9930000  0  4G 2G15G 6G13
  19099569.3254  -15012430.14847 -11471356.45264
  21667267.8104   -8870962.91345  -6736390.36761
  18622770.114   -27018739.103 7 -20976304.97124
  19336604.1464  -19344565.38447 -14773117.10662
 91  3 22  1 55 59.9930000  0  4G 2G15G 6G13
  19098192.8174  -15019665.51847 -11476994.37264
  21666177.607    -8876689.374 5  -6740852.51721
  18617576.325   -27046034.513 7 -20997574.07324
  19326613.583   -19397061.199 7 -14814022.83922
 91  3 22  1 56 14.9930000  0  4G 2G15G 6G13
  19096826.505   -15026843.771 7 -11482587.79224
  21665116.8494   -8882262.25245  -6745194.97661
  18612403.763   -27073214.700 7 -21018753.39224
  19316651.2864  -19449418.96447 -14854820.99962
 91  3 22  1 56 29.9930000  0  4G 2G15G 6G13
  19095467.802   -15033979.792 7 -11488148.30624
  21664085.974    -8887696.695 5  -6749429.56221
  18607250.560   -27100294.110 7 -21039854.18424
  19306711.6614  -19501652.94447 -14895522.70661
 91  3 22  1 56 44.9930000  0  4G 2G15G 6G13
  19094118.435   -15041071.201 7 -11493674.05124
  21663081.458    -8892990.417 5  -6753554.49721
  18602116.942   -27127270.396 7 -21060874.62124
  19296796.2164  -19553760.95347 -14936126.25361
 91  3 22  1 56 59.9930000  0  4G 2G15G 6G13
  19092779.2084  -15048113.48447 -11499161.51664
  21662098.669    -8898138.717 5  -6757566.09921
  18597004.036   -27154138.666 7 -21081810.88824
  19286904.1774  -19605738.29047 -14976627.97561
 91  3 22  1 57 14.9930000  0  4G 2G15G 6G13
  19091449.6774  -15055100.96947 -11504606.28464
  21661144.9034   -8903135.99545  -6761460.05061
  18591912.700   -27180892.811 7 -21102658.22424
  19277039.3804  -19657579.01247 -15017023.24662
 91  3 22  1 57 29.9930000  0  4G 2G15G 6G13
  19090124.333   -15062057.947 7 -11510027.27824
  21660220.8174   -8908006.58045  -6765255.26461
  18586839.036   -27207557.159 7 -21123435.59924
  19267195.349   -19709307.314 7 -15057330.91422
 91  3 22  1 57 44.9930000  0  4G 2G15G 6G13
  19088806.817   -15068983.832 7 -11515424.04824
  21659316.185    -8912750.093 5  -6768951.47621
  18581783.036   -27234130.618 7 -21144142.14624
  19257372.8104  -19760922.25747 -15097550.25662
 91  3 22  1 57 59.9930000  0  4G 2G15G 6G13
  19087498.169   -15075863.119 7 -11520784.50424
  21658442.599    -8917351.044 5  -6772536.58821
  18576745.067   -27260597.518 7 -21164765.66224
  19247575.9584  -19812408.32547 -15137669.17362
 91  3 22  1 58 14.9930000  0  4G 2G15G 6G13
  19086197.1304  -15082696.43347 -11526109.13764
  21657594.482    -8921810.137 5  -6776011.14821
  18571728.982   -27286958.399 7 -21185306.56224
  19237802.4504  -19863765.85747 -15177687.92662
 91  3 22  1 58 29.9930000  0  4G 2G15G 6G13
  19084904.6464  -15089488.13247 -11531401.34264
  21656773.177    -8926131.603 5  -6779378.48921
  18566732.919   -27313217.148 7 -21205767.87524
  19228053.3644  -19914998.82547 -15217609.63162
 91  3 22  1 58 44.9930000  0  4G 2G15G 6G13
  19083622.1144  -15096231.64547 -11536655.99765
  21655975.169    -8930309.200 5  -6782633.70021
  18561756.044   -27339367.019 7 -21226144.35724
  19218329.6924  -19966100.58147 -15257429.08262
 91  3 22  1 58 59.9930000  0  4G 2G15G 6G13
  19082345.247   -15102937.486 7 -11541881.30124
  21655207.3414   -8934353.33645  -6785784.93861
  18556799.583   -27365418.228 7 -21246443.95423
  19208626.8964  -20017081.43347 -15297154.33362
 91  3 22  1 59 14.9930000  0  4G 2G15G 6G13
  19081078.3104  -15109599.11247 -11547072.15164
  21654462.708    -8938257.672 5  -6788827.25621
  18551861.200   -27391363.980 7 -21266661.37723
  19198949.6694  -20067934.92447 -15336780.33262
 91  3 22  1 59 29.9930000  0  4G 2G15G 6G13
  19079818.1534  -15116213.55247 -11552226.22965
  21653748.9894   -8942018.88545  -6791758.03161
  18546944.849   -27417201.086 7 -21286794.13924
  19189298.6534  -20118657.66147 -15376304.44962
 91  3 22  1 59 44.9930000  0  4G 2G15G 6G13
  19078569.286   -15122785.543 7 -11557347.23625
  21653058.8334   -8945641.61945  -6794580.89361
  18542047.638   -27442933.913 7 -21306845.63923
  19179669.9894  -20169254.06447 -15415730.12562
 91  3 22  1 59 59.9930000  0  4G 2G15G 6G13
  19077323.755   -15129324.877 7 -11562442.80025
  21652393.2784   -8949136.20345  -6797303.91061
  18537169.982   -27468572.210 7 -21326823.48423
  19170063.9034  -20219734.09447 -15455065.11362
 91  3 22  2  0 14.9930000  0  4G 2G15G 6G13
  19076086.4354  -15135827.27747 -11567509.57864
  21651753.9584   -8952498.05145  -6799923.48861
  18532309.138   -27494111.374 7 -21346724.08923
  19160481.1304  -20270092.93947 -15494305.67762
 91  3 22  2  0 29.9930000  0  4G 2G15G 6G13
  19074858.802   -15142283.609 7 -11572540.46324
  21651143.8724   -8955718.14245  -6802432.61461
  18527469.841   -27519541.894 7 -21366540.03223
  19150922.3334  -20320321.50747 -15533444.72062
 91  3 22  2  0 44.9930000  0  4G 2G15G 6G13
  19073637.224   -15148697.782 7 -11577538.50324
  21650557.5604   -8958800.76345  -6804834.62061
  18522651.286   -27544867.733 7 -21386274.40824
  19141387.5054  -20370423.54047 -15572485.17062
 91  3 22  2  0 59.9930000  0  4G 2G15G 6G13
  19072426.317   -15155063.405 7 -11582498.70525
  21649995.317    -8961739.433 5  -6807124.43521
  18517853.466   -27570082.184 7 -21405921.98123
  19131879.8804  -20420392.49847 -15611421.92462
 91  3 22  2  1 14.9930000  0  4G 2G15G 6G13
  19071224.4664  -15161378.71647 -11587419.69464
  21649462.107    -8964532.486 5  -6809300.77921
  18513075.927   -27595183.127 7 -21425481.11124
  19122396.3804  -20470226.46647 -15650253.49062
 91  3 22  2  1 29.9930000  0  4G 2G15G 6G13
  19070029.8414  -15167659.60947 -11592313.87164
  21648957.1694   -8967195.84945  -6811376.09261
  18508317.692   -27620186.180 7 -21444963.96523
  19112935.1224  -20519941.08747 -15688992.06862
 91  3 22  2  1 44.9930000  0  4G 2G15G 6G13
  19068845.5214  -15173886.79147 -11597166.18964
  21648477.4744   -8969710.12945  -6813335.22561
  18503581.067   -27645071.762 7 -21464355.28123
  19103501.661   -20569516.768 7 -15727622.36822
 91  3 22  2  1 59.9930000  0  4G 2G15G 6G13
  19067668.247   -15180067.811 7 -11601982.54824
  21648030.013    -8972083.117 5  -6815184.25221
  18498867.833   -27669847.371 7 -21483660.91223
  19094092.5674  -20618961.09447 -15766150.32062
 91  3 22  2  2 14.9930000  0  4G 2G15G 6G13
  19066498.497   -15186214.124 7 -11606771.85624
  21647598.8804   -8974326.30045  -6816932.15061
  18494171.974   -27694524.041 7 -21502889.44023
  19084706.2004  -20668285.17547 -15804584.57762
 91  3 22  2  2 29.9930000  0  4G 2G15G 6G13
  19065337.7084  -15192312.37047 -11611523.70564
  21647202.497    -8976426.338 5  -6818568.50221
  18489497.3574  -27719088.20547 -21522030.30763
  19075346.0754  -20717475.32147 -15842914.47362
 91  3 22  2  2 44.9930000  0  4G 2G15G 6G13
  19064186.044   -15198369.189 7 -11616243.27825
  21646824.1924   -8978389.97345  -6820098.57961
  18484843.396   -27743546.210 7 -21541088.45023
  19066009.7944  -20766538.06647 -15881145.09062
 91  3 22  2  2 59.9930000  0  4G 2G15G 6G13
  19063041.091   -15204385.843 7 -11620931.54425
  21646477.5364   -8980218.65645  -6821523.49061
  18480208.028   -27767899.154 7 -21560064.72923
  19056696.7784  -20815474.56247 -15919277.33362
 91  3 22  2  3 14.9930000  0  4G 2G15G 6G13
  19061903.7164  -15210360.29147 -11625586.94265
  21646158.536    -8981910.533 5  -6822841.79821
  18475593.911   -27792144.918 7 -21578957.48623
  19047409.7714  -20864282.87147 -15957309.69462
 91  3 22  2  3 29.9930000  0  4G 2G15G 6G13
  19060775.161   -15216291.189 7 -11630208.39625
  21645863.3494   -8983464.16645  -6824052.39661
  18471001.357   -27816281.807 7 -21597765.41223
  19038146.3104  -20912961.38447 -15995240.91162
 91  3 22  2  3 44.9930000  0  4G 2G15G 6G13
  19059654.216   -15222178.013 7 -11634795.51125
  21645593.8334   -8984879.20545  -6825154.98661
  18466430.872   -27840309.100 7 -21616487.93523
  19028908.2474  -20961509.41147 -16033070.46062
 91  3 22  2  3 59.9930000  0  4G 2G15G 6G13
  19058541.974   -15228020.467 7 -11639348.05025
  21645349.6924   -8986155.21245  -6826149.24961
  18461878.8804  -27864226.25547 -21635124.63963
  19019693.849   -21009926.531 7 -16070797.99322
 91  3 22  2  4 14.9930000  0  4G 2G15G 6G13
  19057434.857   -15233845.225 7 -11643886.79925
  21645131.1464   -8987318.95545  -6827056.02061
  18457342.7164  -27888059.70547 -21653696.12763
  19010501.4354  -21058238.97347 -16108443.96962
 91  3 22  2  4 29.9930000  0  4G 2G15G 6G13
  19056331.161   -15239637.306 7 -11648400.08525
  21644931.5994   -8988355.80545  -6827863.92061
  18452826.138   -27911794.135 7 -21672190.44523
  19001329.3494  -21106431.98047 -16145996.87562
 91  3 22  2  4 44.9930000  0  4G 2G15G 6G13
  19055239.1074  -15245381.64947 -11652876.16665
  21644759.966    -8989250.435 5  -6828561.00621
  18448331.6304  -27935414.32947 -21690595.75563
  18992184.6694  -21154490.27547 -16183444.80862
 91  3 22  2  4 59.9930000  0  4G 2G15G 6G13
  19054152.099   -15251095.174 7 -11657328.23824
  21644613.497    -8990020.128 5  -6829160.75121
  18443854.5444  -27958937.01247 -21708925.07763
  18983062.2004  -21202430.45347 -16220800.70362
 91  3 22  2  5 14.9930000  0  4G 2G15G 6G13
  19053072.138   -15256768.637 7 -11661749.09325
  21644489.3494   -8990655.57545  -6829655.85961
  18439399.7714  -27982352.52347 -21727170.89463
  18973963.4894  -21250243.02447 -16258057.16462
 91  3 22  2  5 29.9930000  0  4G 2G15G 6G13
  19051998.4354  -15262406.53447 -11666142.23464
  21644398.114    -8991161.122 5  -6830049.75021
  18434963.0604  -28005665.24847 -21745336.61563
  18964888.286   -21297932.449 7 -16295217.67222
 91  3 22  2  5 44.9930000  0  4G 2G15G 6G13
  19050936.9424  -15267989.99847 -11670492.96064
  21644328.5994   -8991518.45545  -6830328.15261
  18430549.3414  -28028856.12547 -21763407.39163
  18955839.880   -21345479.829 7 -16332267.49221
 91  3 22  2  5 59.9930000  0  4G 2G15G 6G13
  19049881.3644  -15273529.78547 -11674809.64865
  21644282.8804   -8991738.46045
  18426158.6304  -28051935.74847 -21781391.47163
  18946816.4894  -21392895.80847 -16369214.91862
 91  3 22  2  6 14.9930000  0  4G 2G15G 6G13
  19048839.9034  -15279014.19847 -11679083.18664
  21644271.2084   -8991809.52545
  18421787.716   -28074892.080 7 -21799279.48423
  18937820.2864  -21440168.46247 -16406050.66461
 91  3 22  2  6 29.9930000  0  4G 2G15G 6G13
  19047804.169   -15284451.109 7 -11683319.71424
  21644287.6144   -8991739.60645
  18417443.2324  -28097733.03447 -21817077.59163
  18928851.3494  -21487305.73947 -16442780.92162
 91  3 22  2  6 44.9930000  0  4G 2G15G 6G13
  19046774.677   -15289857.434 7 -11687532.40824
  21644320.7474   -8991545.63245
  18413116.2394  -28120475.08147 -21834798.62763
  18919904.6144  -21534324.03547 -16479418.47061
 91  3 22  2  6 59.9930000  0  4G 2G15G 6G13
  19045751.3494  -15295232.49747 -11691720.74164
  21644382.4824   -8991226.98645
  18408807.1224  -28143117.33047 -21852441.90763
  18910979.1854  -21581222.83847 -16515962.91161
 91  3 22  2  7 14.9930000  0  4G 2G15G 6G13
  19044739.3174  -15300559.81647 -11695871.86964
  21644471.9974   -8990767.15845  -6829742.53161
  18404519.5364  -28165643.07747 -21869994.40563
  18902080.302   -21627985.498 7 -16552401.25721
 91  3 22  2  7 29.9930000  0  4G 2G15G 6G13
  19043730.950   -15305857.286 7 -11699999.74724
  21644584.099    -8990184.193 5  -6829288.24821
  18400250.9824  -28188069.88047 -21887469.80063
  18893203.9664  -21674629.45647 -16588747.11662
 91  3 22  2  7 44.9930000  0  4G 2G15G 6G13
  19042729.6384  -15311115.71547 -11704097.19464
  21644716.1304   -8989469.02645  -6828730.94861
  18396004.8024  -28210388.35047 -21904860.77363
  18884353.185   -21721145.505 7 -16624993.30522
 91  3 22  2  7 59.9930000  0  4G 2G15G 6G13
  19041736.4114  -15316339.13747 -11708167.36264
  21644874.489    -8988625.972 5  -6828074.01221
  18391776.6074  -28232602.53047 -21922170.48663
  18875525.2164  -21767537.92547 -16661143.15562
 91  3 22  2  8 14.9930000  0  4G 2G15G 6G13
  19040753.575   -15321510.300 7 -11712196.81624
  21645062.4664   -8987637.59845  -6827303.83161
  18387574.1614  -28254694.67647 -21939385.10963
  18866723.3024  -21813788.82347 -16697182.73162
 91  3 22  2  8 29.9930000  0  4G 2G15G 6G13
  19039778.083   -15326626.526 7 -11716183.46124
  21645280.575    -8986501.715 5  -6826418.68721
  18383393.3254  -28276662.09747 -21956502.54663
  18857948.755   -21859895.864 7 -16733110.21922
 91  3 22  2  8 44.9930000  0  4G 2G15G 6G13
  19038811.5444  -15331704.35047 -11720140.17964
  21645523.560    -8985234.726 5  -6825431.40521
  18379233.0994  -28298520.97047 -21973535.39763
  18849199.708   -21905875.298 7 -16768938.26622
 91  3 22  2  8 59.9930000  0  4G 2G15G 6G13
  19037850.060   -15336758.684 7 -11724078.59624
  21645789.8174   -8983852.00545  -6824353.93261
  18375092.380   -28320286.315 7 -21990495.36623
  18840471.036   -21951742.046 7 -16804678.50522
 91  3 22  2  9 14.9930000  0  4G 2G15G 6G13
  19036895.4274  -15341776.60247 -11727988.63864
  21646074.349    -8982340.592 5  -6823176.16521
  18370970.1774  -28341944.79547 -22007372.06763
  18831766.911   -21997482.889 7 -16840320.63922
 91  3 22  2  9 29.9930000  0  4G 2G15G 6G13
  19035949.333   -15346747.427 7 -11731861.97924
  21646386.6694   -8980689.64845  -6821889.67761
  18366872.2784  -28363485.41547 -22024156.93063
  18823089.6854  -22043086.92547 -16875856.16562
 91  3 22  2  9 44.9930000  0  4G 2G15G 6G13
  19035010.091   -15351686.356 7 -11735710.47724
  21646727.2864   -8978914.58745  -6820506.50061
  18362791.5054  -28384923.23847 -22040861.69363
  18814433.052   -22088569.415 7 -16911296.98422
 91  3 22  2  9 59.9930000  0  4G 2G15G 6G13
  19034077.5284  -15356584.32347 -11739527.04664
  21647090.2164   -8977006.54445  -6819019.67361
  18358734.1854  -28406248.89547 -22057479.05563
  18805803.638   -22133921.067 7 -16946635.85222
 91  3 22  2 10 14.9930000  0  4G 2G15G 6G13
  19033152.7554  -15361443.40747 -11743313.31765
  21647476.341    -8974967.468 5  -6817430.76221
  18354697.2164  -28427464.27947 -22074010.48663
  18797198.177   -22179143.541 7 -16981874.06122
 91  3 22  2 10 29.9930000  0  4G 2G15G 6G13
  19032237.138   -15366260.798 7 -11747067.10624
  21647891.5674   -8972795.23545  -6815738.07561
  18350680.8964  -28448566.48947 -22090453.73163
  18788617.638   -22224234.160 7 -17017009.52422
 91  3 22  2 10 44.9930000  0  4G 2G15G 6G13
  19031326.567   -15371033.756 7 -11750786.27124
  21648330.5674   -8970486.92345  -6813939.36761
  18346687.9424  -28469552.51547 -22106806.43963
  18780062.536   -22269190.188 7 -17052040.11922
 91  3 22  2 10 59.9930000  0  4G 2G15G 6G13
  19030425.489   -15375780.091 7 -11754484.68924
  21648787.6074   -8968060.35745  -6812048.50561
  18342712.4424  -28490439.85647 -22123082.25663
  18771529.833   -22314029.194 7 -17086979.52222
 91  3 22  2 11 14.9930000  0  4G 2G15G 6G13
  19029531.4034  -15380473.52847 -11758141.88464
  21649281.3024   -8965489.78745  -6810045.45261
  18338762.2324  -28511202.23147 -22139260.69763
  18763024.536   -22358724.938 7 -17121807.29522
 91  3 22  2 11 29.9930000  0  4G 2G15G 6G13
  19028644.9354  -15385130.89747 -11761770.97464
  21649794.114    -8962791.960 5  -6807943.22721
  18334832.2474  -28531856.18447 -22155354.65463
  18754542.685   -22403294.062 7 -17156536.40122
 91  3 22  2 11 44.9930000  0  4G 2G15G 6G13
  19027765.232   -15389756.123 7 -11765375.02124
  21650330.6384   -8959970.82845  -6805744.91561
  18330920.6774  -28552405.47347 -22171367.05263
  18746085.802   -22447740.447 7 -17191169.86922
 91  3 22  2 11 59.9930000  0  4G 2G15G 6G13
  19026889.927   -15394350.715 7 -11768955.20424
  21650890.685    -8957028.203 5  -6803451.92121
  18327030.8494  -28572851.47047 -22187298.96263
  18737649.685   -22492065.509 7 -17225708.79822
 91  3 22  2 12 14.9930000  0  4G 2G15G 6G13
  19026023.8414  -15398903.77747 -11772503.00864
  21651475.614    -8953953.318 5  -6801055.89821
  18323161.5054  -28593183.10147 -22203141.75063
  18729240.474   -22536258.518 7 -17260144.83022
 91  3 22  2 12 29.9930000  0  4G 2G15G 6G13
  19025167.724   -15403408.729 7 -11776013.33924
  21652089.4974   -8950739.60245  -6798551.66761
  18319315.1384  -28613393.52247 -22218890.09863
  18720857.192   -22580312.549 7 -17294472.56322
 91  3 22  2 12 44.9930000  0  4G 2G15G 6G13
  19024315.278   -15407881.140 7 -11779498.31824
  21652721.7944   -8947402.85345  -6795951.57161
  18315489.1774  -28633497.87947 -22234555.78863
  18712497.388   -22624242.923 7 -17328703.94422
 91  3 22  2 12 59.9930000  0  4G 2G15G 6G13
  19023472.614   -15412311.135 7 -11782950.23724
  21653382.263    -8943933.185 5  -6793247.92521
  18311686.5604  -28653486.25647 -22250131.11263
  18704163.357   -22668039.809 7 -17362831.31122
 91  3 22  2 13 14.9930000  0  4G 2G15G 6G13
  19022640.5284  -15416685.29847 -11786358.64764
  21654071.0994   -8940317.52245  -6790430.49361
  18307906.7394  -28673344.99047 -22265605.41563
  18695856.911   -22711689.522 7 -17396843.99522
 91  3 22  2 13 29.9930000  0  4G 2G15G 6G13
  19021815.122   -15421025.250 7 -11789740.40224
  21654780.427    -8936577.470 5  -6787516.14621
  18304148.2324  -28693095.48947 -22280995.37363
  18687574.528   -22755213.370 7 -17430758.60422
 91  3 22  2 13 44.9930000  0  4G 2G15G 6G13
  19020997.091   -15425325.692 7 -11793091.37524
  21655517.7864   -8932708.12045  -6784501.04161
  18300410.5364  -28712732.43847 -22296296.85563
  18679316.927   -22798606.422 7 -17464571.29622
 91  3 22  2 13 59.9930000  0  4G 2G15G 6G13
  19020186.778   -15429580.742 7 -11796406.97724
  21656282.130    -8928703.671 5  -6781380.67121
  18296696.9584  -28732249.71847 -22311505.08963
  18671084.825   -22841862.556 7 -17498277.29822
 91  3 22  2 14 14.9930000  0  4G 2G15G 6G13
  19019381.810   -15433810.476 7 -11799702.84924
  21657062.544    -8924584.399 5  -6778170.83221
  18293002.614   -28751667.210 7 -22326635.56023
  18662876.122   -22885002.032 7 -17531892.40022
 91  3 22  2 14 29.9930000  0  4G 2G15G 6G13
  19018583.708   -15438006.990 7 -11802972.83724
  21657872.599    -8920342.629 5  -6774865.51421
  18289327.3644  -28770976.68647 -22341681.86363
  18654690.497   -22928016.635 7 -17565410.18722
 91  3 22  2 14 44.9930000  0  4G 2G15G 6G13
  19017792.560   -15442156.619 7 -11806206.29324
  21658703.841    -8915964.601 5  -6771454.04621
  18285677.146   -28790164.340 7 -22356633.24323
  18646531.771   -22970892.651 7 -17598819.99422
 91  3 22  2 14 59.9930000  0  4G 2G15G 6G13
  19017012.255   -15446258.238 7 -11809402.33624
  21659562.700    -8911449.381 5  -6767935.67621
  18282049.5834  -28809228.87847 -22371488.68863
  18638399.778   -23013629.084 7 -17632121.03522
 91  3 22  2 15 14.9930000  0  4G 2G15G 6G13
  19016238.286   -15450326.496 7 -11812572.37824
  21660445.841    -8906811.738 5  -6764321.90721
  18278441.1304  -28828184.76547 -22386259.47063
  18630290.013   -23056240.115 7 -17665324.36322
 91  3 22  2 15 29.9930000  0  4G 2G15G 6G13
  19015471.9504  -15454352.49947 -11815709.49864
  21661353.1304   -8902043.07045  -6760606.03561
  18274856.8024  -28847023.03747 -22400938.60663
  18622206.919   -23098716.996 7 -17698423.15322
 91  3 22  2 15 44.9930000  0  4G 2G15G 6G13
  19014712.989   -15458341.620 7 -11818817.88024
  21662284.599    -8897148.939 5  -6756792.41021
  18271293.1614  -28865748.71247 -22415530.00363
  18614148.489   -23141064.915 7 -17731421.45722
 91  3 22  2 15 59.9920000  0  4G 2G15G 6G13
  19013962.711   -15462281.253 7 -11821887.70224
  21663244.414    -8892117.368 5  -6752871.69021
  18267754.0164  -28884348.15547 -22430023.03263
  18606117.258   -23183268.607 7 -17764307.37522
 91  3 22  2 16 14.9920000  0  4G 2G15G 6G13
  19013219.0784  -15466191.61047 -11824934.70464
  21664223.8054   -8886967.47045  -6748858.76061
  18264234.7344  -28902843.25747 -22444434.76563
  18598108.320   -23225353.465 7 -17797100.69322
 91  3 22  2 16 29.9920000  0  4G 2G15G 6G13
  19012482.3204  -15470063.25247 -11827951.54164
  21665226.8284   -8881690.72145  -6744746.98261
  18260736.8914  -28921223.41147 -22458756.92663
  18590125.719   -23267307.333 7 -17829791.94422
 91  3 22  2 16 44.9920000  0  4G 2G15G 6G13
  19011754.719   -15473888.718 7 -11830932.39724
  21666257.180    -8876279.822 5  -6740530.67321
  18257262.109   -28939480.928 7 -22472983.52023
  18582168.125   -23309122.625 7 -17862375.20922
 91  3 22  2 16 59.9920000  0  4G 2G15G 6G13
  19011031.9694  -15477685.00647 -11833890.51764
  21667307.0634   -8870752.02845  -6736223.27761
  18253807.8444  -28957632.73947 -22487127.75263
  18574233.992   -23350816.302 7 -17894863.71822
 91  3 22  2 17 14.9920000  0  4G 2G15G 6G13
  19010316.1254  -15481444.87247 -11836820.25064
  21668384.172    -8865100.310 5  -6731819.31821
  18250375.586   -28975671.545 7 -22501183.91823
  18566324.641   -23392381.100 7 -17927251.79022
 91  3 22  2 17 29.9920000  0  4G 2G15G 6G13
  19009610.852   -15485155.638 7 -11839711.73324
  21669485.7664   -8859311.88545  -6727308.83561
  18246966.7504  -28993584.37147 -22515141.92263
  18558442.016   -23433804.380 7 -17959529.59822
 91  3 22  2 17 44.9920000  0  4G 2G15G 6G13
  19008912.9064  -15488823.67747 -11842569.92064
  21670611.008    -8853393.443 5  -6722697.03221
  18243580.8994  -29011377.49847 -22529006.65463
  18550585.570   -23475092.377 7 -17991701.98522
 91  3 22  2 17 59.9920000  0  4G 2G15G 6G13
  19008219.9384  -15492460.34147 -11845403.65364
  21671759.742    -8847356.673 5  -6717993.03421
  18240215.3754  -29029061.90647 -22542786.67263
  18542751.617   -23516256.239 7 -18023777.64722
 91  3 22  2 18 14.9920000  0  4G 2G15G 6G13
  19007533.5394  -15496067.61547 -11848214.48264
  21672933.180    -8841203.735 5  -6713198.51621
  18236871.6024  -29046639.55447 -22556483.50663
  18534941.727   -23557298.007 7 -18055758.17422
 91  3 22  2 18 29.9920000  0  4G 2G15G 6G13
  19006854.3594  -15499640.65147 -11850998.63764
  21674124.633    -8834929.566 5  -6708309.53421
  18233546.8054  -29064105.20847 -22570093.06863
  18527155.422   -23598212.655 7 -18087639.64522
 91  3 22  2 18 44.9920000  0  4G 2G15G 6G13
  19006185.3524  -15503152.85947 -11853735.39464
  21675346.899    -8828508.174 5  -6703305.83121
  18230249.6564  -29081432.25447 -22583594.62563
  18519398.242   -23638973.636 7 -18119401.38022
 91  3 22  2 18 59.9920000  0  4G 2G15G 6G13
  19005522.4774  -15506636.83047 -11856450.13764
  21676589.297    -8821971.858 5  -6698212.58421
  18226972.5164  -29098653.26447 -22597013.55763
  18511665.1884  -23679613.75547 -18151068.93562
 91  3 22  2 19 14.9920000  0  4G 2G15G 6G13
  19004870.6174  -15510065.19947 -11859121.56364
  21677859.524    -8815293.944 5  -6693008.98621
  18223720.5704  -29115740.66047 -22610328.36863
  18503959.305   -23720105.328 7 -18182620.73922
 91  3 22  2 19 29.9920000  0  4G 2G15G 6G13
  19004226.0554  -15513455.51947 -11861763.33964
  21679155.008    -8808492.113 5  -6687708.85021
  18220491.9924  -29132711.68647 -22623552.50363
  18496279.883   -23760465.804 7 -18214070.38722
 91  3 22  2 19 44.9920000  0  4G 2G15G 6G13
  19003589.4384  -15516797.25847 -11864367.26364
  21680476.274    -8801555.876 5  -6682303.96921
  18217286.2114  -29149555.71947 -22636677.68763
  18488626.984   -23800684.661 7 -18245409.68622
 91  3 22  2 19 59.9920000  0  4G 2G15G 6G13
  19002961.7974  -15520089.81647 -11866932.86064
  21681822.3054   -8794485.08845  -6676794.23761
  18214105.1334  -29166271.81147 -22649703.17863
  18480999.664   -23840761.175 7 -18276638.07022
 91  3 22  2 20 14.9920000  0  4G 2G15G 6G13
  19002343.6174  -15523342.18047 -11869467.13364
  21683191.6174   -8787288.63745  -6671186.59861
  18210946.6174  -29182869.15347 -22662636.13863
  18473399.1174  -23880704.53747 -18307762.70062
 91  3 22  2 20 29.9920000  0  4G 2G15G 6G13
  19001733.4224  -15526551.75347 -11871968.07064
  21684582.7344   -8779964.34445  -6665479.35061
  18207811.2974  -29199344.90547 -22675474.35063
  18465823.5394  -23920511.97547 -18338781.41362
 91  3 22  2 20 44.9920000  0  4G 2G15G 6G13
  19001131.1174  -15529718.10947 -11874435.33464
  21685998.3524   -8772511.70245  -6659672.08761
  18204699.6414  -29215698.28047 -22688217.21063
  18458274.2664  -23960182.89047 -18369693.74162
 91  3 22  2 20 59.9920000  0  4G 2G15G 6G13
  19000533.1334  -15532851.31847 -11876876.76364
  21687441.3754   -8764941.18845  -6653772.97361
  18201608.5084  -29231939.32947 -22700872.53763
  18450749.664   -23999727.601 7 -18400507.73822
 91  3 22  2 21 14.9920000  0  4G 2G15G 6G13
  18999945.0554  -15535947.84347 -11879289.60264
  21688907.9064   -8757249.41945  -6647779.36761
  18198541.0164  -29248064.24247 -22713437.37763
  18443248.9924  -24039142.35747 -18431220.46562
 91  3 22  2 21 29.9920000  0  4G 2G15G 6G13
  18999364.5704  -15539001.44347 -11881669.00264
  21690396.1804   -8749430.13745  -6641686.40261
  18195495.2584  -29264066.65147 -22725906.75163
  18435774.7274  -24078420.89747 -18461827.05262
 91  3 22  2 21 44.9920000  0  4G 2G15G 6G13
  18998788.219   -15542023.225 7 -11884023.61124
  21691903.0474   -8741494.75245  -6635502.96061
  18192471.1094  -29279957.48147 -22738289.18263
  18428323.453   -24117574.186 7 -18492336.03522
 91  3 22  2 21 59.9920000  0  4G 2G15G 6G13
  18998220.2974  -15545009.52647 -11886350.56764
  21693437.7664   -8733440.15245  -6629226.62961
  18189468.8994  -29295733.15447 -22750581.87963
  18420897.8444  -24156598.67847 -18522744.66162
 91  3 22  2 22 14.9920000  0  4G 2G15G 6G13
  18997658.9924  -15547960.29747 -11888649.83664
  21694994.0944   -8725265.91945  -6622857.06961
  18186489.6254  -29311393.09247 -22762784.39763
  18413495.9534  -24195494.17747 -18553052.77462
 91  3 22  2 22 29.9920000  0  4G 2G15G 6G13
  18997105.1414  -15550871.33547 -11890918.14464
  21696569.477    -8716968.295 5  -6616391.36521
  18183532.0864  -29326933.24847 -22774893.56963
  18406119.9534  -24234256.53247 -18583257.13862
 91  3 22  2 22 44.9920000  0  4G 2G15G 6G13
  18996557.2894  -15553750.97847 -11893161.99364
  21698172.852    -8708556.162 5  -6609836.43821
  18180596.5474  -29342361.62247 -22786915.64563
  18398767.2274  -24272894.15147 -18613364.30562
 91  3 22  2 22 59.9920000  0  4G 2G15G 6G13
  18996017.3444  -15556583.95247 -11895369.47764
  21699797.133    -8700013.893 5  -6603180.11721
  18177684.8204  -29357662.70447 -22798838.53063
  18391440.5084  -24311391.31747 -18643362.03062
 91  3 22  2 23 14.9920000  0  4G 2G15G 6G13
  18995487.1414  -15559371.62847 -11897541.66064
  21701448.4304   -8691343.41845  -6596423.89361
  18174796.9774  -29372837.94747 -22810663.36363
  18384142.4384  -24349749.76247 -18673251.65862
 91  3 22  2 23 29.9920000  0  4G 2G15G 6G13
  18994965.7584  -15562115.54347 -11899679.74464
  21703124.5474   -8682546.56645  -6589569.17361
  18171932.6334  -29387888.74247 -22822391.22163
  18376867.8994  -24387970.90647 -18703034.30262
 91  3 22  2 23 44.9920000  0  4G 2G15G 6G13
  18994447.680   -15564837.523 7 -11901800.74024
  21704815.195    -8673645.225 5  -6582633.04221
  18169087.8754  -29402836.79947 -22834039.03063
  18369616.8364  -24426076.66347 -18732727.03162
 91  3 22  2 23 59.9920000  0  4G 2G15G 6G13
  18993941.977   -15567492.727 7 -11903869.70724
  21706539.0394   -8664594.94545  -6575580.87461
  18166271.1494  -29417637.08947 -22845571.69263
  18362396.7504  -24464022.08047 -18762294.81762
 91  3 22  2 24 14.9920000  0  4G 2G15G 6G13
  18993442.0784  -15570115.65847 -11905913.52164
  21708283.586    -8655430.281 5  -6568439.55921
  18163476.5314  -29432323.82647 -22857015.87463
  18355199.9924  -24501841.68847 -18791764.57762
 91  3 22  2 24 29.9920000  0  4G 2G15G 6G13
  18992951.7744  -15572694.46947 -11907922.95164
  21710049.7424   -8646139.79545  -6561200.20261
  18160705.8524  -29446885.18347 -22868362.35163
  18348029.5704  -24539523.60647 -18821127.04262
 91  3 22  2 24 44.9920000  0  4G 2G15G 6G13
  18992468.813   -15575235.672 7 -11909903.08424
  21711838.617    -8636729.949 5  -6553867.84421
  18157958.3444  -29461327.50847 -22879616.08763
  18340883.4304  -24577074.42247 -18850387.35462
 91  3 22  2 24 59.9920000  0  4G 2G15G 6G13
  18991993.149   -15577731.798 7 -11911848.09424
  21713655.2744   -8627193.64845  -6546436.95961
  18155233.6724  -29475643.18147 -22890771.12363
  18333763.6174  -24614486.61247 -18879539.63962
 91  3 22  2 25 14.9920000  0  4G 2G15G 6G13
  18991527.4144  -15580180.19047 -11913755.89864
  21715493.836    -8617528.421 5  -6538905.58021
  18152533.4924  -29489829.34447 -22901825.23963
  18326672.1334  -24651757.42447 -18908581.77062
 91  3 22  2 25 29.9920000  0  4G 2G15G 6G13
  18991071.9304  -15582569.20147 -11915617.43864
  21717360.602    -8607722.937 5  -6531264.93021
  18149861.8994  -29503874.25647 -22912769.29863
  18319607.8594  -24688875.31447 -18937504.73562
 91  3 22  2 25 44.9920000  0  4G 2G15G 6G13
  18990625.274   -15584920.032 7 -11917449.23124
  21719248.500    -8597798.452 5  -6523531.56521
  18147211.2584  -29517798.87347 -22923619.61763
  18312570.9304  -24725861.26347 -18966324.88962
 91  3 22  2 25 59.9920000  0  4G 2G15G 6G13
  18990183.844   -15587240.740 7 -11919257.55524
  21721157.2814   -8587763.35745  -6515712.00561
  18144583.1024  -29531611.30247 -22934382.52163
  18305554.6094  -24762723.38147 -18995048.55062
 91  3 22  2 26 14.9920000  0  4G 2G15G 6G13
  18989746.430   -15589536.703 7 -11921046.58924
  21723089.211    -8577623.286 5  -6507810.61721
  18141975.1024  -29545316.64447 -22945061.97563
  18298563.2034  -24799466.98547 -19023679.86762
 91  3 22  2 26 29.9920000  0  4G 2G15G 6G13
  18989317.5554  -15591792.67747 -11922804.46364
  21725041.2744   -8567363.11845  -6499815.68861
  18139390.1254  -29558899.66147 -22955646.11463
  18291596.3284  -24836077.00747 -19052207.09162
 91  3 22  2 26 44.9920000  0  4G 2G15G 6G13
  18988900.3754  -15593986.36647 -11924513.80064
  21727018.969    -8556960.799 5  -6491709.97821
  18136833.5864  -29572337.91447 -22966117.44463
  18284658.2424  -24872531.01547 -19080612.74762
 91  3 22  2 26 59.9920000  0  4G 2G15G 6G13
  18988487.461   -15596153.412 7 -11926202.38924
  21729019.820    -8546452.402 5  -6483521.60421
  18134296.4454  -29585666.92147 -22976503.65663
  18277744.9304  -24908864.78647 -19108924.70662
 91  3 22  2 27 14.9920000  0  4G 2G15G 6G13
  18988083.0244  -15598279.11847 -11927858.75564
  21731040.8754   -8535823.31345  -6475239.19261
  18131783.2504  -29598871.87647 -22986793.20863
  18270856.0314  -24945063.75847 -19137131.63262
 91  3 22  2 27 29.9920000  0  4G 2G15G 6G13
  18987688.414   -15600357.732 7 -11929478.42824
  21733088.289    -8525068.186 5  -6466858.56121
  18129295.3444  -29611946.88347 -22996981.49263
  18263995.2344  -24981122.02947 -19165228.92662
 91  3 22  2 27 44.9920000  0  4G 2G15G 6G13
  18987299.070   -15602399.051 7 -11931069.04624
  21735160.430    -8514196.647 5  -6458387.22121
  18126829.266   -29624901.606 7 -23007076.05423
  18257158.4224  -25017049.27347 -19193224.11062
 91  3 22  2 27 59.9920000  0  4G 2G15G 6G13
  18986918.195   -15604401.221 7 -11932629.15724
  21737246.1334   -8503207.22045  -6449824.02661
  18124387.2814  -29637733.99647 -23017075.29163
  18250346.8834  -25052843.74547 -19221115.84262
 91  3 22  2 28 14.9920000  0  4G 2G15G 6G13
  18986547.9774  -15606343.49747 -11934142.58764
  21739364.4774   -8492079.35145  -6441152.94461
  18121972.4774  -29650423.10147 -23026962.87363
  18243564.1494  -25088484.56547 -19248887.84262
 91  3 22  2 28 29.9920000  0  4G 2G15G 6G13
  18986187.656   -15608245.185 7 -11935624.39323
  21741507.086    -8480832.786 5  -6432389.36721
  18119581.3674  -29662988.27347 -23036753.88763
  18236807.3134  -25123991.15447 -19276555.24762
 91  3 22  2 28 44.9920000  0  4G 2G15G 6G13
  18985833.641   -15610104.765 7 -11937073.40024
  21743667.399    -8469466.080 5  -6423532.18621
  18117214.7344  -29675427.89147 -23046447.06463
  18230076.3284  -25159362.19147 -19304117.02962
 91  3 22  2 28 59.9920000  0  3G 2G 6G13
  18985487.742   -15611916.017 7 -11938484.74624
  18114873.2344  -29687735.45947 -23056037.34863
  18223372.8134  -25194591.17547 -19331568.12262
 91  3 22  2 29 14.9920000  0  3G 2G 6G13
  18985147.2584  -15613708.22347 -11939881.24164
  18112550.9694  -29699940.07947 -23065547.41063
  18216689.9694  -25229707.67747 -19358931.56562
 91  3 22  2 29 29.9920000  0  3G 2G 6G13
  18984812.9064  -15615460.53047 -11941246.64064
  18110251.5554  -29712021.13847 -23074961.19463
  18210033.2344  -25264690.76447 -19386191.04562
 91  3 22  2 29 44.9920000  0  3G 2G 6G13
  18984489.234   -15617164.970 7 -11942574.74924
  18107977.1254  -29723970.25847 -23084272.16763
  18203402.8444  -25299532.54547 -19413340.42462
 91  3 22  2 29 59.9920000  0  3G 2G 6G13
  18984173.984   -15618819.171 7 -11943863.72124
  18105730.2344  -29735785.06747 -23093478.48563
  18196800.8444  -25334230.46347 -19440377.70062
 91  3 22  2 30 14.9920000  0  3G 2G 6G13
  18983864.992   -15620441.103 7 -11945127.53824
  18103503.258   -29747483.534 7 -23102594.15123
  18190221.3054  -25368802.74647 -19467317.07662
 91  3 22  2 30 29.9920000  0  3G 2G 6G13
  18983563.7274  -15622020.83047 -11946358.46764
  18101301.5474  -29759055.55347 -23111611.27763
  18183668.5004  -25403239.45247 -19494150.81162
 91  3 22  2 30 44.9920000  0  3G 2G 6G13
  18983269.7974  -15623567.17247 -11947563.37964
  18099121.8524  -29770509.81747 -23120536.65063
  18177139.4064  -25437549.33647 -19520885.72462
 91  3 22  2 30 59.9920000  0  3G 2G 6G13
  18982985.9144  -15625068.26847 -11948733.03064
  18096966.070   -29781834.280 7 -23129360.88423
  18170635.7894  -25471720.63347 -19547512.64362
 91  3 22  2 31 14.9920000  0  3G 2G 6G13
  18982706.656   -15626524.685 7 -11949867.88124
  18094836.5944  -29793029.34447 -23138084.28163
  18164159.8134  -25505753.89047 -19574032.00162
 91  3 22  2 31 29.9920000  0  3G 2G 6G13
  18982437.4064  -15627941.29547 -11950971.70164
  18092728.1884  -29804099.95047 -23146710.70463
  18157708.4064  -25539654.10847 -19600447.69662
 91  3 22  2 31 44.9920000  0  3G 2G 6G13
  18982176.594   -15629312.440 7 -11952040.10024
  18090646.024   -29815040.288 7 -23155235.62023
  18151283.6024  -25573415.60247 -19626755.29162
 91  3 22  2 31 59.9920000  0  3G 2G 6G13
  18981926.1884  -15630630.13047 -11953066.84163
  18088591.3444  -29825842.22447 -23163652.68363
  18144886.8674  -25607030.43047 -19652948.60462
 91  3 22  2 32 14.9920000  0  3G 2G 6G13
  18981686.664   -15631892.713 7 -11954050.64924
  18086562.4844  -29836504.06747 -23171960.58363
  18138518.8754  -25640497.03347 -19679026.41162
 91  3 22  2 32 29.9920000  0  3G 2G 6G13
  18981457.2194  -15633095.40447 -11954987.78464
  18084561.555   -29847021.048 7 -23180155.60823
  18132179.5864  -25673810.66647 -19704985.02862
 91  3 22  2 32 44.9920000  0  3G 2G 6G13
  18981236.0004  -15634259.21647 -11955894.62064
  18082583.9924  -29857413.91247 -23188253.92363
  18125865.4774  -25706992.22147 -19730840.72762
 91  3 22  2 32 59.9920000  0  3G 2G 6G13
  18981020.594   -15635392.606 7 -11956777.75324
  18080628.461   -29867690.988 7 -23196262.00423
  18119574.5944  -25740050.36447 -19756600.26262
 91  3 22  2 33 14.9920000  0  3G 2G 6G13
  18980815.852   -15636473.570 7 -11957620.04023
  18078698.414   -29877830.281 7 -23204162.72623
  18113310.3834  -25772963.12847 -19782246.51262
 91  3 22  2 33 29.9920000  0  3G 2G 6G13
  18980612.984   -15637524.374 7 -11958438.82123
  18076790.289   -29887853.985 7 -23211973.38323
  18107071.5314  -25805752.61047 -19807796.69562
 91  3 22  2 33 44.9920000  0  3G 2G 6G13
  18980421.6174  -15638534.91347 -11959226.22763
  18074908.117   -29897751.852 7 -23219685.98423
  18100856.8674  -25838408.78547 -19833243.00962
 91  3 22  2 33 59.9920000  0  3G 2G 6G13
  18980239.422   -15639491.041 7 -11959971.23724
  18073051.336   -29907509.583 7 -23227289.39023
  18094671.3204  -25870917.80847 -19858574.65862
 91  3 22  2 34 14.9920000  0  3G 2G 6G13
  18980066.6414  -15640407.03047 -11960684.96564
  18071217.508   -29917141.508 7 -23234794.76023
  18088508.844   -25903293.916 7 -19883802.73722
 91  3 22  2 34 29.9920000  0  3G 2G 6G13
  18979900.1414  -15641277.00047 -11961362.83463
  18069411.3914  -29926641.55147 -23242197.36363
  18082375.242   -25935531.354 7 -19908922.76622
 91  3 22  2 34 44.9920000  0  3G 2G 6G13
  18979743.3134  -15642101.47247 -11962005.25264
  18067627.3364  -29936010.16447 -23249497.55563
  18076266.430   -25967630.653 7 -19933935.14822
 91  3 22  2 34 59.9920000  0  3G 2G 6G13
  18979595.320   -15642879.004 7 -11962611.09523
  18065870.563   -29945245.915 7 -23256694.21923
  18070185.070   -25999590.273 7 -19958838.69522
 91  3 22  2 35 14.9920000  0  3G 2G 6G13
  18979456.188   -15643620.527 7 -11963188.88824
  18064134.8054  -29954359.62347 -23263795.78263
  18064127.633   -26031421.366 7 -19983642.09122
 91  3 22  2 35 29.9920000  0  3G 2G 6G13
  18979321.5704  -15644308.64747 -11963725.05764
  18062429.6884  -29963333.86947 -23270788.67763
  18058097.945   -26063106.646 7 -20008331.86422
 91  3 22  2 35 44.9920000  0  3G 2G 6G13
  18979198.4774  -15644974.82247 -11964244.12564
  18060740.258   -29972199.878 7 -23277697.23123
  18052090.399   -26094677.499 7 -20032932.47422
 91  3 22  2 35 59.9920000  0  3G 2G 6G13
  18979077.016   -15645598.304 7 -11964729.92924
  18059077.242   -29980936.908 7 -23284505.27923
  18046108.7424  -26126113.45947 -20057427.96762
 91  3 22  2 36 14.9920000  0  3G 2G 6G13
  18978964.266   -15646184.491 7 -11965186.67624
  18057440.141   -29989550.440 7 -23291217.10323
  18040150.914   -26157419.899 7 -20081822.54422
 91  3 22  2 36 29.9920000  0  3G 2G 6G13
  18978865.188   -15646713.466 7 -11965598.84023
  18055828.945   -29998020.212 7 -23297816.90223
  18034221.867   -26188576.799 7 -20106100.59722
 91  3 22  2 36 44.9920000  0  3G 2G 6G13
  18978770.039   -15647206.816 7 -11965983.24323
  18054239.852   -30006367.744 7 -23304321.44723
  18028317.117   -26219605.868 7 -20130279.03822
 91  3 22  2 36 59.9920000  0  3G 2G 6G13
  18978688.328   -15647652.500 7 -11966330.50923
  18052676.4454  -30014580.75147 -23310721.16763
  18022438.508   -26250495.053 7 -20154348.47822
 91  3 22  2 37 14.9920000  0  3G 2G 6G13
  18978610.3914  -15648059.03447 -11966647.25964
  18051137.1174  -30022668.18647 -23317023.03263
  18016585.586   -26281253.194 7 -20178315.81622
 91  3 22  2 37 29.9920000  0  3G 2G 6G13
  18978541.141   -15648425.628 7 -11966932.89724
  18049623.188   -30030628.806 7 -23323226.09223
  18010757.086   -26311879.089 7 -20202180.09322
 91  3 22  2 37 44.9920000  0  3G 2G 6G13
  18978476.844   -15648752.863 7 -11967187.86523
  18048131.5394  -30038463.23347 -23329330.80963
  18004953.859   -26342373.761 7 -20225942.12822
 91  3 22  2 37 59.9920000  0  3G 2G 6G13
  18978425.164   -15649033.090 7 -11967406.19923
  18046665.609   -30046163.634 7 -23335331.09623
  17999178.203   -26372729.394 7 -20249595.81722
 91  3 22  2 38 14.9920000  0  3G 2G 6G13
  18978379.031   -15649265.730 7 -11967587.45323
  18045224.055   -30053729.543 7 -23341226.60123
  17993428.305   -26402946.077 7 -20273141.23322
 91  3 22  2 38 29.9920000  0  3G 2G 6G13
  18978343.094   -15649451.419 7 -11967732.12823
  18043811.3204  -30061161.47647 -23347017.67263
  17987705.188   -26433024.235 7 -20296578.70122
 91  3 22  2 38 44.9920000  0  3G 2G 6G13
  18978313.914   -15649600.768 7
  18042421.313   -30068470.005 7 -23352712.60523
  17982006.180   -26462974.373 7 -20319916.42222
 91  3 22  2 38 59.9920000  0  3G 2G 6G13
  18978296.492   -15649710.346 7
  18041052.2584  -30075651.77847 -23358308.76163
  17976330.649   -26492793.300 7 -20343151.89922
 91  3 22  2 39 14.9920000  0  3G 2G 6G13
  18978284.563   -15649769.164 7
  18039715.266   -30082695.740 7 -23363797.54223
  17970683.180   -26522470.057 7 -20366276.59622
 91  3 22  2 39 29.9920000  0  3G 2G 6G13
  18978284.313   -15649775.962 7
  18038398.774   -30089600.469 7 -23369177.82423
  17965064.086   -26552003.703 7 -20389289.77822
 91  3 22  2 39 44.9920000  0  3G 2G 6G13
  18978289.609   -15649738.414 7
  18037113.1174  -30096373.62447 -23374455.57863
  17959469.133   -26581401.823 7 -20412197.35122
 91  3 22  2 39 59.9920000  0  3G 2G 6G13
  18978310.438   -15649638.586 7
  18035850.9144  -30102997.16247 -23379616.74563
  17953903.859   -26610646.564 7 -20434985.41122
 91  3 22  2 40 14.9920000  0  3G 2G 6G13
  18978335.688   -15649497.928 7
  18034613.4384  -30109492.58647 -23384678.08763
  17948364.195   -26639759.570 7 -20457670.81922
 91  3 22  2 40 29.9920000  0  3G 2G 6G13
  18978368.6094  -15649317.61047
  18033403.297   -30115860.873 7 -23389640.35923
  17942849.164   -26668742.077 7 -20480254.54022
 91  3 22  2 40 44.9920000  0  3G 2G 6G13
  18978409.438   -15649093.846 7 -11967453.28323
  18032218.149   -30122098.047 7 -23394500.47523
  17937359.078   -26697590.206 7 -20502733.55422
 91  3 22  2 40 59.9920000  0  3G 2G 6G13
  18978469.649   -15648805.497 7 -11967228.56723
  18031058.3994  -30128182.95147 -23399241.93163
  17931899.031   -26726282.617 7 -20525091.22222
 91  3 22  2 41 14.9910000  0  3G 2G 6G13
  18978529.472   -15648474.954 7 -11966970.98323
  18029925.0034  -30134137.62047 -23403881.90363
  17926465.089   -26754840.045 7 -20547343.71422
 91  3 22  2 41 29.9910000  0  3G 2G 6G13
  18978600.9484  -15648094.35347 -11966674.38463
  18028816.800   -30139954.980 7 -23408414.88423
  17921056.589   -26783258.752 7 -20569488.11222
 91  3 22  2 41 44.9910000  0  3G 2G 6G13
  18978683.4564  -15647668.41047 -11966342.45463
  18027735.4724  -30145639.43847 -23412844.30063
  17915675.034   -26811541.970 7 -20591526.93622
 91  3 22  2 41 59.9910000  0  3G 2G 6G13
  18978769.019   -15647211.242 7 -11965986.19823
  18026677.933   -30151205.050 7 -23417181.11823
  17910316.105   -26839703.463 7 -20613470.91222
 91  3 22  2 42 14.9910000  0  3G 2G 6G13
  18978862.776   -15646720.199 7 -11965603.54323
  18025642.995   -30156648.926 7 -23421423.08123
  17904980.097   -26867740.746 7 -20635318.09722
 91  3 22  2 42 29.9910000  0  3G 2G 6G13
  18978962.1364  -15646194.75847 -11965194.08163
  18024628.987   -30161970.739 7 -23425569.92923
  17899669.737   -26895653.710 7 -20657068.41522
 91  3 22  2 42 44.9910000  0  3G 2G 6G13
  18979075.2144  -15645609.90647 -11964738.32163
  18023642.300   -30167145.363 7 -23429602.08023
  17894385.831   -26923417.329 7 -20678702.35722
 91  3 22  2 42 59.9910000  0  3G 2G 6G13
  18979194.105   -15644981.587 7 -11964248.70023
  18022684.323   -30172188.615 7 -23433531.87323
  17889128.050   -26951047.441 7 -20700232.27222
 91  3 22  2 43 14.9910000  0  3G 2G 6G13
  18979322.909   -15644295.503 7 -11963714.06923
  18021752.308   -30177086.139 7 -23437348.10422
  17883898.417   -26978529.884 7 -20721647.11622
 91  3 22  2 43 29.9910000  0  3G 2G 6G13
  18979464.386   -15643565.672 7 -11963145.34323
  18020843.167   -30181852.023 7 -23441061.76823
  17878694.026   -27005878.845 7 -20742957.95122
 91  3 22  2 43 44.9910000  0  3G 2G 6G13
  18979611.401   -15642788.628 7 -11962539.83223
  18019966.003   -30186482.680 7 -23444670.05623
  17873514.745   -27033091.169 7 -20764162.31822
 91  3 22  2 43 59.9910000  0  3G 2G 6G13
  18979770.105   -15641959.299 7 -11961893.58223
  18019106.620   -30190973.051 7 -23448169.02523
  17868363.730   -27060161.893 7 -20785256.34222
 91  3 22  2 44 14.9910000  0  3G 2G 6G13
  18979935.573   -15641092.564 7 -11961218.18423
  18018279.081   -30195338.016 7 -23451570.27123
  17863236.6914  -27087106.02847 -20806251.73762
 91  3 22  2 44 29.9910000  0  3G 2G 6G13
  18980103.3084  -15640192.53347 -11960516.83663
  18017472.253   -30199581.482 7 -23454876.85223
  17858132.737   -27113927.641 7 -20827151.65022
 91  3 22  2 44 44.9910000  0  3G 2G 6G13
  18980285.495   -15639250.113 7 -11959782.45823
  18016685.714   -30203694.676 7 -23458081.91523
  17853053.808   -27140617.878 7 -20847949.19622
 91  3 22  2 44 59.9910000  0  3G 2G 6G13
  18980472.597   -15638273.676 7 -11959021.58423
  18015927.816   -30207685.675 7 -23461191.76723
  17847997.972   -27167184.949 7 -20868650.77022
 91  3 22  2 45 14.9910000  0  3G 2G 6G13
  18980670.448   -15637230.762 7 -11958208.90723
  18015200.269   -30211522.154 7 -23464181.21323
  17842971.698   -27193596.874 7 -20889231.44422
 91  3 22  2 45 29.9910000  0  3G 2G 6G13
  18980873.534   -15636149.043 7 -11957365.99223
  18014494.519   -30215231.683 7 -23467071.73823
  17837970.292   -27219881.203 7 -20909712.69422
 91  3 22  2 45 44.9910000  0  3G 2G 6G13
  18981085.9414  -15635027.54547 -11956492.07063
  18013813.183   -30218813.259 7 -23469862.55823
  17832993.284   -27246037.108 7 -20930093.87422
 91  3 22  2 45 59.9910000  0  3G 2G 6G13
  18981311.0264  -15633851.27847 -11955575.47063
  18013158.691   -30222251.876 7 -23472541.98423
  17828042.753   -27272049.831 7 -20950363.48122
 91  3 22  2 46 14.9910000  0  3G 2G 6G13
  18981545.472   -15632632.310 7 -11954625.61123
  18012528.417   -30225559.715 7 -23475119.50023
  17823116.651   -27297931.623 7 -20970531.06622
 91  3 22  2 46 29.9910000  0  3G 2G 6G13
  18981783.644   -15631371.147 7 -11953642.87523
  18011922.941   -30228737.108 7 -23477595.37323
  17818216.964   -27323682.790 7 -20990596.87322
 91  3 22  2 46 44.9910000  0  3G 2G 6G13
  18982033.722   -15630056.646 7 -11952618.57323
  18011343.9724  -30231772.90847 -23479960.92163
  17813343.245   -27349292.492 7 -21010552.43922
 91  3 22  2 46 59.9910000  0  3G 2G 6G13
  18982294.980   -15628692.245 7 -11951555.37423
  18010791.722   -30234670.611 7 -23482218.85623
  17808496.472   -27374764.365 7 -21030400.61022
 91  3 22  2 47 14.9910000  0  3G 2G 6G13
  18982558.519   -15627293.483 7 -11950465.41323
  18010267.714   -30237445.713 7 -23484381.25723
  17803673.394   -27400114.098 7 -21050153.60422
 91  3 22  2 47 29.9910000  0  3G 2G 6G13
  18982834.558   -15625859.162 7 -11949347.74723
  18009761.8314  -30240096.96747 -23486447.15563
  17798871.651   -27425340.810 7 -21069810.74122
 91  3 22  2 47 44.9910000  0  3G 2G 6G13
  18983114.972   -15624377.936 7 -11948193.52423
  18009280.542   -30242612.954 7 -23488407.65223
  17794097.253   -27450433.110 7 -21089363.13722
 91  3 22  2 47 59.9910000  0  3G 2G 6G13
  18983402.628   -15622862.630 7 -11947012.74323
  18008828.151   -30245006.632 7 -23490272.84023
  17789345.7304  -27475403.95247 -21108820.89762
 91  3 22  2 48 14.9910000  0  3G 2G 6G13
  18983698.909   -15621311.736 7 -11945804.23723
  18008393.362   -30247276.564 7 -23492041.60323
  17784617.1674  -27500251.98547 -21128182.96362
 91  3 22  2 48 29.9910000  0  3G 2G 6G13
  18984005.7064  -15619699.65647 -11944548.06363
  18007991.331   -30249397.050 7 -23493693.92023
  17779916.995   -27524951.922 7 -21147429.62722
 91  3 22  2 48 44.9910000  0  3G 2G 6G13
  18984319.761   -15618038.826 7 -11943253.89623
  18007614.5664  -30251380.71647 -23495239.62363
  17775243.066   -27549516.375 7 -21166570.72122
 91  3 22  2 48 59.9910000  0  3G 2G 6G13
  18984649.159   -15616321.090 7 -11941915.37723
  18007261.159   -30253219.145 7 -23496672.14923
  17770595.691   -27573937.006 7 -21185599.73822
 91  3 22  2 49 14.9910000  0  3G 2G 6G13
  18984980.847   -15614574.511 7 -11940554.38423
  18006936.0584  -30254940.40047 -23498013.38063
  17765970.526   -27598241.890 7 -21204538.56822
 91  3 22  2 49 29.9910000  0  3G 2G 6G13
  18985320.253   -15612781.351 7 -11939157.10023
  18006636.425   -30256526.812 7 -23499249.53623
  17761370.245   -27622413.559 7 -21223373.59522
 91  3 22  2 49 44.9910000  0  3G 2G 6G13
  18985671.386   -15610942.564 7 -11937724.26623
  18006359.542   -30257979.266 7 -23500381.30723
  17756795.9724  -27646453.43847 -21242105.93162
 91  3 22  2 49 59.9910000  0  3G 2G 6G13
  18986030.964   -15609055.387 7 -11936253.72923
  18006108.441   -30259295.009 7 -23501406.53923
  17752246.7374  -27670358.76447 -21260733.42162
 91  3 22  2 50 14.9910000  0  3G 2G 6G13
  18986397.6514  -15607121.68047 -11934746.94463
  18005884.0034  -30260476.09547 -23502326.85463
  17747722.8394  -27694131.31747 -21279257.45262
 91  3 22  2 50 29.9910000  0  3G 2G 6G13
  18986773.191   -15605139.869 7 -11933202.65723
  18005686.6364  -30261520.79847 -23503140.90263
  17743224.6984  -27717769.90547 -21297677.09262
 91  3 22  2 50 44.9910000  0  3G 2G 6G13
  18987158.956   -15603118.746 7 -11931627.74223
  18005510.0664  -30262437.80447 -23503855.43963
  17738750.1364  -27741283.53147 -21315999.36262
 91  3 22  2 50 59.9910000  0  3G 2G 6G13
  18987552.9564  -15601052.52847 -11930017.69763
  18005361.3164  -30263221.61347 -23504466.19963
  17734299.9874  -27764666.35047 -21334219.70762
 91  3 22  2 51 14.9910000  0  3G 2G 6G13
  18987957.7614  -15598931.90947 -11928365.26563
  18005239.0114  -30263862.72547 -23504965.75563
  17729877.5584  -27787909.19347 -21352330.97962
 91  3 22  2 51 29.9910000  0  3G 2G 6G13
  18988373.2224  -15596750.35047 -11926665.34563
  18005141.253   -30264354.600 7 -23505349.02823
  17725482.3474  -27811006.02847 -21370328.47662
 91  3 22  2 51 44.9910000  0  3G 2G 6G13
  18988795.5264  -15594514.06447 -11924922.77163
  18005080.0424  -30264703.82447 -23505621.13663
  17721113.2534  -27833963.30547 -21388217.22762
 91  3 22  2 51 59.9910000  0  3G 2G 6G13
  18989229.1284  -15592245.75647 -11923155.25163
  18005034.3084  -30264933.04847 -23505799.75363
  17716766.5194  -27856803.67747 -21406014.88862
 91  3 22  2 52 14.9910000  0  3G 2G 6G13
  18989672.128   -15589914.907 7 -11921338.99723
  18005020.1674  -30265011.45347
  17712448.9334  -27879496.77247 -21423697.78062
 91  3 22  2 52 29.9910000  0  3G 2G 6G13
  18990124.9804  -15587544.00747 -11919491.53363
  18005029.7534  -30264961.56347
  17708154.6364  -27902065.25147 -21441283.57162
 91  3 22  2 52 44.9910000  0  3G 2G 6G13
  18990581.8164  -15585131.72647 -11917611.83463
  18005064.112   -30264782.449 7
  17703882.4954  -27924508.10047 -21458771.47462
 91  3 22  2 52 59.9910000  0  3G 2G 6G13
  18991055.0974  -15582661.28847 -11915686.81563
  18005123.5344  -30264457.15147
  17699639.1594  -27946808.56447 -21476148.42662
 91  3 22  2 53 14.9910000  0  3G 2G 6G13
  18991530.2304  -15580150.16747 -11913730.08763
  18005213.3784  -30264003.15147 -23505075.12563
  17695419.4334  -27968984.21747 -21493428.12062
 91  3 22  2 53 29.9910000  0  3G 2G 6G13
  18992017.8394  -15577585.89847 -11911731.94963
  18005324.2064  -30263408.03447 -23504611.39163
  17691225.8394  -27991022.66547 -21510600.90562
 91  3 22  2 53 44.9910000  0  3G 2G 6G13
  18992516.4724  -15574978.80147 -11909700.44463
  18005461.7614  -30262682.00547 -23504045.64963
  17687056.7534  -28012934.41047 -21527674.95562
 91  3 22  2 53 59.9910000  0  3G 2G 6G13
  18993019.9254  -15572335.15547 -11907640.45163
  18005621.8234  -30261831.40947 -23503382.83963
  17682909.9564  -28034726.15347 -21544655.50062
 91  3 22  2 54 14.9910000  0  3G 2G 6G13
  18993530.683   -15569641.137 7 -11905541.20523
  18005811.706   -30260842.481 7 -23502612.23323
  17678788.3084  -28056384.06047 -21561531.75562
 91  3 22  2 54 29.9910000  0  3G 2G 6G13
  18994054.3084  -15566895.28947 -11903401.58163
  18006028.2924  -30259713.75847 -23501732.69863
  17674692.2304  -28077906.75347 -21578302.65062
 91  3 22  2 54 44.9910000  0  3G 2G 6G13
  18994588.1674  -15564090.60247 -11901216.10763
  18006269.667   -30258438.635 7 -23500739.09023
  17670623.2844  -28099287.89047 -21594963.23762
 91  3 22  2 54 59.9910000  0  3G 2G 6G13
  18995132.0504  -15561233.97447 -11898990.15563
  18006538.5664  -30257023.79647 -23499636.60963
  17666580.9484  -28120534.29647 -21611518.84762
 91  3 22  2 55 14.9910000  0  3G 2G 6G13
  18995683.0424  -15558335.74447 -11896731.79763
  18006831.4804  -30255479.69247 -23498433.40363
  17662560.8624  -28141656.33547 -21627977.53962
 91  3 22  2 55 29.9910000  0  3G 2G 6G13
  18996242.9414  -15555395.76247 -11894440.90163
  18007149.3314  -30253806.11847 -23497129.32263
  17658564.7844  -28162654.18647 -21644339.46662
 91  3 22  2 55 44.9910000  0  3G 2G 6G13
  18996808.4644  -15552416.71047 -11892119.55663
  18007495.5734  -30252005.68147 -23495726.38363
  17654592.3234  -28183530.50347 -21660606.69962
 91  3 22  2 55 59.9910000  0  3G 2G 6G13
  18997382.3004  -15549401.23947 -11889769.83163
  18007862.3084  -30250080.98247 -23494226.61163
  17650641.9414  -28204288.14647 -21676781.45562
 91  3 22  2 56 14.9910000  0  3G 2G 6G13
  18997970.8394  -15546323.38347 -11887371.50063
  18008253.5894  -30248006.38147 -23492610.04463
  17646719.8234  -28224901.53047 -21692843.80162
 91  3 22  2 56 29.9910000  0  3G 2G 6G13
  18998563.4644  -15543190.86747 -11884930.57363
  18008678.7534  -30245789.81647 -23490882.85463
  17642823.9954  -28245378.77247 -21708800.06562
 91  3 22  2 56 44.9910000  0  3G 2G 6G13
  18999170.0664  -15540014.32547 -11882455.34363
  18009122.6514  -30243441.55047 -23489053.03463
  17638950.2844  -28265730.33347 -21724658.39262
 91  3 22  2 56 59.9910000  0  3G 2G 6G13
  18999778.230   -15536796.984 7 -11879948.31323
  18009597.581   -30240965.018 7 -23487123.25523
  17635100.4414  -28285959.87347 -21740421.64062
 91  3 22  2 57 14.9910000  0  3G 2G 6G13
  19000404.8704  -15533523.99947 -11877397.92263
  18010092.4874  -30238345.56347 -23485082.12363
  17631277.2694  -28306052.38847 -21756078.11362
 91  3 22  2 57 29.9910000  0  3G 2G 6G13
  19001033.2614  -15530208.76647 -11874814.62363
  18010618.7224  -30235596.79147 -23482940.21763
  17627477.6124  -28326021.64147 -21771638.53962
 91  3 22  2 57 44.9910000  0  3G 2G 6G13
  19001674.6594  -15526840.39047 -11872189.91263
  18011167.2144  -30232707.31347 -23480688.67263
  17623703.0584  -28345857.13847 -21787094.73962
 91  3 22  2 57 59.9910000  0  3G 2G 6G13
  19002328.6124  -15523416.10747 -11869521.63663
  18011741.948   -30229674.559 7 -23478325.47423
  17619954.2224  -28365556.27547 -21802444.68462
 91  3 22  2 58 14.9910000  0  3G 2G 6G13
  19002987.730   -15519947.830 7 -11866819.08023
  18012345.2454  -30226510.65647 -23475860.08863
  17616228.9724  -28385131.02647 -21817697.70462
 91  3 22  2 58 29.9910000  0  3G 2G 6G13
  19003656.362   -15516431.090 7 -11864078.74423
  18012975.0424  -30223211.25647 -23473289.11863
  17612528.8234  -28404577.33447 -21832850.63562
 91  3 22  2 58 44.9910000  0  3G 2G 6G13
  19004334.6364  -15512866.14647
  18013628.5734  -30219776.55347
  17608852.0974  -28423895.32847 -21847903.58862
 91  3 22  2 58 59.9910000  0  3G 2G 6G13
  19005021.9644  -15509243.20347
  18014310.9564  -30216196.76047
  17605202.4174  -28443075.49347 -21862849.13962
 91  3 22  2 59 14.9910000  0  3G 2G 6G13
  19005721.1054  -15505572.58647
  18015016.9094  -30212482.38047
  17601576.3784  -28462128.52347 -21877695.62862
 91  3 22  2 59 29.9910000  0  3G 2G 6G13
  19006429.9804  -15501847.03647 -11852714.52863
  18015750.3944  -30208626.25147 -23461924.18263
  17597976.8394  -28481047.11147 -21892437.35362
 91  3 22  2 59 44.9910000  0  3G 2G 6G13
  19007152.300   -15498070.170 7 -11849771.50023
  18016508.3944  -30204632.05147 -23458811.81863
  17594401.612   -28499835.211 7 -21907077.40422
 91  3 22  2 59 59.9910000  0  3G 2G 6G13
  19007880.6984  -15494245.61047 -11846791.31363
  18017292.2844  -30200503.34047 -23455594.65363
  17590850.5344  -28518496.73047 -21921618.82162
 91  3 22  3  0 14.9910000  0  3G 2G 6G13
  19008615.4564  -15490369.50047 -11843770.96763
  18018107.3864  -30196236.54947 -23452269.87763
  17587323.5664  -28537028.01747 -21936058.75062
 91  3 22  3  0 29.9910000  0  3G 2G 6G13
  19009362.6984  -15486436.53947 -11840706.32363
  18018948.6914  -30191826.23547 -23448833.26663
  17583823.4254  -28555424.06247 -21950393.29762
 91  3 22  3  0 44.9910000  0  3G 2G 6G13
  19010122.1594  -15482463.32547 -11837610.31063
  18019807.3554  -30187289.21247 -23445297.92763
  17580345.3084  -28573701.53147 -21964635.45162
 91  3 22  3  0 59.9910000  0  3G 2G 6G13
  19010883.5814  -15478444.84647 -11834479.02263
  18020698.6594  -30182620.39847 -23441659.89263
  17576891.6984  -28591855.49447 -21978781.36662
 91  3 22  3  1 14.9910000  0  3G 2G 6G13
  19011663.2764  -15474366.37347 -11831300.98363
  18021612.3554  -30177805.20147 -23437907.79163
  17573461.6284  -28609871.59847 -21992819.85262
 91  3 22  3  1 29.9910000  0  3G 2G 6G13
  19012445.9014  -15470234.93647 -11828081.67963
  18022558.3084  -30172850.82947 -23434047.24663
  17570058.7144  -28627757.10047 -22006756.58462
 91  3 22  3  1 44.9910000  0  3G 2G 6G13
  19013243.2764  -15466055.65747 -11824825.09163
  18023523.8234  -30167762.27147 -23430082.13963
  17566678.7304  -28645517.38147 -22020595.73262
 91  3 22  3  1 59.9910000  0  3G 2G 6G13
  19014045.9874  -15461826.55047 -11821529.68563
  18024521.2534  -30162537.61147 -23426010.98263
  17563323.2534  -28663150.52647 -22034335.81662
 91  3 22  3  2 14.9910000  0  3G 2G 6G13
  19014860.5814  -15457547.07847 -11818195.02963
  18025540.8864  -30157176.59047 -23421833.56763
  17559991.2454  -28680656.40247 -22047976.73262
 91  3 22  3  2 29.9910000  0  4G 2G12G 6G13
  19015687.3474  -15453214.68847 -11814819.13763
  21421892.8784     -65683.60345
  18026584.4414  -30151676.57847 -23417547.85363
  17556685.0584  -28698032.33047 -22061516.38462
 91  3 22  3  2 44.9910000  0  4G 2G12G 6G13
  19016521.9954  -15448830.86747 -11811403.16663
  21409395.4254    -131355.33345
  18027657.6674  -30146039.39747 -23413155.24763
  17553403.0034  -28715280.54347 -22074956.51762
 91  3 22  3  2 59.9910000  0  4G 2G12G 6G13
  19017365.3234  -15444394.93547 -11807946.58463
  21396900.2764    -197014.77045
  18028758.1674  -30140264.16047 -23408655.07063
  17550145.4564  -28732400.17047 -22088296.46062
 91  3 22  3  3 14.9910000  0  4G 2G12G 6G13
  19018217.9334  -15439910.35647 -11804452.09963
  21384408.9334    -262665.14145
  18029883.7534  -30134354.47747 -23404050.12363
  17546911.8164  -28749394.90447 -22101539.07762
 91  3 22  3  3 29.9910000  0  4G 2G12G 6G13
  19019081.6834  -15435369.60747 -11800913.84963
  21371917.0194    -328298.84745
  18031036.2534  -30128303.12247 -23399334.77963
  17543702.933   -28766257.633 7 -22114678.84022
 91  3 22  3  3 44.9910000  0  4G 2G12G 6G13
  19019955.5424  -15430780.25547 -11797337.73063
  21359429.159     -393923.187 5        -0.33331
  18032211.5894  -30122117.77347 -23394515.02663
  17540517.7454  -28782996.19847 -22127721.85562
 91  3 22  3  3 59.9910000  0  4G 2G12G 6G13
  19020840.7224  -15426132.86247 -11793716.38062
  21346944.737     -459528.478 5    -51121.22021
  18033415.8474  -30115788.88147 -23389583.43163
  17537358.1204  -28799601.19647 -22140660.78762
 91  3 22  3  4 14.9910000  0  4G 2G12G 6G13
  19021736.7844  -15421430.92647 -11790052.53263
  21334462.917     -525117.697 5   -102229.55221
  18034644.9254  -30109319.90147 -23384542.68063
  17534222.1054  -28816076.22447 -22153498.43962
 91  3 22  3  4 29.9910000  0  4G 2G12G 6G13
  19022637.9334  -15416686.73347 -11786355.76163
  21321982.6364    -590703.20545   -153335.00361
  18035900.8864  -30102723.42247 -23379402.57563
  17531109.175   -28832433.801 7 -22166244.58022
 91  3 22  3  4 44.9910000  0  4G 2G12G 6G13
  19023551.8164  -15411860.19847 -11782594.81863
  21309511.159     -656244.599 5   -204406.08721
  18037190.0264  -30095959.46747 -23374131.96663
  17528027.089   -28848634.060 8 -22178868.13422
 91  3 22  3  4 59.9910000  0  4G 2G12G 6G13
  19024483.4014  -15406985.34347 -11778796.22563
  21297041.511     -721775.636 5   -255469.08821
  18038501.4564  -30089061.96047 -23368757.29363
  17524967.339   -28864711.219 7 -22191395.76322
 91  3 22  3  5 14.9910000  0  4G 2G12G 6G13
  19025420.1834  -15402066.74247 -11774963.54162
  21284571.2144    -787300.60045   -306527.38361
  18039835.9414  -30082035.86547 -23363282.42263
  17521930.6204  -28880670.28047 -22203831.36562
 91  3 22  3  5 29.9910000  0  4G 2G12G 6G13
  19026367.5584  -15397078.62247 -11771076.69262
  21272108.2304    -852793.50745   -357560.65561
  18041207.3004  -30074855.32247 -23357687.20063
  17518920.5034  -28896485.97247 -22216155.24962
 91  3 22  3  5 44.9900000  0  4G 2G12G 6G13
  19027326.4904  -15392049.06947 -11767157.56162
  21259646.2644    -918277.51045   -408587.01661
  18042593.342   -30067548.588 7 -23351993.66023
  17515933.740   -28912185.001 7 -22228388.23722
 91  3 22  3  5 59.9900000  0  4G 2G12G 6G13
  19028291.7724  -15386961.96047 -11763193.58462
  21247190.2484    -983745.70945   -459601.08661
  18044014.787   -30060099.672 7 -23346189.32323
  17512970.5534  -28927754.35647 -22240520.17262
 91  3 22  3  6 14.9900000  0  4G 2G12G 6G13
  19029274.4514  -15381809.76747 -11759178.88363
  21234736.272    -1049185.483 5   -510592.97321
  18045457.8344  -30052500.88747 -23340268.20163
  17510034.373   -28943185.010 7 -22252544.03022
 91  3 22  3  6 29.9900000  0  4G 2G12G 6G13
  19030262.2874  -15376617.82247 -11755133.20663
  21222285.4434   -1114621.84545   -561582.19861
  18046928.7094  -30044777.62347 -23334250.07963
  17507119.154   -28958502.543 7 -22264479.74722
 91  3 22  3  6 44.9900000  0  4G 2G12G 6G13
  19031258.8034  -15371372.91947 -11751046.26662
  21209836.3114   -1180041.57045   -612558.45561
  18048427.1704  -30036917.12247 -23328125.01663
  17504227.936   -28973694.208 7 -22276317.39122
 91  3 22  3  6 59.9900000  0  4G 2G12G 6G13
  19032269.0064  -15366074.92247 -11746917.94762
  21197390.3184   -1245444.13845   -663521.35861
  18049945.1934  -30028919.14347 -23321892.83263
  17501361.803   -28988759.920 7 -22288056.88022
 91  3 22  3  7 14.9900000  0  4G 2G12G 6G13
  19033287.8264  -15360723.49647 -11742748.00463
  21184949.6934   -1310829.02445   -714470.49761
  18051493.6234  -30020783.50447 -23315553.37763
  17498519.318   -29003699.751 7 -22299698.29022
 91  3 22  3  7 29.9900000  0  4G 2G12G 6G13
  19034315.4124  -15355323.03647 -11738539.85562
  21172507.264    -1376200.597 5   -765409.23321
  18053067.443   -30012515.039 7 -23309110.42823
  17495698.951   -29018518.489 7 -22311245.34122
 91  3 22  3  7 44.9900000  0  4G 2G12G 6G13
  19035353.0144  -15349862.32647 -11734284.76162
  21160072.131    -1441547.195 5   -816328.51021
  18054669.803   -30004102.199 7 -23302554.98323
  17492904.365   -29033204.981 7 -22322689.33122
 91  3 22  3  7 59.9900000  0  4G 2G12G 6G13
  19036402.4434  -15344346.98147 -11729987.09062
  21147640.9044   -1506874.19445   -867232.55361
  18056296.459   -29995550.851 7 -23295891.60923
  17490133.561   -29047765.070 7 -22334034.83422
 91  3 22  3  8 14.9900000  0  4G 2G12G 6G13
  19037463.7564  -15338774.48847 -11725644.88562
  21135212.3344   -1572178.79745   -918119.09861
  18057949.897   -29986858.740 7 -23289118.55823
  17487386.647   -29062196.696 7 -22345280.23422
 91  3 22  3  8 29.9900000  0  4G 2G12G 6G13
  19038537.0614  -15333135.92647 -11721251.20263
  21122792.2644   -1637451.79845   -968981.03561
  18059632.3264  -29978016.84047 -23282228.77663
  17484667.272   -29076490.837 7 -22356418.50122
 91  3 22  3  8 44.9900000  0  4G 2G12G 6G13
  19039619.2014  -15327450.39747 -11716820.92362
  21110374.014    -1702712.158 5  -1019833.13021
  18061338.8424  -29969044.42447 -23275237.29263
  17481969.842   -29090666.991 7 -22367464.83622
 91  3 22  3  8 59.9900000  0  4G 2G12G 6G13
  19040711.7254  -15321700.96147 -11712340.84462
  21097960.576    -1767942.781 5  -1070662.06221
  18063075.3504  -29959924.82747 -23268131.12363
  17479297.389   -29104708.459 7 -22378406.21822
 91  3 22  3  9 14.9900000  0  4G 2G12G 6G13
  19041817.4124  -15315888.50047 -11707811.65862
  21085552.3184   -1833144.17645  -1121468.18961
  18064841.1934  -29950659.00747 -23260911.01463
  17476650.654   -29118616.495 7 -22389243.62722
 91  3 22  3  9 29.9900000  0  4G 2G12G 6G13
  19042936.0454  -15310021.09347 -11703239.65762
  21073149.0294   -1898324.26245  -1172257.72661
  18066628.256   -29941255.071 7 -23253583.28523
  17474027.732   -29132399.216 7 -22399983.39322
 91  3 22  3  9 44.9900000  0  4G 2G12G 6G13
  19044059.7254  -15304109.68947 -11698633.36562
  21060749.287    -1963493.776 5  -1223039.02121
  18068440.982   -29931724.270 7 -23246156.70123
  17471427.623   -29146067.894 7 -22410634.28622
 91  3 22  3  9 59.9900000  0  4G 2G12G 6G13
  19045192.5374  -15298146.68947 -11693986.87362
  21048350.6474   -2028644.79845  -1273805.90561
  18070283.0064  -29922059.04447 -23238625.36763
  17468849.420   -29159615.394 7 -22421190.76022
 91  3 22  3 10 14.9900000  0  4G 2G12G 6G13
  19046343.5224  -15292125.39847 -11689294.96262
  21035957.1544   -2093770.42245  -1324553.02561
  18072146.2404  -29912252.75147 -23230984.10762
  17466294.5144  -29173035.06847 -22431647.62162
 91  3 22  3 10 29.9900000  0  4G 2G12G 6G13
  19047494.9904  -15286044.86647 -11684556.88662
  21023570.334    -2158869.322 5  -1375279.29821
  18074042.920   -29902304.505 7 -23223232.23723
  17463766.279   -29186326.237 7 -22442004.36122
 91  3 22  3 10 44.9900000  0  4G 2G12G 6G13
  19048668.6234  -15279907.14547 -11679774.23862
  21011186.522    -2223943.175 5  -1425986.05821
  18075958.537   -29892216.561 7 -23215371.52023
  17461260.186   -29199491.196 7 -22452262.76022
 91  3 22  3 10 59.9900000  0  4G 2G12G 6G13
  19049840.6314  -15273722.04847 -11674954.69062
  20998804.920    -2289001.616 5  -1476680.80221
  18077906.334   -29881998.805 7 -23207409.65023
  17458777.897   -29212539.897 7 -22462430.56322
 91  3 22  3 11 14.9900000  0  4G 2G12G 6G13
  19051027.6784  -15267492.64547 -11670100.61462
  20986426.154    -2354047.683 5  -1527365.91321
  18079873.482   -29871654.590 7 -23199349.24022
  17456315.295   -29225475.749 7 -22472510.42422
 91  3 22  3 11 29.9900000  0  4G 2G12G 6G13
  19052222.7174  -15261212.07047 -11665206.66262
  20974052.115    -2419074.084 5  -1578035.69621
  18081866.318   -29861177.049 7 -23191184.93623
  17453877.123   -29238292.062 7 -22482497.14022
 91  3 22  3 11 44.9900000  0  4G 2G12G 6G13
  19053428.7324  -15254870.60647 -11660265.26262
  20961681.568    -2484070.880 5  -1628682.40321
  18083887.889   -29850556.730 7 -23182909.37723
  17451463.334   -29250979.580 7 -22492383.50222
 91  3 22  3 11 59.9900000  0  4G 2G12G 6G13
  19054643.3264  -15248495.91147 -11655297.96462
  20949315.779    -2549065.463 5  -1679327.39521
  18085932.3734  -29839821.38147 -23174544.18262
  17449067.178   -29263566.295 7 -22502191.30722
 91  3 22  3 12 14.9900000  0  4G 2G12G 6G13
  19055868.8574  -15242051.52647 -11650276.37062
  20936954.8264   -2614021.18645  -1729942.10161
  18088004.8894  -29828934.66747 -23166061.04163
  17446698.725   -29276015.797 7 -22511892.18922
 91  3 22  3 12 29.9900000  0  4G 2G12G 6G13
  19057105.9434  -15235546.31247 -11645207.37662
  20924600.3344   -2678946.63445  -1780533.21161
  18090102.459   -29817905.572 7 -23157466.95622
  17444353.4674  -29288337.32047 -22521493.35362
 91  3 22  3 12 44.9900000  0  4G 2G12G 6G13
  19058355.2794  -15228979.49847 -11640090.38162
  20912252.4124   -2743840.76846  -1831099.94661
  18092229.107   -29806733.507 7 -23148761.46522
  17442033.607   -29300530.346 7 -22530994.39322
 91  3 22  3 12 59.9900000  0  4G 2G12G 6G13
  19059615.4674  -15222354.49647 -11634928.04262
  20899906.303    -2808706.806 5  -1881644.77221
  18094381.295   -29795422.011 7 -23139947.32922
  17439736.498   -29312598.604 7 -22540398.20522
 91  3 22  3 13 14.9900000  0  4G 2G12G 6G13
  19060891.4984  -15215655.51247 -11629708.05962
  20887572.5454   -2873528.42245  -1932154.96861
  18096562.592   -29783955.284 7 -23131012.23322
  17437466.803   -29324526.271 7 -22549692.46822
 91  3 22  3 13 29.9900000  0  4G 2G12G 6G13
  19062176.529   -15208915.595 7 -11624456.18922
  20875240.2174   -2938338.58546  -1982656.24561
  18098767.592   -29772366.675 7 -23121982.16722
  17435217.631   -29336346.888 7 -22558903.31722
 91  3 22  3 13 44.9900000  0  4G 2G12G 6G13
  19063473.0764  -15202106.97847 -11619150.77962
  20862914.982    -3003109.227 5  -2033126.74521
  18100998.756   -29760628.600 7 -23112835.63022
  17432993.943   -29348032.653 7 -22568009.09522
 91  3 22  3 13 59.9900000  0  4G 2G12G 6G13
  19064775.1864  -15195249.02747 -11613806.93262
  20850591.5374   -3067859.41645  -2083581.29561
  18103259.272   -29748760.327 7 -23103587.63622
  17430791.311   -29359603.423 7 -22577025.26122
 91  3 22  3 14 14.9900000  0  4G 2G12G 6G13
  19066088.3264  -15188343.04647 -11608425.64962
  20838275.5294   -3132590.27645  -2134020.77261
  18105543.4674  -29736763.41747 -23094239.40962
  17428611.670   -29371060.754 8 -22585953.02322
 91  3 22  3 14 29.9900000  0  4G 2G12G 6G13
  19067414.7014  -15181384.88347 -11603003.70662
  20825961.561    -3197297.386 6  -2184441.76521
  18107849.0294  -29724633.95447 -23084787.88662
  17426453.357   -29382400.772 7 -22594789.37822
 91  3 22  3 14 44.9900000  0  4G 2G12G 6G13
  19068752.5144  -15174348.81547 -11597521.06462
  20813658.1934   -3261954.83646  -2234824.05561
  18110188.256   -29712346.274 7 -23075213.08922
  17424323.217   -29393597.996 7 -22603514.46522
 91  3 22  3 14 59.9900000  0  4G 2G12G 6G13
  19070104.7644  -15167241.44747 -11591982.86562
  20801361.2324   -3326569.08646  -2285172.67261
  18112556.053   -29699907.304 7 -23065520.39822
  17422218.8654  -29404659.42247 -22612133.72162
 91  3 22  3 15 14.9900000  0  4G 2G12G 6G13
  19071468.1784  -15160077.87747 -11586400.86662
  20789069.162    -3391154.719 6  -2335499.00221
  18114948.522   -29687332.178 7 -23055721.61322
  17420136.397   -29415600.278 7 -22620659.04722
 91  3 22  3 15 29.9900000  0  4G 2G12G 6G13
  19072843.6234  -15152853.27047 -11580771.31162
  20776787.061    -3455706.642 6  -2385799.05221
  18117367.350   -29674616.138 7 -23045813.02722
  17418077.412   -29426416.042 7 -22629086.89022
 91  3 22  3 15 44.9900000  0  4G 2G12G 6G13
  19074226.0614  -15145576.99347 -11575101.49462
  20764507.7724   -3520234.19846  -2436080.11861
  18119814.014   -29661768.934 7 -23035802.23323
  17416042.014   -29437116.510 7 -22637424.89322
 91  3 22  3 15 59.9900000  0  4G 2G12G 6G13
  19075623.397   -15138245.144 7 -11569388.37822
  20752235.1934   -3584733.18546  -2486338.91861
  18122283.295   -29648786.716 7 -23025686.23622
  17414028.154   -29447697.806 7 -22645670.04022
 91  3 22  3 16 14.9900000  0  4G 2G12G 6G13
  19077029.232   -15130861.033 7 -11563634.54022
  20739967.193    -3649206.521 6  -2536577.75121
  18124779.0374  -29635672.97347 -23015467.74862
  17412036.076   -29458163.542 7 -22653825.14122
 91  3 22  3 16 29.9900000  0  4G 2G12G 6G13
  19078445.3034  -15123410.27147 -11557828.75662
  20727704.2954   -3713639.50146  -2586785.14061
  18127303.998   -29622413.399 7 -23005135.62723
  17410069.842   -29468499.765 7 -22661879.32022
 91  3 22  3 16 44.9900000  0  4G 2G12G 6G13
  19079873.0924  -15115905.23347 -11551980.68362
  20715447.4824   -3778044.09646  -2636970.40161
  18129851.514   -29609020.444 7 -22994699.57623
  17408124.787   -29478719.018 7 -22669842.35122
 91  3 22  3 16 59.9900000  0  4G 2G12G 6G13
  19081313.1004  -15108336.85147 -11546083.24562
  20703198.2724   -3842411.00846  -2687126.28561
  18132426.8034  -29595485.22247 -22984152.66162
  17406204.389   -29488812.405 7 -22677707.31222
 91  3 22  3 17 14.9900000  0  4G 2G12G 6G13
  19082764.1394  -15100716.57847 -11540145.37562
  20690955.475    -3906751.505 6  -2737261.60321
  18135027.545   -29581819.431 7 -22973504.01223
  17404304.975   -29498791.715 7 -22685483.37722
 91  3 22  3 17 29.9900000  0  4G 2G12G 6G13
  19084223.9284  -15093050.20347 -11534171.58662
  20678715.7404   -3971071.17746  -2787380.69061
  18137650.857   -29568029.133 7 -22962758.34123
  17402426.826   -29508663.087 7 -22693175.33422
 91  3 22  3 17 44.9900000  0  4G 2G12G 6G13
  19085692.443   -15085328.474 7 -11528154.67022
  20666482.264    -4035360.388 6  -2837476.04621
  18140301.342   -29554105.096 7 -22951908.46123
  17400570.545   -29518417.647 7 -22700776.27022
 91  3 22  3 17 59.9900000  0  4G 2G12G 6G13
  19087175.2484  -15077536.21947 -11522082.79762
  20654255.3734   -4099603.53346  -2887535.49661
  18142980.232   -29540032.241 7 -22940942.61723
  17398739.107   -29528040.142 7 -22708274.29922
 91  3 22  3 18 14.9900000  0  4G 2G12G 6G13
  19088668.170   -15069692.987 7 -11515971.19422
  20642036.9514   -4163820.12846  -2937574.25761
  18145683.428   -29525830.406 7 -22929876.27022
  17396929.561   -29537550.610 7 -22715685.03022
 91  3 22  3 18 29.9900000  0  4G 2G12G 6G13
  19090174.3814  -15061776.79847 -11509802.74962
  20629826.709    -4227987.872 6  -2987574.94821
  18148413.514   -29511477.817 7 -22918692.44823
  17395145.2794  -29546927.15647 -22722991.41562
 91  3 22  3 18 44.9900000  0  4G 2G12G 6G13
  19091694.248   -15053789.761 7 -11503579.09722
  20617623.912    -4292108.603 6  -3037539.02821
  18151172.193   -29496976.695 7 -22907392.89323
  17393386.201   -29556172.310 7 -22730195.41122
 91  3 22  3 18 59.9900000  0  4G 2G12G 6G13
  19093225.498   -15045743.798 7 -11497309.53522
  20605429.459    -4356193.928 6  -3087475.50821
  18153956.279   -29482339.087 7 -22895986.98023
  17391649.795   -29565298.279 7 -22737306.53422
 91  3 22  3 19 14.9900000  0  4G 2G12G 6G13
  19094767.459   -15037635.746 7 -11490991.58422
  20593240.748    -4420240.520 6  -3137381.81121
  18156771.740   -29467562.109 7 -22884472.47022
  17389935.436   -29574302.372 7 -22744322.69222
 91  3 22  3 19 29.9900000  0  4G 2G12G 6G13
  19096323.279   -15029466.793 7 -11484626.18322
  20581061.4204   -4484249.17546  -3187258.55561
  18159607.701   -29452647.106 7 -22872850.40723
  17388245.522   -29583185.965 7 -22751244.95922
 91  3 22  3 19 44.9900000  0  4G 2G12G 6G13
  19097887.553   -15021244.198 7 -11478218.98122
  20568886.607    -4548226.874 6  -3237111.16921
  18162470.748   -29437601.485 6 -22861126.56523
  17386575.951   -29591956.611 7 -22758079.21022
 91  3 22  3 19 59.9900000  0  4G 2G12G 6G13
  19099461.834   -15012969.096 7 -11471770.86522
  20556716.7564   -4612174.50646  -3286940.37861
  18165358.678   -29422426.572 6 -22849301.97722
  17384928.014   -29600615.567 7 -22764826.43222
 91  3 22  3 20 14.9900000  0  4G 2G12G 6G13
  19101050.678   -15004622.453 7 -11465267.00722
  20544557.615    -4676072.860 6  -3336731.17621
  18168274.912   -29407103.575 6 -22837361.99623
  17383305.897   -29609144.025 7 -22771471.96922
 91  3 22  3 20 29.9900000  0  4G 2G12G 6G13
  19102650.3814  -14996219.68247 -11458719.40462
  20532404.3734   -4739937.04446  -3386495.34561
  18171214.654   -29391648.077 6 -22825318.77223
  17381705.303   -29617557.994 7 -22778028.28922
 91  3 22  3 20 44.9900000  0  4G 2G12G 6G13
  19104260.0294  -14987750.87047 -11452120.34062
  20520259.9124   -4803756.80246  -3436224.89961
  18174184.967   -29376050.231 6 -22813164.63123
  17380127.553   -29625847.614 7 -22784487.71522
 91  3 22  3 20 59.9900000  0  4G 2G12G 6G13
  19105882.834   -14979226.250 7 -11445477.79322
  20508121.2724   -4867542.03546  -3485927.55461
  18177177.084   -29360320.450 7 -22800907.68122
  17378571.670   -29634023.451 7 -22790858.48822
 91  3 22  3 21 14.9900000  0  4G 2G12G 6G13
  19107519.022   -14970626.858 7 -11438776.98222
  20495993.9284   -4931273.43646  -3535588.26061
  18180198.873   -29344440.006 6 -22788533.33022
  17377041.100   -29642066.683 7 -22797125.92922
 91  3 22  3 21 29.9900000  0  4G 2G12G 6G13
  19109170.740   -14961952.307 7 -11432017.61822
  20483876.0144   -4994950.37046  -3585206.52061
  18183250.045   -29328408.608 6 -22776041.35223
  17375535.412   -29649977.485 7 -22803290.18222
 91  3 22  3 21 44.9900000  0  4G 2G12G 6G13
  19110832.240   -14953214.606 7 -11425209.02422
  20471767.1544   -5058584.54346  -3634791.47261
  18186328.318   -29312238.541 7 -22763441.31622
  17374052.779   -29657767.962 7 -22809360.66322
 91  3 22  3 21 59.9900000  0  4G 2G12G 6G13
  19112505.139   -14944425.469 7 -11418360.36422
  20459664.287    -5122187.585 6  -3684352.16321
  18189428.186   -29295941.749 6 -22750742.53822
  17372591.272   -29665450.248 7 -22815346.84622
 91  3 22  3 22 14.9900000  0  4G 2G12G 6G13
  19114187.482   -14935586.216 7 -11411472.65222
  20447565.2484   -5185760.41846  -3733889.32161
  18192554.115   -29279519.751 6 -22737946.19422
  17371149.131   -29673025.814 7 -22821249.86222
 91  3 22  3 22 29.9900000  0  4G 2G12G 6G13
  19115880.2254  -14926686.95047 -11404538.16962
  20435475.2874   -5249292.73146  -3783394.90161
  18195703.584   -29262962.653 7 -22725044.58523
  17369729.701   -29680484.908 7 -22827062.12622
 91  3 22  3 22 44.9900000  0  4G 2G12G 6G13
  19117586.482   -14917724.232 7 -11397554.25022
  20423393.8654   -5312781.01546  -3832866.17761
  18198881.732   -29246267.357 7 -22712035.28122
  17368333.998   -29687824.593 7 -22832781.34822
 91  3 22  3 22 59.9900000  0  4G 2G12G 6G13
  19119299.022   -14908725.220 7 -11390542.04922
  20411316.1474   -5376252.10646  -3882324.04561
  18202079.303   -29229461.278 7 -22698939.65022
  17366953.279   -29695072.293 7 -22838428.89822
 91  3 22  3 23 14.9900000  0  4G 2G12G 6G13
  19121023.967   -14899659.637 7 -11383477.98422
  20399247.7174   -5439675.34046  -3931744.63261
  18205304.717   -29212514.327 7 -22685734.25222
  17365597.748   -29702198.208 7 -22843981.54622
 91  3 22  3 23 29.9900000  0  4G 2G12G 6G13
  19122761.482   -14890533.030 7 -11376366.36622
  20387186.928    -5503056.039 6  -3981132.07721
  18208555.381   -29195432.026 7 -22672423.39222
  17364263.748   -29709207.924 7 -22849443.64322
 91  3 22  3 23 44.9900000  0  4G 2G12G 6G13
  19124512.178   -14881335.735 7 -11369199.65722
  20375134.772    -5566384.109 6  -4030478.52221
  18211832.787   -29178204.926 7 -22658999.70122
  17362953.9824  -29716092.07647 -22854807.91662
 91  3 22  3 23 59.9900000  0  4G 2G12G 6G13
  19126272.568   -14872085.829 6 -11361991.95222
  20363091.1624   -5629677.37246  -4079797.82761
  18215133.951   -29160851.331 7 -22645477.43722
  17361664.7794  -29722868.98447 -22860088.62162
 91  3 22  3 24 14.9900000  0  4G 2G12G 6G13
  19128046.1934  -14862759.20647 -11354724.47562
  20351058.607    -5692911.428 6  -4129071.00721
  18218466.404   -29143347.444 6 -22631838.06422
  17360398.8894  -29729515.04447 -22865267.35862
 91  3 22  3 24 29.9900000  0  4G 2G12G 6G13
  19129830.350   -14853378.433 7 -11347414.78522
  20339031.748    -5756108.699 6  -4178315.52121
  18221820.9674  -29125716.01747 -22618099.31762
  17359155.7564  -29736053.05247 -22870361.90762
 91  3 22  3 24 44.9900000  0  4G 2G12G 6G13
  19131629.9204  -14843927.08847 -11340050.11662
  20327015.904    -5819252.472 6  -4227518.34721
  18225203.240   -29107940.799 7 -22604248.52022
  17357934.443   -29742466.693 7 -22875359.53522
 91  3 22  3 24 59.9900000  0  4G 2G12G 6G13
  19133440.7484  -14834415.94047 -11332638.84862
  20315007.9364   -5882353.16246  -4276687.62861
  18228612.014   -29090032.886 7 -22590294.32622
  17356736.0764  -29748767.32047 -22880269.10662
 91  3 22  3 25 14.9900000  0  4G 2G12G 6G13
  19135261.318   -14824847.332 7 -11325182.81722
  20303007.5614   -5945412.94346  -4325824.99761
  18232043.943   -29071994.772 6 -22576238.67122
  17355557.826   -29754957.514 7 -22885092.61722
 91  3 22  3 25 29.9900000  0  4G 2G12G 6G13
  19137094.9044  -14815209.83747 -11317673.08262
  20291018.7564   -6008419.87146  -4374921.19261
  18235504.068   -29053815.101 7 -22562072.71722
  17354404.076   -29761026.069 7 -22889821.33822
 91  3 22  3 25 44.9900000  0  4G 2G12G 6G13
  19138937.967   -14805510.769 6 -11310115.38322
  20279036.998    -6071380.896 6  -4423981.62521
  18238988.334   -29035501.374 6 -22547802.30722
  17353270.318   -29766980.619 7 -22894461.24422
 91  3 22  3 25 59.9900000  0  4G 2G12G 6G13
  19140799.3574  -14795741.44846 -11302502.93862
  20267065.7254   -6134287.07846  -4472999.30861
  18242499.693   -29017045.168 6 -22533420.87122
  17352160.4674  -29772812.68047 -22899005.69562
 91  3 22  3 26 14.9900000  0  4G 2G12G 6G13
  19142666.6004  -14785926.51146 -11294854.94162
  20255100.1624   -6197162.84846  -4521993.30561
  18246035.576   -28998471.331 7 -22518947.77222
  17351068.7484  -29778547.17047 -22903474.12162
 91  3 22  3 26 29.9900000  0  4G 2G12G 6G13
  19144548.2724  -14776046.71547 -11287156.41062
  20243147.803    -6259988.536 6  -4570948.27921
  18249596.154   -28979760.780 7 -22504368.14422
  17349999.6934  -29784164.95947 -22907851.61062
 91  3 22  3 26 44.9900000  0  4G 2G12G 6G13
  19146438.818   -14766112.047 7 -11279415.12722
  20231199.3734   -6322774.24246  -4619872.10861
  18253180.068   -28960923.975 6 -22489690.13522
  17348949.9594  -29789676.69447 -22912146.45962
 91  3 22  3 26 59.9900000  0  4G 2G12G 6G13
  19148342.303   -14756106.718 7 -11271618.78322
  20219260.170    -6385503.828 6  -4668752.20721
  18256791.662   -28941945.210 6 -22474901.51222
  17347924.740   -29795066.936 7 -22916346.63522
 91  3 22  3 27 14.9900000  0  4G 2G12G 6G13
  19150261.7174  -14746022.50147 -11263760.96562
  20207335.178    -6448168.689 6  -4717581.85321
  18260431.756   -28922816.534 6 -22459996.07522
  17346924.428   -29800327.607 7 -22920445.84922
 91  3 22  3 27 29.9900000  0  4G 2G12G 6G13
  19152190.9124  -14735876.58246 -11255855.05862
  20195420.0534   -6510785.54246  -4766374.11261
  18264096.584   -28903555.219 6 -22444987.28222
  17345943.982   -29805476.092 7 -22924457.63622
 91  3 22  3 27 44.9900000  0  4G 2G12G 6G13
  19154134.4124  -14725659.72346 -11247893.88062
  20183515.154    -6573344.815 6  -4815121.48521
  18267790.1234  -28884152.10246 -22429868.00162
  17344988.029   -29810503.545 7 -22928375.12122
 91  3 22  3 27 59.9900000  0  4G 2G12G 6G13
  19156088.3424  -14715398.55447 -11239898.17862
  20171615.943    -6635872.842 6  -4863844.52621
  18271503.787   -28864634.156 6 -22414659.23622
  17344049.1704  -29815436.94447 -22932219.31862
 91  3 22  3 28 14.9900000  0  4G 2G12G 6G13
  19158055.022   -14705067.249 7 -11231847.83222
  20159729.2954   -6698343.69546  -4912523.01761
  18275244.975   -28844975.863 6 -22399341.11022
  17343133.201   -29820250.741 7 -22935970.31722
 91  3 22  3 28 29.9900000  0  4G 2G12G 6G13
  19160033.451   -14694674.345 7 -11223749.47622
  20147850.9044   -6760765.37346  -4961163.18861
  18279010.217   -28825185.760 6 -22383920.27722
  17342238.2874  -29824953.67247 -22939634.93262
 91  3 22  3 28 44.9900000  0  4G 2G12G 6G13
  19162024.615   -14684211.687 6 -11215596.77822
  20135983.084    -6823129.516 6  -5009758.52621
  18282802.686   -28805256.123 6 -22368390.72022
  17341365.7794  -29829538.19147 -22943207.27662
 91  3 22  3 28 59.9900000  0  4G 2G12G 6G13
  19164024.615   -14673685.880 6 -11207394.86022
  20124125.4434   -6885442.35246  -5058313.89261
  18286619.975   -28785193.591 6 -22352757.60622
  17340514.764   -29834010.799 7 -22946692.41522
 91  3 22  3 29 14.9900000  0  4G 2G12G 6G13
  19166037.326   -14663108.794 6 -11199152.99222
  20112275.2094   -6947715.57246  -5106838.38161
  18290462.4594  -28765010.38246 -22337030.45262
  17339683.1474  -29838383.68447 -22950099.84762
 91  3 22  3 29 29.9900000  0  4G 2G12G 6G13
  19168064.607   -14652465.835 6 -11190859.78922
  20100436.201    -7009934.438 6  -5155320.50921
  18294328.061   -28744692.289 6 -22321198.19922
  17338872.5534  -29842642.78547 -22953418.62162
 91  3 22  3 29 44.9900000  0  4G 2G12G 6G13
  19170103.459   -14641748.730 6 -11182508.81422
  20088606.772    -7072090.177 6  -5203753.44921
  18298221.0294  -28724231.04146 -22305254.40462
  17338084.3574  -29846780.14347 -22956642.52962
 91  3 22  3 29 59.9900000  0  4G 2G12G 6G13
  19172154.451   -14630971.944 6 -11174111.33022
  20076788.162    -7134196.876 6  -5252148.19321
  18302139.8894  -28703641.34146 -22289210.50462
  17337318.1474  -29850809.99347 -22959782.67162
 91  3 22  3 30 14.9900000  0  4G 2G12G 6G13
  19174216.982   -14620136.422 6 -11165668.08322
  20064979.662    -7196255.249 6  -5300505.28021
  18306082.045   -28682924.343 6 -22273067.41222
  17336570.7094  -29854733.94247 -22962840.29162
 91  3 22  3 30 29.9890000  0  4G 2G12G 6G13
  19176292.548   -14609220.867 6 -11157162.47322
  20053185.0404   -7258238.74446  -5348804.01461
  18310052.978   -28662059.572 6 -22256809.17322
  17335848.3844  -29858530.07747 -22965798.30762
 91  3 22  3 30 44.9890000  0  4G 2G12G 6G13
  19178381.712   -14598242.601 6 -11148607.99222
  20041398.509    -7320174.071 6  -5397065.21321
  18314047.923   -28641063.251 6 -22240448.42522
  17335147.8604  -29862217.90747 -22968671.93062
 91  3 22  3 30 59.9890000  0  4G 2G12G 6G13
  19180481.696   -14587206.818 6 -11140008.69922
  20029620.228    -7382061.316 6  -5445288.95921
  18318067.954   -28619941.602 6 -22223990.02922
  17334464.6814  -29865802.01047 -22971464.73262
 91  3 22  3 31 14.9890000  0  4G 2G12G 6G13
  19182593.899   -14576111.074 6 -11131362.68222
  20017854.728    -7443897.758 6  -5493473.11921
  18322110.7514  -28598692.36846 -22207432.20962
  17333802.978   -29869280.273 8 -22974175.05022
 91  3 22  3 31 29.9890000  0  4G 2G12G 6G13
  19184717.579   -14564950.861 6 -11122666.42722
  20006097.9784   -7505678.52246  -5541613.88061
  18326179.6814  -28577311.21046 -22190771.59562
  17333162.4234  -29872648.39948 -22976799.55462
 91  3 22  3 31 44.9890000  0  4G 2G12G 6G13
  19186850.532   -14553740.966 6 -11113931.45722
  19994348.9624   -7567418.02246  -5589722.49161
  18330271.0954  -28555813.29146 -22174019.99762
  17332539.5244  -29875921.64948 -22979350.12662
 91  3 22  3 31 59.9890000  0  4G 2G12G 6G13
  19188994.0094  -14542481.40546 -11105157.78462
  19982606.7984   -7629115.99646  -5637798.74461
  18334381.696   -28534198.695 6 -22157177.48322
  17331934.4854  -29879100.43048 -22981827.09362
 91  3 22  3 32 14.9890000  0  4G 2G12G 6G13
  19191150.649   -14531140.857 6 -11096321.00822
  19970880.8454   -7690740.80646  -5685817.98461
  18338525.017   -28512436.312 6 -22140219.80822
  17331353.6654  -29882153.60948 -22984206.18262
 91  3 22  3 32 29.9890000  0  4G 2G12G 6G13
  19193322.782   -14519735.128 6 -11087433.43922
  19959165.0244   -7752308.02546  -5733792.35061
  18342691.6574  -28490542.20746 -22123159.49362
  17330793.0954  -29885097.07848 -22986499.78862
 91  3 22  3 32 44.9890000  0  4G 2G12G 6G13
  19195506.071   -14508255.342 6 -11078488.17322
  19947461.2124   -7813808.43546  -5781714.66461
  18346884.2434  -28468507.85446 -22105989.89462
  17330255.7204  -29887922.31948 -22988701.26362
 91  3 22  3 32 59.9890000  0  4G 2G12G 6G13
  19197700.462   -14496710.929 6 -11069492.54122
  19935768.774    -7875251.191 6  -5829592.05521
  18351102.470   -28446342.805 6 -22088718.45822
  17329739.2204  -29890639.05448 -22990818.19162
 91  3 22  3 33 14.9890000  0  4G 2G12G 6G13
  19199911.5094  -14485102.76446 -11060447.22762
  19924088.829    -7936637.078 6  -5877425.13021
  18355345.493   -28424048.399 6 -22071346.22322
  17329242.2594  -29893248.51948 -22992851.53162
 91  3 22  3 33 29.9890000  0  4G 2G12G 6G13
  19202131.431   -14473436.955 6 -11051357.00322
  19912416.548    -7997971.741 6  -5925218.29821
  18359611.103   -28401630.896 6 -22053878.06122
  17328764.321   -29895757.024 8 -22994806.20022
 91  3 22  3 33 44.9890000  0  4G 2G12G 6G13
  19204365.860   -14461701.869 6 -11042212.79522
  19900755.884    -8059243.112 6  -5972962.14921
  18363902.845   -28379078.721 6 -22036304.96122
  17328308.9854  -29898153.52448 -22996673.59462
 91  3 22  3 33 59.9890000  0  4G 2G12G 6G13
  19206610.595   -14449904.254 6 -11033019.87522
  19889109.274    -8120457.496 6  -6020661.58721
  18368218.673   -28356398.819 6 -22018632.33822
  17327873.1494  -29900444.89848 -22998459.07362
 91  3 22  3 34 14.9890000  0  4G 2G12G 6G13
  19208867.024   -14438047.937 6 -11023781.20722
  19877469.915    -8181618.619 6  -6068319.52321
  18372556.540   -28333595.449 6 -22000863.50422
  17327455.9544  -29902635.39348 -23000165.94362
 91  3 22  3 34 29.9890000  0  4G 2G12G 6G13
  19211134.501   -14426129.810 6 -11014494.37522
  19865840.040    -8242722.969 6  -6115933.22321
  18376921.017   -28310665.742 6 -21982996.22422
  17327059.1424  -29904722.22348 -23001792.03462
 91  3 22  3 34 44.9890000  0  4G 2G12G 6G13
  19213413.907   -14414150.231 6 -11005159.65822
  19854222.665    -8303770.747 6  -6163502.83521
  18381308.5644  -28287610.37646 -21965031.04062
  17326681.329   -29906705.952 8 -23003337.78422
 91  3 22  3 34 59.9890000  0  4G 2G12G 6G13
  19215703.392   -14402112.696 6 -10995779.78022
  19842619.2744   -8364764.97346  -6211030.71661
  18385717.954   -28264432.997 6 -21946970.76822
  17326323.4234  -29908590.37648 -23004806.15762
 91  3 22  3 35 14.9890000  0  4G 2G12G 6G13
  19218006.767   -14390009.359 6 -10986348.62722
  19831022.3294   -8425697.50646  -6258510.52661
  18390154.103   -28241125.910 6 -21928809.42722
  17325984.5954  -29910367.70448 -23006191.07962
 91  3 22  3 35 29.9890000  0  4G 2G12G 6G13
  19220321.282   -14377851.191 6 -10976874.75322
  19819436.298    -8486578.812 6  -6305950.42921
  18394611.5174  -28217700.25446 -21910555.70362
  17325664.5794  -29912049.31948 -23007501.42062
 91  3 22  3 35 44.9890000  0  4G 2G12G 6G13
  19222648.267   -14365625.222 6 -10967348.04622
  19807863.915    -8547395.706 6  -6353340.14321
  18399094.329   -28194143.348 6 -21892199.69622
  17325365.0954  -29913622.67848 -23008727.40462
 91  3 22  3 35 59.9890000  0  4G 2G12G 6G13
  19224985.8764  -14353340.61146 -10957775.65061
  19796302.095    -8608157.139 6  -6400686.64221
  18403600.603   -28170464.643 6 -21873748.78222
  17325084.3064  -29915097.28448 -23009876.43762
 91  3 22  3 36 14.9890000  0  4G 2G12G 6G13
  19227336.399   -14340991.725 6 -10948153.16922
  19784750.220    -8668857.146 6  -6447985.26621
  18408130.985   -28146658.798 6 -21855198.79922
  17324823.790   -29916467.936 8 -23010944.46722
 91  3 22  3 36 29.9890000  0  4G 2G12G 6G13
  19229698.8604  -14328576.48746 -10938478.98362
  19773212.868    -8729493.291 6  -6495234.12821
  18412684.329   -28122723.903 6 -21836548.25822
  17324582.735   -29917732.272 8 -23011929.65322
 91  3 22  3 36 44.9890000  0  4G 2G12G 6G13
  19232075.1574  -14316089.78846 -10928749.11361
  19761686.673    -8790060.238 6  -6542429.07421
  18417265.837   -28098655.094 6 -21817793.36322
  17324364.0564  -29918885.90648 -23012828.57862
 91  3 22  3 36 59.9890000  0  4G 2G12G 6G13
  19234463.329   -14303531.826 6 -10918963.71122
  19750173.0564   -8850557.92546  -6589570.04561
  18421871.032   -28074453.035 6 -21798934.64122
  17324163.9624  -29919929.48248 -23013641.74462
 91  3 22  3 37 14.9890000  0  4G 2G12G 6G13
  19236863.228   -14290924.159 6 -10909139.57621
  19738670.595    -8911007.525 6  -6636673.53921
  18426497.1184  -28050139.45946 -21779989.02562
  17323982.5644  -29920884.78248 -23014386.12562
 91  3 22  3 37 29.9890000  0  4G 2G12G 6G13
  19239272.110   -14278263.143 6 -10899273.86822
  19727178.829    -8971404.992 6  -6683736.42321
  18431145.774   -28025710.947 6 -21760953.84522
  17323819.5564  -29921748.52048 -23015059.16262
 91  3 22  3 37 44.9890000  0  4G 2G12G 6G13
  19241693.8064  -14265541.94346 -10889361.27761
  19715694.978    -9031743.005 6  -6730752.97821
  18435818.149   -28001160.786 6 -21741823.87422
  17323673.657   -29922514.147 8 -23015655.74322
